[[{"header":{"parameterUnit":"m.s-1","parameterCategory":1,"la1":30.6,"la2":28.766,"lo1":-90.7593,"lo2":-88.6598,"dy":0.0162,"dx":0.0183,"nx":116,"ny":114,"refTime":"2023-08-23T12:00:00:Z","depth":0,"parameterNumber":2,"parameterNumberName":"U-component_of_WINDS"},"data":[0.0,0.0,0.0,0.0,0.0,0.0,0.0,0.0,0.0,0.0,0.0,0.0,0.0,0.0,0.0,0.0,0.0,0.0,0.0,0.0,0.0,0.0,0.0,0.0,0.0,0.0,0.0,0.0,0.0,0.0,0.0,0.0,0.0,0.0,0.0,0.0,0.0,0.0,0.0,0.0,0.0,0.0,0.0,0.0,0.0,0.0,0.0,0.0,0.0,0.0,0.0,0.0,0.0,0.0,0.0,0.0,0.0,0.0,0.0,0.0,0.0,0.0,0.0,0.0,0.0,0.0,0.0,0.0,0.0,0.0,0.0,0.0,0.0,0.0,0.0,0.0,0.0,0.0,0.0,0.0,0.0,0.0,0.0,0.0,0.0,0.0,0.0,0.0,0.0,0.0,0.0,0.0,0.0,0.0,0.0,0.0,0.0,0.0,0.0,0.0,0.0,0.0,0.0,0.0,0.0,0.0,0.0,0.0,0.0,0.0,0.0,0.0,0.0,0.0,0.0,0.0,0.0,0.0,0.0,0.0,0.0,0.0,0.0,0.0,0.0,0.0,0.0,0.0,0.0,0.0,0.0,0.0,0.0,0.0,0.0,0.0,0.0,0.0,0.0,0.0,0.0,0.0,0.0,0.0,0.0,0.0,0.0,0.0,0.0,0.0,0.0,0.0,0.0,0.0,0.0,0.0,0.0,0.0,0.0,0.0,0.0,0.0,0.0,0.0,0.0,0.0,0.0,0.0,0.0,0.0,0.0,0.0,0.0,0.0,0.0,0.0,0.0,0.0,0.0,0.0,0.0,0.0,0.0,0.0,0.0,0.0,0.0,0.0,0.0,0.0,0.0,0.0,0.0,0.0,0.0,0.0,0.0,0.0,0.0,0.0,0.0,0.0,0.0,0.0,0.0,0.0,0.0,0.0,0.0,0.0,0.0,0.0,0.0,0.0,0.0,0.0,0.0,0.0,0.0,0.0,0.0,0.0,0.0,0.0,0.0,0.0,0.0,0.0,0.0,0.0,0.0,0.0,0.0,0.0,0.0,0.0,0.0,0.0,0.0,0.0,0.0,0.0,0.0,0.0,0.0,0.0,0.0,0.0,0.0,0.0,0.0,0.0,0.0,0.0,0.0,0.0,0.0,0.0,0.0,0.0,0.0,0.0,0.0,0.0,0.0,0.0,0.0,0.0,0.0,0.0,0.0,0.0,0.0,0.0,0.0,0.0,0.0,0.0,0.0,0.0,0.0,0.0,0.0,0.0,0.0,0.0,0.0,0.0,0.0,0.0,0.0,0.0,0.0,0.0,0.0,0.0,0.0,0.0,0.0,0.0,0.0,0.0,0.0,0.0,0.0,0.0,0.0,0.0,0.0,0.0,0.0,0.0,0.0,0.0,0.0,0.0,0.0,0.0,0.0,0.0,0.0,0.0,0.0,0.0,0.0,0.0,0.0,0.0,0.0,0.0,0.0,0.0,0.0,0.0,0.0,0.0,0.0,0.0,0.0,0.0,0.0,0.0,0.0,0.0,0.0,0.0,0.0,0.0,0.0,0.0,0.0,0.0,0.0,0.0,0.0,0.0,0.0,0.0,0.0,0.0,0.0,0.0,0.0,0.0,0.0,0.0,0.0,0.0,0.0,0.0,0.0,0.0,0.0,0.0,0.0,0.0,0.0,0.0,0.0,0.0,0.0,0.0,0.0,0.0,0.0,0.0,0.0,0.0,0.0,0.0,0.0,0.0,0.0,0.0,0.0,0.0,0.0,0.0,0.0,0.0,0.0,0.0,0.0,0.0,0.0,0.0,0.0,0.0,0.0,0.0,0.0,0.0,0.0,0.0,0.0,0.0,0.0,0.0,0.0,0.0,0.0,0.0,0.0,0.0,0.0,0.0,0.0,0.0,0.0,0.0,0.0,0.0,0.0,0.0,0.0,0.0,0.0,0.0,0.0,0.0,0.0,0.0,0.0,0.0,0.0,0.0,0.0,0.0,0.0,0.0,0.0,0.0,0.0,0.0,0.0,0.0,0.0,0.0,0.0,0.0,0.0,0.0,0.0,0.0,0.0,0.0,0.0,0.0,0.0,0.0,0.0,0.0,0.0,0.0,0.0,0.0,0.0,0.0,0.0,0.0,0.0,0.0,0.0,0.0,0.0,0.0,0.0,0.0,0.0,0.0,0.0,0.0,0.0,0.0,0.0,0.0,0.0,0.0,0.0,0.0,0.0,0.0,0.0,0.0,0.0,0.0,0.0,0.0,0.0,0.0,0.0,0.0,0.0,0.0,0.0,0.0,0.0,0.0,0.0,0.0,0.0,0.0,0.0,0.0,0.0,0.0,0.0,0.0,0.0,0.0,0.0,0.0,0.0,0.0,0.0,0.0,0.0,0.0,0.0,0.0,0.0,0.0,0.0,0.0,0.0,0.0,0.0,0.0,0.0,0.0,0.0,0.0,0.0,0.0,0.0,0.0,0.0,0.0,0.0,0.0,0.0,0.0,0.0,0.0,0.0,0.0,0.0,0.0,0.0,0.0,0.0,0.0,0.0,0.0,0.0,0.0,0.0,0.0,0.0,0.0,0.0,0.0,0.0,0.0,0.0,0.0,0.0,0.0,0.0,0.0,0.0,0.0,0.0,0.0,0.0,0.0,0.0,0.0,0.0,0.0,0.0,0.0,0.0,0.0,0.0,0.0,0.0,0.0,0.0,0.0,0.0,0.0,0.0,0.0,0.0,0.0,0.0,0.0,0.0,0.0,0.0,0.0,0.0,0.0,0.0,0.0,0.0,0.0,0.0,0.0,0.0,0.0,0.0,0.0,0.0,0.0,0.0,0.0,0.0,0.0,0.0,0.0,0.0,0.0,0.0,0.0,0.0,0.0,0.0,0.0,0.0,0.0,0.0,0.0,0.0,0.0,0.0,0.0,0.0,0.0,0.0,0.0,0.0,0.0,0.0,0.0,0.0,0.0,0.0,0.0,0.0,0.0,0.0,0.0,0.0,0.0,0.0,0.0,0.0,0.0,0.0,0.0,0.0,0.0,0.0,0.0,0.0,0.0,0.0,0.0,0.0,0.0,0.0,0.0,0.0,0.0,0.0,0.0,0.0,0.0,0.0,0.0,0.0,0.0,0.0,0.0,0.0,0.0,0.0,0.0,0.0,0.0,0.0,0.0,0.0,0.0,0.0,0.0,0.0,0.0,0.0,0.0,0.0,0.0,0.0,0.0,0.0,0.0,0.0,0.0,0.0,0.0,0.0,0.0,0.0,0.0,0.0,0.0,0.0,0.0,0.0,0.0,0.0,0.0,0.0,0.0,0.0,0.0,0.0,0.0,0.0,0.0,0.0,0.0,0.0,0.0,0.0,0.0,0.0,0.0,0.0,0.0,0.0,0.0,0.0,0.0,0.0,0.0,0.0,0.0,0.0,0.0,0.0,0.0,0.0,0.0,0.0,0.0,0.0,0.0,0.0,0.0,0.0,0.0,0.0,0.0,0.0,0.0,0.0,0.0,0.0,0.0,0.0,0.0,0.0,0.0,0.0,0.0,0.0,0.0,0.0,0.0,0.0,0.0,0.0,0.0,0.0,0.0,0.0,0.0,0.0,0.0,0.0,0.0,0.0,0.0,0.0,0.0,0.0,0.0,0.0,0.0,0.0,0.0,0.0,0.0,0.0,0.0,0.0,0.0,0.0,0.0,0.0,0.0,0.0,0.0,0.0,0.0,0.0,0.0,0.0,0.0,0.0,0.0,0.0,0.0,0.0,0.0,0.0,0.0,0.0,0.0,0.0,0.0,0.0,0.0,0.0,0.0,0.0,0.0,0.0,0.0,0.0,0.0,0.0,0.0,0.0,0.0,0.0,0.0,0.0,0.0,0.0,0.0,0.0,0.0,0.0,0.0,0.0,0.0,0.0,0.0,0.0,0.0,0.0,0.0,0.0,0.0,0.0,0.0,0.0,0.0,0.0,0.0,0.0,0.0,0.0,0.0,0.0,0.0,0.0,0.0,0.0,0.0,0.0,0.0,0.0,0.0,0.0,0.0,0.0,0.0,0.0,0.0,0.0,0.0,0.0,0.0,0.0,0.0,0.0,0.0,0.0,0.0,0.0,0.0,0.0,0.0,0.0,0.0,0.0,0.0,0.0,0.0,0.0,0.0,0.0,0.0,0.0,0.0,0.0,0.0,0.0,0.0,0.0,0.0,0.0,0.0,0.0,0.0,0.0,0.0,0.0,0.0,0.0,0.0,0.0,0.0,0.0,0.0,0.0,0.0,0.0,0.0,0.0,0.0,0.0,0.0,0.0,0.0,0.0,0.0,0.0,0.0,0.0,0.0,0.0,0.0,0.0,0.0,0.0,0.0,0.0,0.0,0.0,0.0,0.0,0.0,0.0,0.0,0.0,0.0,0.0,0.0,0.0,0.0,0.0,0.0,0.0,0.0,0.0,0.0,0.0,0.0,0.0,0.0,0.0,0.0,0.0,0.0,0.0,0.0,0.0,0.0,0.0,0.0,0.0,0.0,0.0,0.0,0.0,0.0,0.0,0.0,0.0,0.0,0.0,0.0,0.0,0.0,0.0,0.0,0.0,0.0,0.0,0.0,0.0,0.0,0.0,0.0,0.0,0.0,0.0,0.0,0.0,0.0,0.0,0.0,0.0,0.0,0.0,0.0,0.0,0.0,0.0,0.0,0.0,0.0,0.0,0.0,0.0,0.0,0.0,0.0,0.0,0.0,0.0,0.0,0.0,0.0,0.0,0.0,0.0,0.0,0.0,0.0,0.0,0.0,0.0,0.0,0.0,0.0,0.0,0.0,0.0,0.0,0.0,0.0,0.0,0.0,0.0,0.0,0.0,0.0,0.0,0.0,0.0,0.0,0.0,0.0,0.0,0.0,0.0,0.0,0.0,0.0,0.0,0.0,0.0,0.0,0.0,0.0,0.0,0.0,0.0,0.0,0.0,0.0,0.0,0.0,0.0,0.0,0.0,0.0,0.0,0.0,0.0,0.0,0.0,0.0,0.0,0.0,0.0,0.0,0.0,0.0,0.0,0.0,0.0,0.0,0.0,0.0,0.0,0.0,0.0,0.0,0.0,0.0,0.0,0.0,0.0,0.0,0.0,0.0,0.0,0.0,0.0,0.0,0.0,0.0,0.0,0.0,0.0,0.0,0.0,0.0,0.0,0.0,0.0,0.0,0.0,0.0,0.0,0.0,0.0,0.0,0.0,0.0,0.0,0.0,0.0,0.0,0.0,0.0,0.0,0.0,0.0,0.0,0.0,0.0,0.0,0.0,0.0,0.0,0.0,0.0,0.0,0.0,0.0,0.0,0.0,0.0,0.0,0.0,0.0,0.0,0.0,0.0,0.0,0.0,0.0,0.0,0.0,0.0,0.0,0.0,0.0,0.0,0.0,0.0,0.0,0.0,0.0,0.0,0.0,0.0,0.0,0.0,0.0,0.0,0.0,0.0,0.0,0.0,0.0,0.0,0.0,0.0,0.0,0.0,0.0,0.0,0.0,0.0,0.0,0.0,0.0,0.0,0.0,0.0,0.0,0.0,0.0,0.0,0.0,0.0,0.0,0.0,0.0,0.0,0.0,0.0,0.0,0.0,0.0,0.0,0.0,0.0,0.0,0.0,0.0,0.0,0.0,0.0,0.0,0.0,0.0,0.0,0.0,0.0,0.0,0.0,0.0,0.0,0.0,0.0,0.0,0.0,0.0,0.0,0.0,0.0,0.0,0.0,0.0,0.0,0.0,0.0,0.0,0.0,0.0,0.0,0.0,0.0,0.0,0.0,0.0,0.0,0.0,0.0,0.0,0.0,0.0,0.0,0.0,0.0,0.0,0.0,0.0,0.0,0.0,0.0,0.0,0.0,0.0,0.0,0.0,0.0,0.0,0.0,0.0,0.0,0.0,0.0,0.0,0.0,0.0,0.0,0.0,0.0,0.0,0.0,0.0,0.0,0.0,0.0,0.0,0.0,0.0,0.0,0.0,0.0,0.0,0.0,0.0,0.0,0.0,0.0,0.0,0.0,0.0,0.0,0.0,0.0,0.0,0.0,0.0,0.0,0.0,0.0,0.0,0.0,0.0,0.0,0.0,0.0,0.0,0.0,0.0,0.0,0.1004,0.0857,0.0,0.0,0.0,0.0,0.0,0.0,0.0,0.0,0.0,0.0,0.0,0.0,0.0,0.0,0.0,0.0,0.0,0.0,0.0,0.0,0.0,0.0,0.0,0.0,0.0,0.0,0.0,0.0,0.0,0.0,0.0,0.0,0.0,0.0,0.0,0.0,0.0,0.0,0.0431,0.0485,0.0448,0.0276,0.013,-0.0042,0.0,0.0,0.0,0.0,0.0,0.0,0.0,0.0,0.0,0.0,0.0,0.0,0.0,0.0,0.0,0.0,0.0,0.0,0.0,0.0,0.0,0.0,0.0,0.0,0.0,0.0,0.0,0.0,0.0,0.0,0.0,0.0,0.0,0.0,0.0,0.0,0.0,0.0,0.0,0.0,0.0,0.0,0.0,0.0,0.0,0.0,0.0,0.0,0.0,0.0,0.0,0.0,0.0,0.0,0.0,0.0,0.0,0.0,0.0,0.0,0.0,0.0,0.0,0.0,0.0,0.0,0.0,0.0,0.0,0.0,0.1285,0.1131,0.0,0.0,0.0,0.0,0.0,0.0,0.0,0.0,0.0,0.0,0.0,0.0,0.0,0.0,0.0,0.0,0.0,0.0,0.0,0.0,0.0,0.0,0.0,0.0457,0.0513,0.0507,0.0547,0.0561,0.0,0.0,0.0,0.0,0.0,0.0,0.0,0.0,0.0,0.0201,0.0453,0.0477,0.0328,0.0031,-0.0217,-0.0459,-0.0246,0.0,0.0,0.0,0.0,0.0,0.0,0.0,0.0,0.0,0.0,0.0,0.0,0.0,0.0,0.0,0.0,0.0,0.0,0.0,0.0,0.0,0.0,0.0,0.0,0.0,0.0,0.0,0.0,0.0,0.0,0.0,0.0,0.0,0.0,0.0,0.0,0.0,0.0,0.0,0.0,0.0,0.0,0.0,0.0,0.0,0.0,0.0,0.0,0.0,0.0,0.0,0.0,0.0,0.0,0.0,0.0,0.0,0.0,0.0,0.0,0.0,0.0,0.0,0.1537,0.1622,0.1799,0.1782,0.1767,0.1664,0.1502,0.1392,0.1377,0.1383,0.0,0.0,0.0,0.0,0.0,0.0,0.0,0.0,0.0,0.0,0.0,0.0,0.0,0.0,0.0,0.0,0.0,0.0,0.0,0.0,0.0,0.061,0.0672,0.0907,0.088,0.0826,0.0768,0.0,0.0,0.0,0.0,0.0,0.0,0.0518,0.0417,0.0201,0.035,0.0147,-0.035,-0.0186,-0.0198,-0.0336,-0.0425,-0.0133,0.0377,0.0,0.0,0.0,0.0,0.0,0.0,0.0,0.0,0.0,0.0,0.0,0.0,0.0,0.0,0.0,0.0,0.0,0.0,0.0,0.0,0.0,0.0,0.0,0.0,0.0,0.0,0.0,0.0,0.0,0.0,0.0,0.0,0.0,0.0,0.0,0.0,0.0,0.0,0.0,0.0,0.0,0.372,0.4083,0.0,0.0,0.0,0.0,0.0,0.0,0.0,0.0,0.0,0.0,0.0,0.0,0.0,0.2519,0.2303,0.2397,0.2321,0.2055,0.2198,0.2145,0.1869,0.205,0.208,0.1957,0.1885,0.0,0.1204,0.1224,0.0,0.0,0.0,0.0,0.0,0.0,0.0,0.0,0.0,0.0,0.0,0.0,0.0,0.0,0.0,0.0,0.0,0.0,0.0,0.0,0.0,0.068,0.0795,0.0839,0.1053,0.1066,0.0806,0.0797,0.0,0.0,0.0,0.0,0.0549,0.0474,0.0352,0.0148,-0.0032,-0.0,0.0159,-0.0171,-0.0318,-0.0287,0.0045,0.0209,0.0276,0.0539,0.0,0.0,0.0,0.0,0.0,0.0,0.0,0.0,0.0,0.0,0.0,0.0,0.0,0.0,0.0,0.0,0.0,0.0,0.0,0.0,0.0,0.0,0.0,0.0,0.0,0.0,0.0,0.0,0.0,0.0,0.0,0.0,0.0,0.0,0.0,0.0,0.0,0.0,0.0,0.369,0.4121,0.4364,0.4428,0.432,0.0,0.0,0.0,0.0,0.0,0.0,0.0,0.0,0.0,0.2609,0.267,0.257,0.2299,0.2245,0.2132,0.1916,0.1944,0.1866,0.1811,0.1866,0.1805,0.1679,0.1538,0.1349,0.1175,0.1506,0.1561,0.141,0.0,0.0,0.0,0.0,0.1447,0.1439,0.0,0.0,0.0,0.0,0.0,0.0,0.0,0.0,0.0,0.0,0.0,0.0,0.0627,0.0785,0.0912,0.0936,0.1222,0.1278,0.0993,0.0955,0.0,0.0,0.0,0.0619,0.0569,0.0382,0.0215,0.0066,-0.0198,-0.0043,0.0576,-0.0,-0.0251,-0.0207,0.0311,0.0396,0.0228,0.064,0.0637,0.033,0.0,0.0,0.0,0.0,0.0,0.0,0.0,0.0,0.0,0.0,0.0,0.0,0.0,0.0,0.0,0.0,0.0,0.0,0.0,0.0,0.0,0.0,0.0,0.0,0.0,0.0,0.0,0.0,0.0,0.0,0.0,0.0,0.0,0.0,0.0,0.0,0.0,0.4297,0.459,0.4684,0.4999,0.4919,0.0,0.0,0.0,0.0,0.0,0.0,0.3124,0.3096,0.2953,0.2695,0.273,0.2657,0.2355,0.2143,0.2009,0.189,0.1756,0.1656,0.1701,0.1728,0.1588,0.1401,0.1266,0.1195,0.116,0.1555,0.1621,0.1593,0.1588,0.156,0.1531,0.1627,0.1594,0.1547,0.0,0.0,0.0,0.0,0.0,0.0,0.0,0.0,0.0,0.0,0.0,0.0624,0.1185,0.1039,0.1117,0.1614,0.1498,0.1412,0.1467,0.1183,0.1004,0.097,0.0866,0.0705,0.051,0.0125,-0.0063,-0.0,0.0043,0.014,0.025,0.0364,0.027,-0.0,-0.0,0.0167,0.0385,0.0596,0.0897,0.1156,0.0544,0.0,0.0,0.0,0.0,0.0,0.0,0.0,0.0,0.0,0.0,0.0,0.0,0.0,0.0,0.0,0.0,0.0,0.0,0.0,0.0,0.0,0.0,0.0,0.0,0.0,0.0,0.0,0.0,0.0,0.0,0.0,0.0,0.0,0.0,0.0,0.0,0.0,0.0,0.5262,0.582,0.0,0.0,0.0,0.0,0.3598,0.3604,0.3536,0.3206,0.3373,0.3275,0.2903,0.2928,0.29,0.2703,0.24,0.2275,0.2206,0.1886,0.1824,0.1809,0.1806,0.1672,0.1468,0.1423,0.1342,0.1266,0.0978,0.0879,0.0955,0.087,0.0906,0.1053,0.1206,0.1334,0.1537,0.0,0.0,0.0,0.0,0.0,0.0,0.0,0.0,0.041,0.0431,0.0648,0.0823,0.0912,0.1092,0.1262,0.1289,0.1537,0.1566,0.1329,0.1219,0.1197,0.1242,0.0971,0.0694,0.0516,0.0314,0.0195,0.0129,0.0479,0.0671,0.0703,0.1008,0.1101,0.0956,0.0538,0.0362,0.0428,0.0325,0.0513,0.0912,0.08,0.0606,0.0,0.0,0.0,0.0,0.0,0.0,0.0,0.0,0.0,0.0,0.0,0.0,0.0,0.0,0.0,0.0,0.0,0.0,0.0,0.0,0.0,0.0,0.0,0.0,0.0,0.0,0.0,0.0,0.0,0.0,0.0,0.0,0.0,0.0,0.0,0.0,0.0,0.5675,0.5958,0.0,0.5058,0.4976,0.4801,0.426,0.4006,0.3773,0.3398,0.3196,0.2928,0.2721,0.263,0.2541,0.2395,0.2057,0.1775,0.1673,0.1562,0.1402,0.131,0.1415,0.1275,0.0954,0.0802,0.0842,0.1058,0.0887,0.1005,0.1286,0.1189,0.127,0.146,0.146,0.156,0.1769,0.0,0.0,0.0,0.0,0.0,0.0,0.0,0.0,0.0444,0.046,0.0716,0.0915,0.0886,0.1165,0.1338,0.1321,0.1547,0.1631,0.1406,0.1391,0.1402,0.1354,0.0876,0.06,0.0634,0.0608,0.0524,0.0421,0.0767,0.0982,0.1085,0.1225,0.1387,0.1443,0.0993,0.0758,0.0717,0.0588,0.0617,0.0779,0.08,0.0705,0.0587,0.0,0.0,0.0,0.0,0.0,0.0,0.0,0.0,0.0,0.0,0.0,0.0,0.0,0.0,0.0,0.0,0.0,0.0,0.0,0.0,0.0,0.0,0.0,0.0,0.0,0.0,0.0,0.0,0.0,0.0,0.0,0.0,0.0,0.0,0.6113,0.6302,0.6051,0.6205,0.6062,0.5301,0.5205,0.5024,0.465,0.4232,0.3851,0.352,0.314,0.2827,0.2593,0.249,0.2332,0.2126,0.182,0.1587,0.1359,0.1297,0.1193,0.1033,0.1191,0.0927,0.0494,0.055,0.0713,0.0913,0.0924,0.1057,0.1192,0.1286,0.1431,0.1572,0.1515,0.1684,0.1974,0.0,0.0,0.0,0.0,0.0,0.0,0.0,0.0461,0.0527,0.0591,0.0656,0.086,0.1267,0.1302,0.1428,0.1646,0.1651,0.1666,0.1767,0.1653,0.1496,0.1301,0.0615,0.0475,0.0909,0.0913,0.0902,0.0909,0.0892,0.1052,0.1299,0.1005,0.1101,0.1423,0.1384,0.1284,0.1146,0.1464,0.1365,0.0984,0.0614,0.0642,0.0893,0.0,0.0,0.0,0.0,0.0,0.0,0.0,0.0,0.0,0.0,0.0,0.0,0.0,0.0,0.0,0.0,0.0,0.0,0.0,0.0,0.0,0.0,0.0,0.0,0.0,0.0,0.0,0.0,0.0,0.0,0.0,0.0,0.0,0.6432,0.6556,0.6553,0.6416,0.6724,0.6404,0.5221,0.5283,0.5205,0.4626,0.4187,0.3753,0.3513,0.3227,0.2941,0.2598,0.2441,0.2251,0.1996,0.1863,0.1628,0.1272,0.1267,0.119,0.103,0.1062,0.0678,0.0062,0.0636,0.0872,0.0884,0.0973,0.0831,0.0673,0.1066,0.1234,0.1291,0.1291,0.1578,0.1978,0.0,0.0,0.0,0.0,0.0,0.0,0.0,0.0461,0.0549,0.0665,0.0859,0.1134,0.1561,0.1456,0.1382,0.1321,0.1519,0.1514,0.1363,0.1475,0.1355,0.0949,0.1401,0.1421,0.0898,0.133,0.1427,0.1102,0.1172,0.1231,0.1221,0.1211,0.1259,0.1372,0.139,0.1338,0.1354,0.1446,0.1424,0.1279,0.1358,0.1189,0.1,0.0,0.0,0.0,0.0,0.0,0.0,0.0,0.0,0.0,0.0,0.0,0.0,0.0,0.0,0.0,0.0,0.0,0.0,0.0,0.0,0.0,0.0,0.0,0.0,0.0,0.0,0.0,0.0,0.0,0.0,0.0,0.6389,0.6773,0.7337,0.7362,0.7223,0.6993,0.6841,0.6485,0.5762,0.551,0.5123,0.4501,0.4061,0.3628,0.314,0.2736,0.236,0.2129,0.1956,0.1788,0.1563,0.1435,0.1365,0.1285,0.1177,0.1056,0.0907,0.0959,0.0597,-0.0,0.0181,0.0414,0.0683,0.0919,0.0913,0.0842,0.0954,0.1066,0.1178,0.1178,0.1382,0.1735,0.0,0.0,0.0,0.0,0.0,0.0,0.0,0.0446,0.0516,0.0574,0.0991,0.129,0.1371,0.1346,0.1363,0.1284,0.1428,0.1468,0.1299,0.1276,0.112,0.0792,0.1259,0.1299,0.0721,0.1159,0.1342,0.1143,0.1149,0.1146,0.1261,0.1172,0.1215,0.1262,0.1282,0.1299,0.1384,0.1363,0.1354,0.1491,0.1694,0.1638,0.1401,0.1496,0.1689,0.1905,0.2176,0.2542,0.2918,0.297,0.0,0.0,0.0,0.0,0.0,0.0,0.0,0.0,0.0,0.0,0.0,0.0,0.0,0.0,0.0,0.0,0.0,0.0,0.0,0.0,0.0,0.0,0.0,0.0,0.6572,0.6991,0.7705,0.7509,0.7234,0.7181,0.6806,0.6318,0.573,0.5401,0.4945,0.4299,0.3803,0.3378,0.2957,0.2554,0.2195,0.2054,0.1866,0.1698,0.142,0.1389,0.1256,0.0962,0.1017,0.101,0.1002,0.0648,0.0175,-0.0347,-0.0117,0.0289,0.0731,0.0867,0.092,0.0898,0.0,0.0,0.0,0.0,0.1217,0.1357,0.0,0.0,0.0,0.0,0.0,0.0,0.0,0.0411,0.0484,0.044,0.1003,0.1306,0.103,0.1168,0.1295,0.1357,0.1413,0.141,0.1366,0.1138,0.0927,0.074,0.0682,0.0632,0.0484,0.0812,0.0991,0.1078,0.0997,0.1103,0.1292,0.1105,0.1006,0.1056,0.1056,0.1145,0.125,0.1169,0.1314,0.1538,0.1826,0.1914,0.1824,0.1797,0.1919,0.2085,0.2277,0.2467,0.2705,0.2954,0.0,0.0,0.0,0.0,0.0,0.0,0.0,0.0,0.0,0.0,0.0,0.0,0.0,0.0,0.0,0.0,0.0,0.0,0.0,0.0,0.0,0.0,0.0,0.0,0.6638,0.7042,0.7564,0.7026,0.679,0.7111,0.6724,0.6128,0.5407,0.5061,0.4562,0.4025,0.3475,0.306,0.2832,0.2415,0.0,0.0,0.0,0.1727,0.1373,0.1396,0.1078,0.0437,0.0764,0.0936,0.0884,0.0237,-0.0349,-0.0847,-0.0349,0.0232,0.0741,0.0722,0.0715,0.0793,0.0844,0.0898,0.0845,0.1048,0.1064,0.1007,0.0,0.0,0.0,0.0,0.0,0.0,0.0,0.0366,0.0477,0.0632,0.0816,0.1083,0.1408,0.1214,0.1084,0.115,0.1168,0.1203,0.1232,0.1135,0.1012,0.0796,0.0644,0.0606,0.0809,0.1127,0.1206,0.091,0.1189,0.1342,0.1359,0.1149,0.0912,0.0579,0.0434,0.0445,0.0772,0.0816,0.1033,0.1351,0.1617,0.1522,0.1363,0.1989,0.1988,0.1847,0.2487,0.2835,0.3134,0.3311,0.3549,0.3718,0.3432,0.3359,0.0,0.0,0.0,0.0,0.0,0.0,0.0,0.0,0.0,0.0,0.0,0.0,0.0,0.0,0.0,0.0,0.0,0.0,0.0,0.6321,0.6168,0.6128,0.6367,0.6,0.6025,0.6976,0.654,0.5863,0.5198,0.4646,0.4182,0.369,0.2972,0.2439,0.2194,0.1967,0.1726,0.1468,0.1201,0.0924,0.0595,0.0372,0.0186,0.0066,-0.0127,0.0,-0.0118,-0.0303,-0.0602,-0.0876,-0.0764,-0.0536,-0.0242,-0.0598,-0.042,0.0121,0.0687,0.0729,0.0507,0.0524,0.0718,0.0918,0.0,0.0,0.0,0.0,0.0,0.0,0.0,0.0358,0.0454,0.0572,0.0706,0.0864,0.1068,0.114,0.1092,0.0961,0.1029,0.1035,0.1073,0.104,0.0985,0.1004,0.0759,0.0721,0.0904,0.0905,0.0735,0.0379,0.0577,0.0586,0.0528,0.0481,0.0423,0.0215,-0.0147,-0.0226,-0.0231,0.0228,0.0763,0.131,0.1446,0.1353,0.1264,0.1859,0.2081,0.2079,0.2523,0.2896,0.3329,0.3604,0.3927,0.4147,0.3981,0.3952,0.3872,0.0,0.0,0.0,0.0,0.0,0.0,0.0,0.0,0.0,0.0,0.0,0.0,0.0,0.0,0.6181,0.6349,0.0,0.6164,0.612,0.6087,0.6113,0.6171,0.587,0.5795,0.6264,0.5928,0.5382,0.481,0.4307,0.3768,0.3143,0.2696,0.229,0.1991,0.1868,0.1747,0.157,0.1388,0.0796,-0.0252,-0.0871,-0.1058,-0.0821,-0.0769,-0.0826,-0.0804,-0.0753,-0.0808,-0.0965,-0.0784,-0.0664,-0.0603,-0.0966,-0.0922,-0.0565,-0.0,0.0402,0.0632,0.0287,0.0293,0.0483,0.0,0.0,0.0,0.0,0.0,0.0,0.0,0.0385,0.0414,0.0465,0.0631,0.0706,0.0614,0.0964,0.1109,0.0851,0.0941,0.0971,0.0908,0.0883,0.0987,0.1102,0.0918,0.0819,0.0855,0.0544,0.0246,-0.0194,-0.026,-0.033,-0.0475,-0.0347,-0.0352,-0.0356,-0.0589,-0.0903,-0.1069,-0.0463,0.0311,0.1092,0.1248,0.123,0.1203,0.158,0.1878,0.2257,0.2369,0.2723,0.3185,0.355,0.3968,0.4333,0.4196,0.4289,0.4338,0.373,0.3825,0.0,0.0,0.0,0.0,0.0,0.0,0.0,0.0,0.577,0.6117,0.623,0.6397,0.651,0.6397,0.6462,0.6341,0.5758,0.5895,0.6075,0.6,0.5698,0.5473,0.5433,0.5257,0.4874,0.4365,0.3921,0.3391,0.2717,0.244,0.2166,0.1897,0.1792,0.1727,0.1697,0.1606,0.0805,-0.0794,-0.1586,-0.1905,-0.159,-0.1305,-0.1193,-0.1292,-0.1098,-0.108,-0.105,-0.0808,-0.0796,-0.0895,-0.1114,-0.1211,-0.1102,-0.0736,-0.012,0.0478,0.0115,-0.0,0.006,0.0,0.0,0.0,0.0,0.0,0.0,0.0,0.0,0.0397,0.0416,0.049,0.0574,0.068,0.0779,0.0864,0.0889,0.0952,0.0972,0.0896,0.0919,0.09,0.0842,0.0893,0.0793,0.0651,0.0561,0.0192,-0.0452,-0.0796,-0.1021,-0.1046,-0.1119,-0.115,-0.12,-0.1152,-0.1176,-0.1249,-0.1049,-0.0521,0.0228,0.0989,0.1273,0.1172,0.1172,0.1318,0.168,0.2076,0.2375,0.2525,0.2725,0.3376,0.3988,0.3776,0.4164,0.4596,0.422,0.4168,0.4089,0.3753,0.3535,0.3672,0.4566,0.4992,0.5322,0.0,0.6287,0.6459,0.6767,0.658,0.6351,0.6419,0.624,0.5902,0.5456,0.5361,0.5241,0.4916,0.4666,0.4627,0.4813,0.4982,0.4814,0.4179,0.3604,0.3152,0.2958,0.2309,0.1834,0.1717,0.1515,0.1296,0.1192,0.078,0.0263,-0.0344,-0.1057,-0.1519,-0.1721,-0.1559,-0.1524,-0.1547,-0.1353,-0.1269,-0.1299,-0.146,-0.1578,-0.1606,-0.1565,-0.1469,-0.1335,-0.1228,-0.1022,-0.0699,-0.018,-0.0,-0.0,0.0,0.0,0.0,0.0,0.0,0.0,0.0,0.0,0.0,0.0445,0.0349,0.0389,0.073,0.0823,0.0796,0.0682,0.0828,0.0866,0.0609,0.063,0.0673,0.0862,0.0834,0.0796,0.0745,0.0815,0.0512,-0.0199,-0.0402,-0.0542,-0.0752,-0.0822,-0.1119,-0.1521,-0.1345,-0.1224,-0.1202,-0.1177,-0.0807,-0.0222,0.0364,0.0571,0.0557,0.1095,0.1266,0.137,0.1997,0.2275,0.0,0.3025,0.3282,0.3489,0.388,0.4092,0.4161,0.4268,0.4227,0.4186,0.4095,0.4189,0.4467,0.4979,0.533,0.565,0.6045,0.618,0.6275,0.6512,0.6327,0.615,0.6032,0.5989,0.5717,0.5098,0.5206,0.5173,0.4734,0.4607,0.4569,0.4482,0.4419,0.4243,0.3981,0.3448,0.2986,0.2667,0.2071,0.1727,0.1575,0.138,0.1245,0.124,0.0136,-0.0476,-0.0411,-0.1071,-0.1394,-0.1469,-0.1543,-0.1618,-0.1624,-0.1531,-0.1431,-0.1327,-0.1484,-0.1536,-0.1423,-0.146,-0.1474,-0.1406,-0.1363,-0.1301,-0.113,-0.0734,-0.0311,-0.0,0.0,0.0,0.0,0.0,0.0,0.0,0.0,0.0,0.0,0.0,0.0356,0.0337,0.0683,0.0819,0.0806,0.059,0.0797,0.0784,0.043,0.0515,0.0668,0.0857,0.0773,0.0739,0.0755,0.0933,0.0824,0.0267,0.02,-0.0067,-0.034,-0.0272,-0.0622,-0.1275,-0.1125,-0.1138,-0.1238,-0.1221,-0.0999,-0.0641,-0.0346,-0.0134,0.0065,0.0825,0.1157,0.1296,0.1947,0.2161,0.2283,0.2916,0.3093,0.3038,0.3699,0.3865,0.3832,0.4017,0.4159,0.4218,0.424,0.458,0.491,0.5055,0.5343,0.5664,0.5711,0.583,0.5919,0.607,0.5895,0.5737,0.5587,0.5476,0.5278,0.476,0.4937,0.4973,0.452,0.4434,0.4331,0.4114,0.373,0.3557,0.3702,0.3219,0.278,0.2387,0.1977,0.1708,0.1516,0.1348,0.1295,0.129,0.0141,-0.0418,-0.0344,-0.1017,-0.1331,-0.1304,-0.1532,-0.1631,-0.1662,-0.1616,-0.144,-0.127,-0.1462,-0.1453,-0.136,-0.1482,-0.1544,-0.154,-0.1506,-0.1393,-0.1235,-0.0988,-0.0629,-0.0259,0.0,0.0,0.0,0.0,0.0,0.0,0.0,0.0,0.0,0.0,0.0,0.0,0.0,0.074,0.0865,0.0797,0.0978,0.0901,0.043,0.0772,0.095,0.0798,0.0826,0.0684,0.0413,0.073,0.0941,0.097,0.0647,0.0332,-0.0,0.021,0.0142,-0.0145,-0.0496,-0.0853,-0.1308,-0.1175,-0.1082,-0.1079,-0.1049,-0.0625,0.0059,0.0295,0.0752,0.1299,0.1869,0.1876,0.1611,0.2145,0.2573,0.2828,0.284,0.3253,0.3709,0.3629,0.3903,0.4221,0.4222,0.443,0.4592,0.4527,0.486,0.5167,0.5132,0.5319,0.5488,0.5554,0.5252,0.4976,0.485,0.4785,0.461,0.4286,0.4362,0.4292,0.4,0.3708,0.3561,0.3632,0.3124,0.2938,0.3081,0.294,0.2661,0.2241,0.2104,0.1845,0.1526,0.1493,0.1436,0.1207,0.1224,0.0851,0.0073,-0.0691,-0.121,-0.1411,-0.1546,-0.1615,-0.1615,-0.1504,-0.1398,-0.1237,-0.1544,-0.1668,-0.1668,-0.185,-0.191,-0.1848,-0.1723,-0.1541,-0.1235,-0.0679,-0.0756,-0.1038,0.0,0.0,0.0,0.0,0.0,0.0,0.0,0.0,0.0,0.0,0.0,0.0,0.0,0.0,0.0,0.0,0.1016,0.094,0.1,0.1023,0.0911,0.0562,0.0372,0.0225,0.0121,0.0421,0.0676,0.0904,0.0887,0.0824,0.071,0.0822,0.0764,0.0654,0.0063,-0.0319,-0.0458,-0.0385,-0.0503,-0.0801,-0.0896,-0.0747,-0.0331,0.0221,0.0629,0.0881,0.0,0.149,0.1486,0.1949,0.2166,0.228,0.2663,0.2853,0.3011,0.3081,0.3211,0.3406,0.3665,0.3786,0.3902,0.4364,0.4535,0.4607,0.4759,0.492,0.4955,0.4761,0.4659,0.4446,0.4046,0.3973,0.3827,0.3394,0.3582,0.3596,0.3184,0.3205,0.3235,0.3049,0.2853,0.2781,0.2666,0.2525,0.2388,0.2322,0.1905,0.165,0.1635,0.1383,0.1116,0.0832,0.0576,0.0213,-0.0291,-0.0554,-0.0876,-0.1213,-0.1278,-0.1412,-0.1612,-0.1473,-0.1386,-0.1268,-0.1402,-0.1395,-0.1357,-0.163,-0.1675,-0.1554,-0.1579,-0.1508,-0.14,-0.0973,-0.0746,-0.063,0.0,0.0,0.0,0.0,0.0,0.0,0.0,0.0,0.0,0.0,0.0,0.0,0.0,0.0,0.0,0.0,0.0,0.0947,0.1125,0.1081,0.0924,0.0647,0.0297,0.0106,0.0113,0.0384,0.0561,0.0666,0.0928,0.0924,0.0776,0.0994,0.0996,0.0836,0.0292,-0.0059,-0.0239,-0.0177,-0.029,-0.0567,-0.0758,-0.0676,-0.0351,0.0099,0.0466,0.0,0.0999,0.1155,0.1314,0.1676,0.1846,0.193,0.2376,0.2596,0.2702,0.2795,0.2854,0.3023,0.3342,0.3385,0.3537,0.4084,0.4107,0.4076,0.4217,0.4278,0.4299,0.4117,0.3986,0.3837,0.3602,0.3412,0.3184,0.29,0.3082,0.3097,0.2664,0.2836,0.2877,0.2573,0.2602,0.2542,0.2362,0.2199,0.2177,0.2223,0.184,0.1579,0.1592,0.1296,0.1032,0.081,0.0354,-0.0,-0.0291,-0.0349,-0.0478,-0.0889,-0.1024,-0.1222,-0.1412,-0.1362,-0.1224,-0.1175,-0.1246,-0.1234,-0.1191,-0.1336,-0.1191,-0.0941,-0.1094,-0.1191,-0.1186,-0.1132,-0.0911,-0.0673,0.0,0.0,0.0,0.0,0.0,0.0,0.0,0.0,0.0,0.0,0.0,0.0,0.0,0.0,0.0,0.0,0.0,0.0,0.082,0.0891,0.0957,0.1086,0.0531,0.0236,0.0285,0.0549,0.057,0.0318,0.069,0.0653,0.0222,0.0722,0.0777,0.05,0.0278,-0.0111,-0.0665,-0.0482,-0.0422,-0.0419,-0.0636,-0.0464,-0.0133,-0.0086,0.0245,0.0779,0.0856,0.095,0.1058,0.1396,0.1622,0.1856,0.1992,0.2368,0.2745,0.2608,0.2765,0.3061,0.3113,0.3295,0.348,0.3509,0.3619,0.3682,0.3521,0.3534,0.3674,0.3717,0.334,0.3057,0.3283,0.2945,0.2671,0.2743,0.283,0.2783,0.2516,0.2584,0.2552,0.2335,0.2265,0.2266,0.2262,0.2142,0.2019,0.1896,0.1773,0.157,0.1355,0.1177,0.1123,0.1123,0.0753,0.0346,0.0073,0.0071,-0.014,-0.0421,-0.0841,-0.1038,-0.1015,-0.1011,-0.1011,-0.0944,-0.1048,-0.1034,-0.1033,-0.1065,-0.0608,-0.0059,-0.0413,-0.0578,-0.0621,-0.1051,-0.1064,-0.09,0.0,0.0,0.0,0.0,0.0,0.0,0.0,0.0,0.0,0.0,0.0,0.0,0.0,0.0,0.0,0.0,0.0,0.0,0.1144,0.1099,0.1033,0.0952,0.0852,0.065,0.0305,0.0517,0.0584,0.0541,0.0421,0.0417,0.0478,0.0287,0.0239,0.0334,0.0287,-0.0096,-0.0716,-0.0661,-0.0601,-0.0628,-0.0659,-0.0552,-0.0327,-0.0167,0.012,0.0447,0.0689,0.0942,0.1255,0.1308,0.1629,0.2041,0.2246,0.22,0.2162,0.2256,0.2126,0.199,0.2332,0.2472,0.2529,0.2712,0.2927,0.3044,0.2913,0.3039,0.3122,0.2856,0.2741,0.2614,0.2418,0.2297,0.2208,0.2104,0.2311,0.2446,0.2166,0.2478,0.253,0.212,0.0,0.2307,0.212,0.2211,0.2277,0.2221,0.181,0.1595,0.1573,0.1294,0.1155,0.1083,0.0985,0.0917,0.0801,0.0941,0.0722,0.0216,0.0071,-0.0071,-0.0214,-0.0269,-0.0267,-0.0277,-0.0264,-0.0261,-0.0266,-0.0258,-0.0188,-0.0,0.0119,-0.0,-0.0175,-0.0121,-0.0,0.019,0.0,0.0,0.0,0.0,0.0,0.0,0.0,0.0,0.0,0.0,0.0,0.0,0.0,0.0,0.0,0.0,0.0,0.0,0.0,0.0871,0.0866,0.1024,0.0928,0.0855,0.0789,0.0737,0.0657,0.0646,0.0462,0.0346,0.028,0.028,0.012,-0.012,0.0122,0.0041,-0.0361,-0.0501,-0.0538,0.0,0.0,-0.0312,-0.0114,0.0077,0.0297,0.053,0.0656,0.0919,0.0,0.0,0.0,0.1984,0.2188,0.2173,0.2084,0.2023,0.1827,0.1751,0.1939,0.2001,0.1981,0.2228,0.2409,0.2494,0.2431,0.254,0.2614,0.2436,0.232,0.2205,0.2109,0.1971,0.1911,0.0,0.0,0.0,0.2062,0.2386,0.2448,0.0,0.2288,0.0,0.1963,0.2136,0.2294,0.2114,0.181,0.1718,0.1679,0.14,0.1181,0.1167,0.115,0.1083,0.0963,0.12,0.1118,0.0801,0.079,0.071,0.0563,0.0538,0.0536,0.0481,0.0467,0.0597,0.0671,0.0727,0.0711,0.0691,0.0926,0.0852,0.0785,0.0871,0.1144,0.1422,0.0,0.0,0.0,0.0,0.0,0.0,0.0,0.0,0.0,0.0,0.0,0.0,0.0,0.0,0.0,0.0,0.0,0.0,0.0,0.0,0.0,0.1121,0.0888,0.0931,0.129,0.0969,0.0768,0.0721,0.0655,0.0413,0.0066,0.0497,0.0265,-0.0495,0.0035,0.0208,0.0132,-0.0182,-0.0259,-0.0178,-0.0071,0.0072,0.0251,0.0,0.0605,0.0775,0.0752,0.0,0.0,0.0,0.1426,0.1725,0.1876,0.2068,0.2174,0.1733,0.1747,0.176,0.1723,0.1641,0.17,0.195,0.2038,0.2027,0.1966,0.2048,0.2105,0.2099,0.1914,0.1863,0.2058,0.1898,0.1746,0.1802,0.0,0.2186,0.2179,0.2353,0.2423,0.2195,0.2353,0.2354,0.1886,0.2041,0.2118,0.1964,0.1886,0.1852,0.1699,0.135,0.12,0.1173,0.1172,0.1113,0.0837,0.1166,0.1307,0.1179,0.117,0.1144,0.1102,0.1222,0.1221,0.1096,0.1084,0.1285,0.1563,0.1552,0.1591,0.1619,0.1678,0.1714,0.1683,0.1789,0.2068,0.2538,0.0,0.0,0.0,0.0,0.0,0.0,0.0,0.0,0.0,0.0,0.0546,0.0704,0.0,0.0,0.0,0.0,0.0,0.0,0.0,0.0,0.0,0.0,0.0976,0.093,0.0739,0.0778,0.0812,0.0861,0.07,0.0672,0.0812,0.0733,0.058,0.0379,0.0527,0.0554,0.0437,0.0298,0.0307,0.0349,0.0381,0.0425,0.0443,0.0472,0.0,0.0,0.0,0.0,0.0,0.0,0.1578,0.1755,0.1654,0.1663,0.1734,0.143,0.1308,0.1257,0.1234,0.1194,0.1226,0.1488,0.1579,0.1585,0.1645,0.179,0.0,0.1571,0.1678,0.178,0.1665,0.175,0.1851,0.1745,0.2014,0.2207,0.2315,0.2391,0.2377,0.0,0.2353,0.2276,0.1729,0.1962,0.2195,0.2118,0.1963,0.1802,0.1631,0.1376,0.1209,0.1204,0.1204,0.1218,0.1249,0.1254,0.133,0.1318,0.1191,0.1187,0.1146,0.1124,0.1119,0.1185,0.1109,0.1243,0.1505,0.1371,0.1475,0.1665,0.1626,0.1606,0.1664,0.2124,0.2421,0.2736,0.0,0.0,0.0,0.0,0.0,0.0,0.0,0.0346,0.0312,0.0301,0.079,0.1033,0.082,0.0796,0.0773,0.0,0.0,0.0,0.0,0.0,0.0,0.0,0.0,0.0,0.0906,0.0876,0.0957,0.1156,0.0,0.0969,0.1053,0.0858,0.0729,0.0658,0.0624,0.0458,0.0229,0.0198,0.0265,0.0325,0.0283,0.0328,0.0504,0.0,0.0,0.0,0.0,0.0,0.0,0.0,0.1328,0.1619,0.1587,0.1578,0.1472,0.1263,0.1122,0.1121,0.1123,0.1122,0.1121,0.1191,0.1316,0.1423,0.1496,0.0,0.0,0.1517,0.1529,0.1501,0.1441,0.1478,0.0,0.1521,0.1682,0.1903,0.2082,0.2245,0.2323,0.2151,0.2336,0.2276,0.1807,0.2041,0.2118,0.2042,0.1964,0.1886,0.1884,0.1709,0.1545,0.1545,0.1545,0.1553,0.165,0.165,0.1562,0.1542,0.1505,0.1497,0.151,0.1439,0.1424,0.16,0.1561,0.1697,0.1856,0.1903,0.1948,0.2129,0.2166,0.2202,0.2238,0.2569,0.2922,0.3288,0.0,0.0,0.0,0.0,0.0,0.0,0.0,0.0748,0.096,0.0792,0.1258,0.1544,0.1413,0.1111,0.0918,0.0,0.0,0.0,0.0,0.0,0.0,0.0,0.0,0.0,0.0,0.0,0.0,0.1253,0.122,0.0,0.0,0.0,0.0,0.0,0.066,0.046,0.0205,0.022,0.0288,0.0,0.0,0.033,0.0,0.0,0.0,0.0,0.0,0.0,0.0,0.0,0.1091,0.1361,0.1539,0.1493,0.1394,0.1204,0.1125,0.1119,0.1077,0.1119,0.1086,0.1183,0.1215,0.129,0.137,0.1413,0.0,0.1538,0.14,0.1336,0.1395,0.1322,0.1303,0.0,0.1548,0.1675,0.1999,0.2177,0.227,0.2188,0.2398,0.0,0.1964,0.2119,0.2118,0.1963,0.2043,0.2042,0.2118,0.1963,0.1887,0.1887,0.1887,0.1887,0.1887,0.1887,0.1869,0.1834,0.1899,0.188,0.1853,0.1749,0.1798,0.1996,0.2004,0.207,0.2264,0.2355,0.2485,0.2592,0.2783,0.2807,0.282,0.3068,0.3405,0.382,0.0,0.0,0.0,0.0,0.0,0.0,0.0,0.1685,0.2512,0.201,0.1733,0.2064,0.3235,0.2137,0.1205,0.0,0.0,0.0,0.0,0.0,0.0,0.0,0.0,0.0,0.0,0.0,0.0,0.0767,0.1126,0.0,0.0,0.0,0.0,0.0,0.0,0.0893,0.0832,0.0889,0.0,0.0,0.0,0.0,0.0,0.0,0.0,0.0,0.0,0.0,0.0,0.0,0.0,0.0945,0.1364,0.1516,0.1479,0.1316,0.0,0.0,0.0908,0.0964,0.1154,0.1323,0.1235,0.1192,0.144,0.0,0.1322,0.1383,0.134,0.1332,0.1379,0.1398,0.1459,0.1626,0.1711,0.1953,0.2387,0.228,0.2223,0.2331,0.0,0.0,0.1964,0.2119,0.2196,0.2196,0.2353,0.2276,0.1964,0.1887,0.1887,0.1887,0.1887,0.1887,0.1887,0.1887,0.1963,0.2037,0.2069,0.2069,0.2104,0.1964,0.1947,0.2095,0.1958,0.2089,0.2313,0.2351,0.2542,0.2793,0.2929,0.303,0.3215,0.3586,0.374,0.3877,0.0,0.0,0.0,0.0,0.0,0.0,0.0925,0.256,0.3655,0.3446,0.3291,0.3311,0.3592,0.2432,0.1515,0.1191,0.0,0.0,0.0,0.0,0.0,0.0,0.0,0.0,0.0,0.0,0.1061,0.1,0.1242,0.0,0.0,0.0,0.0,0.0,0.0,0.099,0.1078,0.0901,0.0,0.0,0.0,0.0,0.0,0.0,0.0,0.0,0.0,0.0,0.0783,0.0936,0.0,0.0,0.1063,0.1095,0.0,0.0,0.0899,0.0863,0.097,0.1031,0.1154,0.1323,0.1274,0.1267,0.1576,0.0,0.129,0.1482,0.1377,0.1268,0.1418,0.1309,0.13,0.1519,0.1536,0.1598,0.1856,0.2029,0.215,0.2241,0.2416,0.2506,0.2271,0.2354,0.2353,0.2353,0.2589,0.2589,0.2277,0.2277,0.2277,0.2277,0.2277,0.2277,0.2277,0.2277,0.2277,0.2356,0.2333,0.2334,0.2353,0.2285,0.2335,0.2416,0.2272,0.2393,0.269,0.2707,0.2886,0.3147,0.3318,0.3474,0.3689,0.3845,0.4122,0.4408,0.0,0.0,0.0,0.0,0.0,0.0707,0.1416,0.2737,0.3605,0.3455,0.3806,0.3972,0.3622,0.2717,0.1783,0.0948,0.0586,0.0,0.0,0.0,0.0,0.0,0.0,0.0,0.0,0.0,0.1023,0.112,0.1324,0.1433,0.0,0.0,0.1321,0.1252,0.0,0.0,0.0,0.0,0.0,0.0,0.0,0.0,0.0,0.0,0.0,0.0,0.0,0.0,0.0,0.0,0.0,0.0,0.0,0.0,0.0,0.0,0.0842,0.0819,0.1144,0.1215,0.1209,0.1459,0.1392,0.1423,0.0,0.0,0.1383,0.1641,0.1446,0.134,0.152,0.1404,0.1309,0.1517,0.1477,0.1477,0.1547,0.1876,0.2064,0.2173,0.2371,0.2491,0.2448,0.2568,0.2598,0.2616,0.2758,0.2755,0.2537,0.2599,0.2589,0.2511,0.2589,0.2589,0.2589,0.2668,0.2668,0.2668,0.2668,0.2668,0.2666,0.2629,0.2738,0.2842,0.265,0.2749,0.299,0.3061,0.3238,0.3459,0.3662,0.3891,0.4156,0.4254,0.453,0.4872,0.0,0.0,0.0,0.0,0.0,0.0,0.1719,0.1983,0.1964,0.1491,0.2701,0.3626,0.3581,0.317,0.2023,-0.0196,0.01,0.0,0.0,0.0,0.0,0.0,0.0,0.0,0.0,0.0,0.1094,0.0914,0.1296,0.1433,0.1296,0.1433,0.1457,0.141,0.0,0.0,0.0,0.0,0.0,0.0,0.0,0.0,0.0,0.0,0.0,0.0,0.0,0.0,0.0,0.0,0.0,0.0,0.0,0.0,0.0,0.0,0.1118,0.0918,0.1448,0.1485,0.1441,0.166,0.168,0.1712,0.179,0.1634,0.158,0.1825,0.1617,0.1447,0.1672,0.1646,0.1615,0.1592,0.167,0.1737,0.1771,0.1846,0.1926,0.0,0.2172,0.2199,0.2331,0.2595,0.2853,0.2921,0.2864,0.2776,0.2597,0.2702,0.2668,0.2511,0.2668,0.2826,0.2826,0.2982,0.3062,0.3062,0.3062,0.3062,0.3057,0.2984,0.2989,0.3199,0.3033,0.3096,0.323,0.3433,0.3632,0.3825,0.3961,0.4228,0.461,0.481,0.4974,0.5134,0.0,0.0,0.0,0.0,0.0,0.0,0.0,0.1157,0.1098,0.0944,0.1617,0.1974,0.1652,0.2091,0.2005,0.0915,0.0437,0.0,0.0,0.0,0.0,0.0,0.0,0.0,0.0,0.0,0.1057,0.1166,0.1386,0.1614,0.1853,0.1795,0.1807,0.1882,0.1787,0.1789,0.0,0.0,0.0,0.0,0.0,0.0,0.1287,0.0,0.0,0.0,0.0,0.0,0.0,0.0,0.0,0.0,0.0,0.0,0.0,0.0916,0.0,0.0,0.1033,0.1228,0.1365,0.1304,0.1338,0.1465,0.1707,0.1561,0.1456,0.1585,0.1465,0.1321,0.1341,0.1342,0.1349,0.1444,0.1458,0.1465,0.1493,0.0,0.0,0.23,0.2635,0.274,0.2683,0.2724,0.2835,0.3015,0.2917,0.2835,0.2937,0.2995,0.2904,0.2746,0.2904,0.2984,0.2984,0.3215,0.337,0.3292,0.3292,0.3265,0.3217,0.3067,0.3058,0.305,0.3126,0.3201,0.3362,0.3431,0.3766,0.4164,0.4361,0.4694,0.5153,0.5304,0.5512,0.5665,0.0,0.0,0.0,0.0,0.0,0.0,0.0,0.123,0.1155,0.0926,0.1499,0.2041,0.2335,0.2908,0.3152,0.2824,0.2342,0.0,0.0,0.0,0.0,0.0,0.0,0.0,0.0426,0.0696,0.0946,0.1181,0.1393,0.1721,0.2099,0.2051,0.205,0.2141,0.2,0.1961,0.0,0.0,0.0,0.0,0.0,0.0,0.1202,0.0,0.0,0.0,0.0,0.0,0.0,0.0,0.0,0.0,0.0,0.0,0.0,0.0,0.075,0.0776,0.0,0.1143,0.1327,0.1314,0.1397,0.0,0.1646,0.1604,0.1547,0.1512,0.1432,0.1347,0.1312,0.1331,0.1375,0.147,0.1463,0.1487,0.1559,0.1842,0.2131,0.2457,0.2805,0.2989,0.2862,0.2888,0.2982,0.3062,0.3061,0.3059,0.3062,0.3217,0.3215,0.3059,0.3215,0.3217,0.3062,0.345,0.3604,0.3526,0.3526,0.3501,0.3452,0.344,0.3274,0.3199,0.3329,0.3468,0.0,0.3766,0.4097,0.4625,0.4638,0.4947,0.5267,0.5399,0.557,0.5822,0.0,0.0,0.0,0.0,0.0,0.0,0.0,0.204,0.1907,0.1308,0.224,0.3431,0.466,0.4805,0.4882,0.5073,0.0,0.0,0.0,0.0,0.0,0.0,0.0,0.0,0.0067,0.0472,0.0802,0.1007,0.1352,0.1722,0.2107,0.2219,0.2252,0.224,0.2231,0.213,0.1951,0.1694,0.1547,0.1457,0.1284,0.1225,0.0,0.0,0.0,0.0,0.0,0.0,0.0,0.0,0.0,0.0,0.0,0.0,0.0,0.0,0.0,0.0,0.0,0.1175,0.1228,0.1466,0.1634,0.1763,0.1697,0.1742,0.0,0.1548,0.1506,0.1483,0.1483,0.1541,0.1593,0.1604,0.163,0.174,0.1886,0.2005,0.2241,0.2659,0.2903,0.3025,0.3028,0.3095,0.3056,0.3062,0.3294,0.3372,0.3141,0.3372,0.3526,0.3526,0.3526,0.345,0.3141,0.3608,0.3841,0.3841,0.3841,0.3837,0.3826,0.3883,0.3719,0.3543,0.3724,0.3902,0.4018,0.4228,0.4622,0.5061,0.4868,0.4938,0.5098,0.5142,0.5332,0.5658,0.0,0.0,0.0,0.0,0.0,0.0,0.0,0.0,0.0,0.0,0.3283,0.3878,0.2079,0.1982,0.2865,0.0,0.0,0.0,0.0,0.0,0.0,0.0,0.0,0.0,0.0605,0.0674,0.0826,0.1064,0.1469,0.1898,0.2344,0.2595,0.2677,0.259,0.2593,0.2286,0.1747,0.1481,0.1366,0.1329,0.1245,0.1171,0.0,0.0,0.0,0.0,0.1206,0.1099,0.0,0.0,0.0,0.0,0.0,0.0,0.0,0.0,0.0727,0.0835,0.083,0.0,0.1089,0.1022,0.1228,0.152,0.0,0.1508,0.1516,0.1568,0.0,0.1313,0.1212,0.136,0.1515,0.1444,0.1542,0.1665,0.1798,0.2345,0.2761,0.2829,0.3235,0.333,0.3107,0.3078,0.3078,0.3057,0.2982,0.3059,0.3372,0.3606,0.3684,0.3526,0.3763,0.3843,0.3606,0.3921,0.4075,0.4229,0.4229,0.4342,0.4419,0.4299,0.4137,0.391,0.4094,0.414,0.4102,0.4389,0.4635,0.4733,0.4954,0.5064,0.5204,0.5597,0.5763,0.5832,0.0,0.0,0.0,0.0,0.0,0.0,0.0,0.0,0.0,0.0,0.0,0.4007,0.2945,0.2892,0.0,0.0,0.0,0.0,0.0,0.0,0.0,0.0,0.0,0.1153,0.0448,0.0718,0.0913,0.0996,0.1602,0.2104,0.2542,0.2722,0.2821,0.279,0.2441,0.2109,0.1772,0.1435,0.1296,0.1279,0.1197,0.0,0.0,0.0,0.0,0.0,0.1209,0.1114,0.0,0.104,0.1171,0.1251,0.0,0.0,0.0,0.0,0.0813,0.0908,0.0933,0.1061,0.1153,0.1059,0.1333,0.1639,0.1599,0.0,0.0,0.0,0.0,0.0,0.0,0.0,0.154,0.1547,0.1609,0.1728,0.203,0.2676,0.3191,0.3317,0.3647,0.3741,0.3444,0.3454,0.3362,0.3288,0.326,0.3411,0.3602,0.3841,0.3921,0.3763,0.4075,0.4075,0.3841,0.3999,0.4233,0.4384,0.4384,0.4431,0.453,0.4461,0.4311,0.4183,0.4398,0.4398,0.4252,0.4769,0.5006,0.5125,0.5182,0.529,0.5449,0.5731,0.5762,0.5719,0.0,0.0,0.0,0.0,0.0,0.0,0.0,0.0,0.0,0.0,0.0,0.0,0.0,0.0,0.0,0.0,0.0,0.0,0.0,0.0,0.0,0.0,0.2185,0.2156,0.0572,0.0847,0.0999,0.0971,0.17,0.231,0.2764,0.2867,0.2952,0.295,0.2203,0.1845,0.1775,0.1435,0.1274,0.1274,0.1139,0.0,0.0,0.0,0.0,0.0,0.0,0.0,0.0,0.093,0.1142,0.132,0.0945,0.0,0.0,0.0,0.0,0.0,0.12,0.1319,0.1403,0.1318,0.1603,0.1888,0.1763,0.0,0.0,0.0,0.0,0.0,0.0,0.1565,0.0,0.173,0.1796,0.1994,0.2392,0.2985,0.3436,0.3726,0.3983,0.4002,0.3791,0.3804,0.3789,0.3482,0.3663,0.3815,0.374,0.3977,0.4064,0.4079,0.4307,0.4229,0.3919,0.4077,0.4311,0.446,0.4523,0.4523,0.4616,0.4654,0.454,0.4424,0.4683,0.4701,0.4531,0.5176,0.5452,0.559,0.5456,0.543,0.5541,0.5628,0.5579,0.5546,0.0,0.0,0.0,0.0,0.0,0.0,0.0,0.0,0.0,0.0,0.0,0.0,0.0,0.0,0.0,0.0,0.0,0.0,0.0,0.0,0.0,0.3257,0.2958,0.287,0.2963,0.1468,0.088,0.1309,0.1737,0.2267,0.2961,0.3599,0.3717,0.3368,0.2466,0.1818,0.1377,0.1274,0.1208,0.1208,0.1072,0.0,0.0,0.0,0.0,0.0,0.0,0.0,0.0,0.1086,0.1352,0.1635,0.1067,0.0,0.0,0.0,0.0,0.0,0.1407,0.1672,0.1815,0.1479,0.1659,0.1906,0.1889,0.0,0.0,0.0,0.0,0.0,0.0,0.1653,0.1851,0.1857,0.2146,0.2497,0.2787,0.2943,0.314,0.342,0.3602,0.3648,0.3457,0.367,0.3666,0.3169,0.3442,0.3559,0.3349,0.3726,0.3914,0.3839,0.4229,0.4462,0.4545,0.4623,0.4698,0.4924,0.4977,0.5138,0.5398,0.5342,0.5208,0.5081,0.5132,0.5041,0.4992,0.5282,0.5264,0.5071,0.5293,0.5174,0.4871,0.5234,0.5448,0.5614,0.0,0.0,0.0,0.0,0.0,0.0,0.0,0.0,0.0,0.0,0.0,0.0,0.0,0.0,0.0,0.0,0.0,0.0,0.0,0.0,0.5583,0.4508,0.4432,0.3645,0.1965,0.1304,0.1223,0.1736,0.2145,0.2771,0.3619,0.3869,0.3672,0.3048,0.2313,0.1747,0.128,0.1161,0.1031,0.0942,0.0,0.0,0.0,0.0,0.0,0.0,0.0,0.0,0.0,0.0,0.1284,0.1456,0.1112,0.0,0.0,0.0,0.0,0.0,0.1361,0.1657,0.191,0.1812,0.2071,0.2294,0.2255,0.2192,0.0,0.0,0.0,0.0,0.0,0.0,0.228,0.2342,0.2448,0.2585,0.2843,0.3054,0.3305,0.3613,0.3848,0.3888,0.3923,0.4094,0.4011,0.3636,0.3776,0.3796,0.3554,0.3902,0.4004,0.3995,0.4248,0.4563,0.4819,0.4882,0.4988,0.5214,0.5158,0.5205,0.5411,0.5277,0.5253,0.5329,0.525,0.5235,0.5308,0.5654,0.5682,0.5527,0.5555,0.5489,0.5339,0.5413,0.5772,0.6272,0.0,0.0,0.0,0.0,0.0,0.0,0.0,0.0,0.0,0.0,0.0,0.0,0.0,0.0,0.0,0.0,0.0,0.0,0.0,0.5956,0.6426,0.6328,0.6397,0.4875,0.1593,0.1517,0.1725,0.217,0.2673,0.3306,0.4111,0.3987,0.3523,0.2727,0.2175,0.1757,0.1391,0.1062,0.0895,0.087,0.0,0.0,0.0,0.0,0.0,0.0,0.0,0.0,0.0,0.0,0.0,0.0,0.0,0.0,0.0,0.1266,0.1226,0.1264,0.1407,0.1689,0.1963,0.2084,0.2337,0.2555,0.2623,0.262,0.2603,0.0,0.0,0.0,0.0,0.25,0.2711,0.2832,0.2759,0.2783,0.3052,0.3286,0.3544,0.3858,0.4089,0.4194,0.4212,0.4369,0.4359,0.3996,0.4162,0.4164,0.396,0.4115,0.4208,0.415,0.4305,0.4538,0.4873,0.4933,0.5129,0.5458,0.5287,0.5238,0.5294,0.5199,0.5277,0.5441,0.546,0.546,0.5521,0.5967,0.6116,0.601,0.5892,0.5835,0.5864,0.5776,0.6115,0.6567,0.0,0.0,0.0,0.0,0.0,0.0,0.0,0.0,0.0,0.0,0.0,0.0,0.0,0.0,0.0,0.0,0.0,0.0,0.0,0.5175,0.6641,0.9785,0.8875,0.7025,0.4281,0.2847,0.2317,0.2659,0.3239,0.3738,0.4104,0.4105,0.3655,0.2871,0.2312,0.197,0.1721,0.0962,0.0906,0.1314,0.0913,0.0,0.0,0.0,0.0,0.0,0.0,0.0,0.0,0.0,0.0,0.0,0.0,0.0,0.1471,0.1404,0.1354,0.1364,0.1754,0.1919,0.2,0.2094,0.2079,0.2234,0.2915,0.2695,0.0,0.3025,0.0,0.0,0.2706,0.2822,0.2958,0.3228,0.331,0.3362,0.35,0.3544,0.3714,0.3959,0.3974,0.4043,0.4051,0.4343,0.4359,0.3991,0.4277,0.4471,0.4341,0.4286,0.4194,0.4282,0.4307,0.4458,0.4726,0.4692,0.498,0.546,0.5395,0.5401,0.5512,0.5501,0.5447,0.5303,0.5638,0.5819,0.5873,0.5885,0.6051,0.6191,0.6258,0.6093,0.5835,0.6096,0.6032,0.5922,0.0,0.0,0.0,0.0,0.0,0.0,0.0,0.0,0.0,0.0,0.0,0.0,0.0,0.0,0.0,0.0,0.0,0.0,0.0,0.5097,0.6658,1.0153,0.9863,0.9638,0.9661,0.6066,0.3982,0.3497,0.4293,0.4557,0.4333,0.4143,0.356,0.2686,0.2242,0.1833,0.1493,0.1427,0.1301,0.1167,0.1359,0.1515,0.0,0.0,0.0,0.0,0.0,0.0,0.0,0.0,0.1502,0.1577,0.1377,0.141,0.1577,0.1631,0.1525,0.1445,0.1858,0.209,0.2263,0.2381,0.2377,0.0,0.0,0.2964,0.3058,0.3294,0.3319,0.3271,0.3192,0.3039,0.3027,0.324,0.3374,0.3438,0.3575,0.367,0.3771,0.3949,0.4032,0.4148,0.4353,0.4537,0.4613,0.45,0.4607,0.4631,0.4563,0.4502,0.4461,0.4293,0.4291,0.4438,0.4637,0.4589,0.4751,0.5125,0.5085,0.515,0.5246,0.5206,0.5213,0.5353,0.5564,0.579,0.6021,0.6083,0.6294,0.6576,0.6438,0.6251,0.6069,0.6277,0.6391,0.648,0.0,0.0,0.0,0.0,0.0,0.0,0.0,0.0,0.0,0.0,0.0,0.0,0.0,0.0,0.0,0.0,0.0,0.0,0.6671,0.5717,0.6658,1.0156,1.0271,1.08,1.1921,0.9341,0.7112,0.528,0.5679,0.5281,0.4117,0.3935,0.3415,0.2558,0.2359,0.2019,0.1668,0.1859,0.1651,0.1216,0.1545,0.1724,0.0,0.0,0.0,0.0,0.0,0.0,0.0,0.0,0.1528,0.1568,0.1542,0.1612,0.1726,0.1862,0.1834,0.182,0.1994,0.2187,0.2381,0.2488,0.0,0.0,0.2854,0.3128,0.3411,0.3592,0.3674,0.3676,0.3436,0.3305,0.3211,0.3372,0.353,0.3597,0.373,0.3846,0.4009,0.4057,0.4088,0.4204,0.431,0.4481,0.457,0.4634,0.4742,0.4832,0.4829,0.5026,0.4922,0.4634,0.466,0.4732,0.4891,0.4824,0.4976,0.527,0.5286,0.5238,0.5053,0.5047,0.5192,0.5396,0.5632,0.588,0.6117,0.6302,0.663,0.6973,0.6874,0.6738,0.6549,0.6657,0.682,0.7009,0.0,0.0,0.0,0.0,0.0,0.0,0.0,0.0,0.0,0.0,0.0,0.0,0.0,0.0,0.0,0.0,0.0,0.0,1.0016,0.7021,0.666,1.0154,1.0248,1.0177,1.0108,1.237,1.1757,0.8087,0.74,0.5786,0.3307,0.3504,0.3198,0.2503,0.2719,0.2645,0.2392,0.2126,0.1846,0.1581,0.1314,0.1375,0.1595,0.0,0.0,0.0,0.0,0.0,0.0,0.0,0.1414,0.1379,0.1851,0.1939,0.1937,0.2055,0.2342,0.2523,0.2179,0.2143,0.2229,0.0,0.0,0.0,0.3018,0.3202,0.348,0.4076,0.398,0.3702,0.3448,0.3485,0.3607,0.3619,0.3805,0.4014,0.3972,0.4216,0.4372,0.4247,0.4228,0.4074,0.3826,0.3865,0.4058,0.436,0.4741,0.5078,0.5396,0.5737,0.5756,0.5428,0.5428,0.5491,0.5617,0.5488,0.562,0.6071,0.6161,0.5744,0.4918,0.5236,0.5365,0.5336,0.5876,0.6113,0.6113,0.6413,0.6832,0.7389,0.7553,0.7456,0.7289,0.7306,0.73,0.7289,0.0,0.0,0.0,0.0,0.0,0.0,0.0,0.0,0.0,0.0,0.0,0.0,0.0,0.0,0.0,0.0,0.0,0.0,0.6573,0.5683,0.6648,1.0152,1.0239,1.0154,1.0033,1.0435,0.9503,0.7193,0.5716,0.4422,0.3356,0.3294,0.3029,0.2634,0.2553,0.2461,0.2396,0.2223,0.2058,0.1961,0.2118,0.212,0.2042,0.0,0.0,0.0,0.0,0.0,0.0,0.0,0.0,0.0,0.1827,0.1912,0.1994,0.207,0.2127,0.2168,0.2175,0.2439,0.0,0.2495,0.0,0.0,0.0,0.3774,0.0,0.0,0.4399,0.4191,0.3735,0.3663,0.3542,0.3466,0.3704,0.3886,0.3984,0.4142,0.4305,0.4357,0.4578,0.4648,0.4366,0.4819,0.5047,0.4882,0.5142,0.5298,0.5429,0.547,0.5425,0.5223,0.5156,0.5289,0.5491,0.5452,0.5585,0.5958,0.61,0.6121,0.5988,0.5805,0.5814,0.586,0.5787,0.5953,0.6346,0.6738,0.6981,0.7088,0.7296,0.7415,0.7515,0.7889,0.8049,0.8072,0.0,0.0,0.0,0.0,0.0,0.0,0.0,0.0,0.0,0.0,0.0,0.0,0.0,0.0,0.0,0.0,0.0,0.0,0.0,0.5343,0.6346,0.9136,0.9875,1.0363,1.0712,0.9589,0.8611,0.7825,0.581,0.4254,0.3174,0.3365,0.3308,0.3026,0.3224,0.3105,0.2798,0.2772,0.2596,0.2369,0.2658,0.2676,0.2568,0.0,0.0,0.0,0.0,0.0,0.0,0.0,0.0,0.0,0.1972,0.2068,0.219,0.2266,0.2431,0.2549,0.2378,0.2673,0.0,0.2776,0.3168,0.3687,0.3994,0.0,0.0,0.4583,0.4474,0.4229,0.4012,0.3968,0.3913,0.3855,0.4032,0.414,0.4197,0.4257,0.427,0.4177,0.452,0.4649,0.4304,0.4789,0.5113,0.502,0.5157,0.531,0.5503,0.5564,0.5531,0.5394,0.5391,0.562,0.602,0.5728,0.5994,0.6749,0.6546,0.6646,0.6947,0.6361,0.6085,0.6014,0.606,0.6381,0.6869,0.7139,0.7306,0.7413,0.7408,0.7515,0.7681,0.7943,0.814,0.8281,0.0,0.0,0.0,0.0,0.0,0.0,0.0,0.0,0.0,0.0,0.0,0.0,0.0,0.0,0.0,0.0,0.0,0.0,0.0,0.5823,0.6053,0.7633,0.9284,1.0679,1.1724,0.9526,0.8654,0.9278,0.6924,0.4824,0.2983,0.3689,0.3828,0.356,0.4321,0.4202,0.3446,0.3491,0.3207,0.2692,0.289,0.3007,0.3012,0.2913,0.0,0.0,0.0,0.0,0.0,0.0,0.0,0.0,0.2156,0.2339,0.2407,0.2526,0.2988,0.3321,0.2689,0.2876,0.3194,0.3118,0.3261,0.0,0.4343,0.4327,0.4267,0.4467,0.4281,0.4128,0.4223,0.4411,0.4519,0.4519,0.4632,0.4688,0.4574,0.4574,0.4412,0.3956,0.4283,0.4368,0.3903,0.4307,0.4697,0.4912,0.4998,0.5207,0.5574,0.5786,0.5876,0.5809,0.5834,0.6175,0.6828,0.6209,0.6586,0.7857,0.7225,0.7194,0.7588,0.6759,0.6248,0.59,0.6657,0.7198,0.7521,0.7574,0.7788,0.8115,0.7735,0.7717,0.7919,0.7723,0.7872,0.8143,0.0,0.0,0.0,0.0,0.0,0.0,0.0,0.0,0.0,0.0,0.0,0.0,0.0,0.0,0.0,0.0,0.0,0.0,0.0,0.652,0.7312,0.7684,0.9157,1.0391,1.131,0.92,0.8151,0.8309,0.6065,0.4699,0.4206,0.4114,0.3946,0.3765,0.4254,0.4169,0.3605,0.3213,0.2831,0.2476,0.2679,0.265,0.247,0.2561,0.2556,0.0,0.0,0.0,0.0,0.0,0.0,0.0,0.2117,0.222,0.2331,0.2348,0.268,0.2995,0.2798,0.3086,0.0,0.3159,0.3467,0.3887,0.4326,0.4418,0.4462,0.4467,0.4632,0.4711,0.4491,0.4577,0.4632,0.4519,0.4632,0.4743,0.4791,0.4901,0.4889,0.4685,0.4998,0.4982,0.4429,0.4865,0.5173,0.5042,0.5299,0.5574,0.5759,0.5673,0.5693,0.5819,0.5613,0.5751,0.624,0.6022,0.6267,0.6918,0.7235,0.7179,0.6779,0.674,0.6636,0.6485,0.7343,0.7616,0.7521,0.7996,0.8109,0.8008,0.8262,0.8228,0.8165,0.8899,0.8957,0.8734,0.0,0.0,0.0,0.0,0.0,0.0,0.0,0.0,0.0,0.0,0.0,0.0,0.0,0.0,0.0,0.0,0.0,0.0,0.0,0.0,0.6811,0.7625,0.9129,1.016,1.0627,0.9528,0.8949,0.892,0.6586,0.521,0.4743,0.4967,0.4788,0.4312,0.4748,0.4609,0.4012,0.3487,0.3041,0.2646,0.287,0.2856,0.273,0.2817,0.2779,0.265,0.2435,0.0,0.0,0.0,0.0,0.0,0.0,0.0,0.2266,0.2331,0.2568,0.2803,0.2796,0.0,0.0,0.3782,0.0,0.4166,0.4471,0.4566,0.4506,0.4439,0.4601,0.4816,0.4878,0.4908,0.4908,0.5014,0.5018,0.5022,0.5069,0.5069,0.5069,0.4901,0.515,0.5173,0.4743,0.5251,0.5541,0.5331,0.5522,0.5655,0.5748,0.557,0.557,0.5744,0.5534,0.5735,0.6357,0.5977,0.6155,0.6962,0.6919,0.6932,0.7041,0.6875,0.6759,0.6864,0.7605,0.7824,0.7723,0.8256,0.8421,0.8328,0.8527,0.8346,0.8125,0.8923,0.8917,0.8532,0.0,0.0,0.0,0.0,0.0,0.0,0.0,0.0,0.0,0.0,0.0,0.0,0.0,0.0,0.0,0.0,0.0,0.0,0.0,0.0,0.0,0.7504,0.8841,0.9563,0.9581,0.9551,0.9519,0.9527,0.7408,0.6023,0.5386,0.6094,0.6015,0.5326,0.6157,0.5972,0.5061,0.4583,0.3904,0.3175,0.3257,0.319,0.2992,0.2949,0.2915,0.2856,0.2526,0.2429,0.2459,0.2448,0.0,0.0,0.0,0.0,0.2311,0.2491,0.2601,0.2708,0.2816,0.0,0.3757,0.4317,0.4375,0.0,0.4588,0.4621,0.4504,0.4403,0.4534,0.4792,0.5213,0.5249,0.5307,0.5668,0.5513,0.5411,0.5466,0.5324,0.5144,0.5062,0.521,0.5206,0.4952,0.5365,0.5686,0.5624,0.5677,0.5728,0.58,0.5572,0.5572,0.5791,0.5655,0.5863,0.6497,0.5953,0.6164,0.7143,0.6548,0.6789,0.7734,0.7149,0.7079,0.7402,0.7877,0.809,0.8137,0.8567,0.877,0.8829,0.8815,0.8524,0.816,0.8806,0.8797,0.8509,0.0,0.0,0.0,0.0,0.0,0.0,0.0,0.0,0.0,0.0,0.0,0.0,0.0,0.0,0.0,0.0,0.0,0.0,0.5182,0.0,0.0,0.7392,0.7635,0.7798,0.792,0.7751,0.7761,0.7992,0.709,0.6842,0.7253,0.7583,0.7563,0.7321,0.9598,0.9592,0.7824,0.7359,0.6018,0.4162,0.3854,0.3122,0.2208,0.1934,0.2098,0.2435,0.2156,0.2321,0.265,0.2595,0.272,0.0,0.0,0.0,0.2693,0.3002,0.2858,0.2677,0.2983,0.0,0.3809,0.0,0.4092,0.4345,0.0,0.4431,0.4435,0.475,0.4862,0.496,0.5255,0.5375,0.5584,0.6072,0.5896,0.5795,0.6064,0.581,0.5602,0.5492,0.5374,0.5235,0.5113,0.5148,0.5329,0.572,0.5881,0.5977,0.6123,0.6123,0.6173,0.6277,0.6082,0.6055,0.6257,0.5993,0.5953,0.6197,0.6504,0.7105,0.8014,0.7823,0.8031,0.8567,0.8791,0.8844,0.8883,0.9163,0.9154,0.9012,0.9486,0.9338,0.8937,0.9706,0.9892,0.9842,0.0,0.0,0.0,0.0,0.0,0.0,0.0,0.0,0.0,0.0,0.0,0.0,0.0,0.0,0.0,0.5203,0.6185,0.6753,0.6422,0.672,0.7056,0.7378,0.7829,0.7881,0.7498,0.8285,0.8542,0.8209,0.7683,0.8206,0.9708,1.0834,1.0514,0.9088,1.1002,1.1255,1.0131,0.8382,0.6538,0.4733,0.4148,0.3431,0.2653,0.2089,0.2311,0.2826,0.2295,0.2276,0.2497,0.2699,0.2892,0.3083,0.3254,0.0,0.0,0.0,0.2688,0.2469,0.3131,0.3415,0.364,0.0,0.4315,0.44,0.4698,0.4693,0.4633,0.4808,0.4754,0.4861,0.5404,0.5553,0.572,0.6018,0.6059,0.6064,0.6059,0.5986,0.5855,0.5727,0.5712,0.5586,0.5234,0.5458,0.5677,0.5795,0.6009,0.6067,0.6057,0.6259,0.6365,0.6212,0.6246,0.6391,0.6628,0.6525,0.6639,0.6981,0.7092,0.7522,0.8281,0.8312,0.8196,0.8096,0.8639,0.8804,0.8679,0.9211,0.94,0.9475,0.9873,0.9755,0.9383,0.9977,1.0308,1.0502,0.0,0.0,0.0,0.0,0.0,0.0,0.0,0.0,0.0,0.0,0.0,0.0,0.0,0.0,0.0,0.0,0.7298,0.771,0.7185,0.6897,0.6742,0.6734,0.7322,0.7289,0.6535,0.8058,0.8596,0.8046,0.7797,0.8897,1.1305,1.3075,1.3145,1.1876,1.3535,1.3448,1.1921,1.0063,0.8145,0.626,0.5091,0.4183,0.3472,0.2763,0.2886,0.3351,0.2703,0.2593,0.2795,0.3,0.3353,0.3673,0.3598,0.3364,0.0,0.0,0.0,0.2254,0.0,0.0,0.3429,0.4231,0.4274,0.4265,0.4675,0.4663,0.4582,0.4734,0.4642,0.4768,0.5453,0.565,0.5784,0.6091,0.6264,0.6263,0.6093,0.6035,0.5946,0.5841,0.5959,0.5892,0.5513,0.5946,0.6164,0.6064,0.6282,0.6372,0.6206,0.6556,0.6632,0.638,0.6553,0.6804,0.7091,0.7136,0.7416,0.7986,0.7787,0.7929,0.8468,0.8554,0.83,0.7834,0.858,0.8851,0.8813,0.9322,0.9668,0.9974,1.0239,1.0141,0.9834,1.0414,1.0854,1.1194,0.0,0.0,0.0,0.0,0.0,0.0,0.0,0.0,0.0,0.0,0.0,0.0,0.5001,0.7889,0.9832,0.9834,0.79,0.655,0.6186,0.5399,0.4927,0.4933,0.4967,0.0,0.4099,0.5527,0.6371,0.6514,0.6679,0.8282,1.1249,1.2866,1.4629,1.6545,1.8925,1.739,1.3057,1.3632,1.23,0.9634,0.7243,0.5575,0.4456,0.3777,0.3632,0.3738,0.3366,0.3574,0.3965,0.3659,0.4328,0.5175,0.4537,0.4285,0.41,0.0,0.0,0.0,0.0,0.2626,0.0,0.3309,0.3569,0.3821,0.4167,0.4005,0.3934,0.456,0.4683,0.481,0.524,0.5438,0.5721,0.6466,0.6634,0.6577,0.6317,0.6081,0.5948,0.5982,0.6039,0.6049,0.5982,0.648,0.6804,0.6647,0.6923,0.7025,0.7015,0.7067,0.7093,0.7132,0.7138,0.72,0.7302,0.7678,0.8159,0.8749,0.8363,0.8313,0.8613,0.8592,0.86,0.8636,0.9069,0.9427,0.9722,0.9823,1.0046,1.0334,1.0658,1.0558,1.0397,1.1434,1.1941,1.2192,0.0,0.0,0.0,0.0,0.0,0.0,0.0,0.0,0.0,0.0,0.0,0.0,0.0,0.7749,0.9638,0.9717,0.8278,0.7659,0.8372,0.7039,0.625,0.6343,0.5891,0.5505,0.526,0.6818,0.7666,0.7744,0.8385,0.9734,1.1757,1.3352,1.4154,1.435,1.7391,1.7718,1.5846,1.3554,1.1836,1.0444,0.8529,0.7879,0.8001,0.733,0.7095,0.7062,0.6367,0.5456,0.4614,0.501,0.4922,0.4776,0.5666,0.4831,0.3392,0.2671,0.0,0.0,0.0,0.0,0.0,0.3048,0.3583,0.4072,0.424,0.444,0.4703,0.5113,0.4994,0.4961,0.5608,0.5809,0.6012,0.6507,0.6746,0.6875,0.6939,0.6844,0.6722,0.6593,0.6849,0.6828,0.6421,0.6756,0.6961,0.6754,0.6993,0.7103,0.708,0.7351,0.7416,0.7285,0.7495,0.7674,0.7804,0.8584,0.9006,0.8997,0.9437,0.9541,0.9392,0.9787,0.97,0.9259,0.9773,0.9911,0.974,0.993,1.0197,1.0452,1.0855,1.1095,1.1236,1.1454,1.202,1.2672,0.0,0.0,0.0,0.0,0.0,0.0,0.0,0.0,0.0,0.7439,0.0,0.0,0.0,0.0,0.9517,0.9403,0.8444,0.8221,0.9173,0.7599,0.6688,0.6787,0.6065,0.5634,0.5598,0.6981,0.7699,0.7699,0.8822,1.0113,1.1566,1.2902,1.3388,1.319,1.5217,1.6181,1.6141,1.3831,1.2317,1.1333,0.9817,0.9407,0.9705,0.9681,0.9429,0.9043,0.8606,0.7704,0.676,0.6988,0.6901,0.6779,0.7305,0.5618,0.326,0.2368,0.0,0.0,0.2368,0.0,0.0,0.0,0.339,0.3681,0.4161,0.4473,0.4768,0.5117,0.5653,0.6064,0.6096,0.6673,0.7038,0.6541,0.6652,0.684,0.6917,0.7021,0.7014,0.6866,0.7202,0.73,0.6756,0.7187,0.7401,0.7042,0.7286,0.7451,0.7392,0.7611,0.7678,0.7563,0.7813,0.8121,0.8496,0.9067,0.9461,0.963,1.0334,1.0605,1.0535,1.1109,1.1082,1.0567,1.0952,1.0624,0.9831,1.0516,1.0861,1.1012,1.161,1.1822,1.1808,1.1743,1.2253,1.2935,0.0,0.0,0.0,0.0,0.0,0.0,0.0,0.0,0.772,0.9034,0.0,0.0,0.0,0.0,0.0,0.9261,0.8497,0.8108,0.8319,0.6821,0.5965,0.6024,0.5236,0.4823,0.4842,0.5668,0.6122,0.6172,0.7727,0.9216,1.058,1.1395,1.2426,1.3563,1.3004,1.3074,1.3646,1.457,1.4044,1.2481,1.1138,1.0059,0.9406,1.0656,1.0427,0.9529,0.9942,1.0296,1.0447,0.9616,1.0344,1.1266,0.9374,0.6685,0.3992,0.0,0.0,0.0,0.0,0.0,0.0,0.3758,0.3077,0.2715,0.3949,0.4055,0.4019,0.4574,0.6702,0.8018,0.6605,0.8015,0.8684,0.6555,0.643,0.6538,0.6257,0.6537,0.6729,0.6735,0.7203,0.7402,0.6987,0.7842,0.8143,0.7494,0.7835,0.8062,0.8004,0.7888,0.7845,0.7987,0.8118,0.854,0.9263,0.9071,0.9502,1.0673,1.099,1.1417,1.1951,1.2522,1.272,1.2619,1.2623,1.166,1.0208,1.1551,1.2029,1.1971,1.2931,1.2786,1.2088,1.246,1.2724,1.2963,0.0,0.0,0.0,0.0,0.0,0.0,0.9085,0.8572,0.8546,0.0,0.0,0.0,0.9314,1.3254,1.4235,1.0209,1.0475,1.0331,0.9026,0.7498,0.6654,0.6724,0.5543,0.5148,0.5723,0.5973,0.6643,0.7769,0.8155,0.8816,0.9676,1.0478,1.0971,1.1205,1.1696,1.1598,1.106,1.1395,1.196,1.2467,1.0975,1.1551,1.3347,1.3856,1.3777,1.3505,1.4099,1.3417,1.2258,1.24,1.2078,1.1223,0.9058,0.7893,0.0,0.0,0.0,0.0,0.4602,0.0,0.0,0.0,0.0,0.0,0.4941,0.5263,0.5728,0.6423,0.6823,0.715,0.7462,0.7173,0.6759,0.6413,0.6693,0.7003,0.7066,0.7164,0.7327,0.7627,0.8025,0.8307,0.8249,0.8527,0.8605,0.8357,0.8193,0.8165,0.8341,0.8083,0.7953,0.7979,0.8028,0.8281,0.8708,0.9351,0.9727,0.9872,1.1685,1.2455,1.2399,1.4256,1.4429,1.3329,1.4778,1.4088,1.2003,1.2643,1.2373,1.1672,1.3058,1.3285,1.287,1.2778,1.2772,1.2833,0.0,0.0,0.0,0.0,0.0,0.9837,0.8925,0.8778,0.8951,0.0,0.0,0.0,1.0917,1.3631,1.416,1.1151,1.1175,1.0845,0.97,0.8233,0.7396,0.7369,0.6298,0.5904,0.6375,0.6394,0.6857,0.7774,0.8075,0.8397,0.8777,0.9582,0.9847,0.9645,1.0273,1.0157,0.9488,0.9247,0.9862,1.0985,1.1106,1.2195,1.3851,1.495,1.5078,1.4792,1.5768,1.5236,1.4144,1.4624,1.415,1.2972,1.0766,0.9793,0.9033,0.6811,0.6486,0.0,0.0,0.0,0.0,0.6166,0.0,0.0,0.5968,0.6311,0.6662,0.7126,0.7809,0.8409,0.8673,0.8645,0.8524,0.8248,0.8674,0.8916,0.8454,0.8576,0.87,0.8704,0.9044,0.8852,0.781,0.786,0.7941,0.7798,0.7592,0.7947,0.905,0.8517,0.8537,0.9307,0.8807,0.8561,0.8683,0.9896,1.0577,1.0701,1.2836,1.3858,1.3936,1.5802,1.6024,1.498,1.6091,1.543,1.3565,1.3939,1.34,1.2503,1.3615,1.3708,1.3213,1.301,1.2804,1.2662,0.0,0.0,0.9475,0.9403,1.0273,1.0524,0.9242,0.9109,0.9151,0.0,0.9062,1.0119,1.3009,1.239,1.1859,1.2075,1.1257,1.0604,1.0294,0.898,0.8119,0.7891,0.7191,0.6793,0.6807,0.672,0.6752,0.6887,0.7504,0.7813,0.7856,0.8571,0.8785,0.8544,0.8746,0.0,0.851,0.7948,0.8093,0.8909,1.109,1.2024,1.2355,1.4491,1.4886,1.4441,1.5793,1.6086,1.59,1.6327,1.6219,1.5571,1.3554,1.2091,1.0694,0.8361,0.8329,0.0,0.0,0.0,0.0,0.7349,0.6655,0.0,0.7008,0.7215,0.725,0.7312,0.9101,1.0453,0.9787,1.0874,1.1521,1.0542,1.1012,1.114,1.0122,1.0209,1.0247,0.985,1.0058,0.9327,0.6994,0.7283,0.7544,0.7376,0.7342,0.8127,0.9908,0.9247,0.9612,1.1355,1.0244,0.956,0.9486,1.0833,1.1817,1.2488,1.4147,1.5264,1.5902,1.7165,1.744,1.6929,1.698,1.6143,1.4784,1.5187,1.472,1.3778,1.4317,1.4049,1.3353,1.3151,1.2838,1.2579,0.0,0.0,0.942,0.9394,0.9466,1.0159,1.2132,1.1168,0.9827,0.8776,1.0724,1.2335,1.2727,1.3526,1.3669,1.2745,1.2739,1.2207,1.0781,0.9572,0.8583,0.7841,0.7166,0.6793,0.6807,0.6219,0.6181,0.6736,0.625,0.6274,0.6788,0.701,0.7059,0.695,0.7041,0.7068,0.7067,0.7566,0.8168,0.8816,0.9134,1.0472,1.2365,1.3192,1.3988,1.4808,1.5798,1.6404,1.6812,1.7331,1.7134,1.6392,1.4744,1.4121,1.3552,1.1323,1.1165,1.1546,1.0637,1.0527,1.0504,0.9806,0.9462,0.0,0.7983,0.8237,0.8696,0.8702,0.8925,0.9216,0.9486,0.8941,0.8417,0.8297,0.9092,1.0031,1.0962,1.0322,0.9935,1.0354,1.0498,1.0478,1.0312,1.1638,1.2614,1.2847,1.2207,1.1334,1.0211,1.0925,1.1794,1.2715,1.2415,1.235,1.2534,1.3035,1.3333,1.3437,1.4697,1.5612,1.6263,1.7956,1.8111,1.7133,1.834,1.7432,1.513,1.5541,1.4722,1.3346,1.4412,1.4406,1.3695,1.3151,1.2896,1.2826,0.0,0.9057,0.9138,0.9618,0.9894,1.0664,1.2521,1.2141,1.1379,1.0607,1.2329,1.335,1.2574,1.3428,1.3706,1.2821,1.2618,1.2041,1.0828,0.9782,0.8736,0.7683,0.7228,0.6876,0.6614,0.6235,0.6227,0.6605,0.607,0.6043,0.6498,0.6394,0.6471,0.67,0.6731,0.6815,0.6957,0.7158,0.7684,0.8438,0.9343,1.0867,1.2656,1.3083,1.3811,1.4713,1.5509,1.6119,1.6581,1.6677,1.6469,1.6087,1.5411,1.4949,1.435,1.2841,1.241,1.2238,1.1537,1.1399,1.1338,1.0822,1.0553,0.0,0.0,0.9131,0.9345,0.9729,0.9346,0.9297,1.0449,0.971,0.9096,0.9529,1.0722,1.1699,1.1953,1.1916,1.1829,1.1793,1.127,1.0496,0.9448,1.0567,1.1874,1.3101,1.3052,1.2718,1.2168,1.2274,1.2835,1.3875,1.3255,1.3067,1.3407,1.4337,1.476,1.4707,1.58,1.6412,1.6674,1.7662,1.7751,1.7149,1.7653,1.7039,1.5564,1.5248,1.4486,1.3646,1.4546,1.4498,1.3921,1.3835,1.3585,1.3285,0.9001,0.0,0.8874,0.9566,1.0351,1.1176,1.2,1.2287,1.2356,1.2246,1.3374,1.3752,1.267,1.3173,1.3467,1.3207,1.2434,1.1749,1.1202,1.0065,0.8977,0.8003,0.756,0.7163,0.6811,0.6628,0.6455,0.6288,0.6046,0.5947,0.5982,0.5801,0.5961,0.6435,0.6359,0.6625,0.7085,0.6656,0.7177,0.8435,0.9937,1.1205,1.2277,1.274,1.3283,1.3907,1.4696,1.5191,1.5443,1.5312,1.5213,1.5201,1.532,1.4946,1.4295,1.348,1.2957,1.2482,1.177,1.1815,1.1902,1.1284,1.114,1.0931,0.0,0.0,0.0,1.0143,0.9688,0.969,1.1234,1.0727,1.0364,1.1117,1.249,1.3123,1.2189,1.3097,1.3556,1.2715,1.1877,1.0548,0.848,0.9361,1.0718,1.2368,1.285,1.3441,1.4311,1.3655,1.3902,1.536,1.4355,1.393,1.4259,1.5523,1.6092,1.6008,1.6738,1.7066,1.7075,1.7086,1.7029,1.694,1.6388,1.5952,1.5556,1.4528,1.398,1.3841,1.4546,1.4473,1.4033,1.4443,1.4175,1.3576,0.8992,0.893,0.0,0.8524,0.9631,1.0855,1.1701,1.1333,1.1034,1.1318,1.2909,1.3794,1.318,1.3797,1.446,1.4875,1.3706,1.291,1.2833,1.0951,0.9781,0.9625,0.847,0.7959,0.825,0.7438,0.6527,0.5531,0.5384,0.4898,0.4114,0.4263,0.4482,0.4753,0.4399,0.5053,0.638,0.5867,0.7234,0.9727,0.9369,0.9439,0.9875,1.0515,1.1124,1.1786,1.2773,1.3145,1.3274,1.3824,1.4004,1.3968,1.3797,1.3972,1.4082,1.3348,1.3457,1.374,1.3409,1.3848,1.3882,1.1716,1.2131,1.24,0.9807,0.0,0.9955,0.9454,0.0,0.9482,1.038,0.0,0.0,1.0204,1.101,1.1182,1.0242,1.1789,1.2584,1.1366,1.1639,1.1809,1.1501,1.334,1.4466,1.4234,1.4099,1.4419,1.5295,1.5471,1.6253,1.7842,1.7521,1.7344,1.7394,1.7391,1.7313,1.7104,1.675,1.6844,1.7349,1.6879,1.656,1.6358,1.5656,1.4902,1.4178,1.3391,1.3035,1.3104,1.4093,1.4224,1.3941,1.4184,1.3795,1.3163,0.8869,0.8801,0.0,0.8501,0.877,0.9585,1.1363,1.1681,1.1659,1.1415,1.2299,1.3006,1.3124,1.3972,1.4235,1.3525,1.285,1.2331,1.2005,1.0363,0.919,0.8753,0.7493,0.6779,0.6748,0.6489,0.5802,0.4706,0.4761,0.4479,0.3862,0.4066,0.4365,0.4744,0.4921,0.5541,0.6437,0.5778,0.6344,0.7619,0.6955,0.7081,0.7856,0.9793,1.0776,1.1259,1.1789,1.1899,1.1777,1.1766,1.1913,1.2149,1.2591,1.269,1.2704,1.3004,1.2979,1.284,1.2904,1.3108,1.2992,1.1562,1.171,1.181,1.0172,0.9855,0.9967,1.0198,0.0,0.0,0.0,0.0,0.0,0.0,1.0069,0.9984,0.8691,1.0012,1.114,1.1221,1.0376,1.0153,1.1097,1.1957,1.3319,1.5384,1.4661,1.4423,1.5053,1.5255,1.5713,1.6437,1.637,1.6636,1.7305,1.7167,1.7027,1.6885,1.6385,1.6253,1.6388,1.5891,1.554,1.5244,1.4763,1.4266,1.3735,1.3263,1.2675,1.2145,1.2721,1.3265,1.3775,1.3999,1.3745,1.3302,0.8468,0.0,0.0,0.9098,0.8562,0.8816,1.1053,1.1918,1.2092,1.1497,1.2007,1.2408,1.2362,1.3734,1.4078,1.2645,1.2432,1.2157,1.1578,0.9966,0.8867,0.8586,0.7303,0.6426,0.6076,0.6265,0.571,0.4425,0.4731,0.4513,0.3795,0.4023,0.4218,0.4433,0.498,0.5624,0.6277,0.5838,0.6075,0.6652,0.5933,0.6105,0.7003,0.9213,1.0174,1.0351,1.0675,1.0648,1.0397,1.0008,1.0006,1.0358,1.1078,1.1,1.0837,1.1974,1.1963,1.164,1.1881,1.2221,1.2173,1.0803,1.0835,1.091,0.9714,0.9511,0.9742,1.0376,0.9902,0.0,0.0,0.0,0.9496,0.9438,0.0,0.9465,0.7827,0.8447,0.9323,0.9959,0.902,0.8916,1.0377,1.0401,1.1724,1.5065,1.3908,1.3567,1.4742,1.4619,1.471,1.5184,1.5341,1.5772,1.6543,1.6564,1.6512,1.6363,1.5907,1.5565,1.5375,1.4984,1.4564,1.4168,1.3921,1.3669,1.3344,1.2906,1.2151,1.1217,1.1328,1.1759,1.2497,1.3229,1.3358,1.3128,0.7635,0.7797,0.0,1.0405,0.9495,0.908,1.084,1.152,1.167,1.1259,1.2234,1.235,1.0675,1.3058,1.4362,1.3348,1.3305,1.3116,1.2499,1.029,0.9392,1.0272,0.892,0.7934,0.754,0.7674,0.6832,0.4975,0.5573,0.5048,0.3518,0.3788,0.3642,0.3178,0.3584,0.4428,0.5549,0.593,0.7025,0.8453,0.7657,0.7454,0.7729,0.8401,0.8524,0.8378,0.9042,0.919,0.9042,0.8821,0.8755,0.8799,0.9023,0.8781,0.8645,0.9918,1.0416,1.0583,1.0722,1.1822,1.2271,0.9331,0.9672,1.0128,0.7821,0.8289,0.9231,0.9248,0.9937,1.0815,1.1695,1.1296,1.0707,0.0,1.0334,0.0,0.0,0.7416,0.7101,0.6619,0.7812,0.9106,1.0192,1.0255,1.093,1.2674,1.1328,1.1703,1.4639,1.382,1.3937,1.5438,1.5803,1.5861,1.5655,1.6103,1.612,1.571,1.533,1.4907,1.4533,1.4369,1.3967,1.334,1.3182,1.3035,1.2768,1.192,1.1148,1.0502,1.0113,0.9697,0.9576,1.1479,1.2289,1.2425,0.0,0.0,0.0,0.808,0.768,0.7741,0.9225,1.0135,1.0664,1.0667,1.1047,1.1255,1.1221,1.2075,1.2717,1.2845,1.2834,1.2548,1.1943,1.0263,0.9311,0.9414,0.7569,0.6555,0.6526,0.577,0.4747,0.3541,0.3657,0.3256,0.2388,0.2968,0.3139,0.3001,0.3801,0.4499,0.5037,0.505,0.5533,0.6225,0.5694,0.5612,0.5998,0.7499,0.7754,0.7425,0.8011,0.7772,0.722,0.7229,0.7357,0.7502,0.7396,0.7223,0.7287,0.815,0.8328,0.8439,0.9339,1.0015,1.0248,0.9329,0.9376,0.9334,0.8192,0.8374,0.8852,0.9039,0.9628,1.0296,1.0816,1.072,0.0,0.0,0.0,0.8696,0.0,0.5814,0.5291,0.5868,0.734,0.8214,0.7996,0.8686,0.9635,1.083,0.9905,1.0099,1.192,1.1923,1.2221,1.2974,1.3915,1.4561,1.4864,1.5505,1.5652,1.53,1.5134,1.4766,1.4319,1.4138,1.3728,1.3151,1.3035,1.2743,1.2389,1.2029,1.0916,0.9436,0.9239,0.866,0.8192,1.0163,1.0871,1.0895,0.6354,0.6213,0.6301,0.7012,0.7126,0.7255,0.7621,0.8362,0.9003,0.9387,0.9385,0.9334,0.9312,0.9989,1.0452,1.0474,1.1276,1.1414,1.0665,0.9591,0.8819,0.8468,0.7123,0.6178,0.5773,0.4862,0.3904,0.2944,0.2681,0.2346,0.1944,0.2414,0.2444,0.2165,0.3128,0.3713,0.4019,0.4387,0.4722,0.4955,0.4568,0.4471,0.463,0.5785,0.6188,0.6165,0.6783,0.642,0.5674,0.6012,0.603,0.5921,0.5963,0.5776,0.5735,0.659,0.6771,0.6919,0.7733,0.8476,0.8885,0.8335,0.856,0.8684,0.7724,0.798,0.8483,0.8645,0.9157,0.9758,1.0372,1.0325,0.9998,0.0,0.0,0.0,0.0,0.4842,0.4522,0.4976,0.6405,0.7261,0.6995,0.7614,0.8387,0.9226,0.8562,0.8726,1.0074,1.0418,1.0769,1.1209,1.2447,1.3292,1.3712,1.4501,1.4786,1.4564,1.4564,1.4246,1.3749,1.3762,1.3425,1.2733,1.2838,1.2508,1.1945,1.1811,1.0737,0.9116,0.8774,0.8219,0.772,0.9125,0.9965,1.0483,0.5435,0.5233,0.5494,0.7012,0.7618,0.7421,0.6084,0.6257,0.6768,0.7457,0.7375,0.6725,0.5353,0.6937,0.7676,0.663,0.8767,0.976,0.8716,0.8276,0.7926,0.7579,0.7432,0.6704,0.5212,0.4859,0.4159,0.307,0.2612,0.2285,0.2083,0.2061,0.1577,0.0741,0.1609,0.2166,0.2539,0.3954,0.4634,0.4763,0.4384,0.4024,0.3736,0.3424,0.3756,0.4534,0.538,0.5076,0.4395,0.5036,0.4739,0.4152,0.4704,0.4404,0.4062,0.5157,0.5717,0.5979,0.6018,0.7271,0.8132,0.645,0.7241,0.8027,0.6425,0.7053,0.7983,0.8023,0.8534,0.9302,1.0335,1.0175,0.9523,0.0,0.0,0.0,0.429,0.4559,0.4729,0.4002,0.5182,0.6342,0.707,0.7081,0.7289,0.7847,0.7348,0.7662,0.9122,0.9304,0.9662,1.0267,1.147,1.216,1.2246,1.3144,1.3577,1.3576,1.3689,1.3446,1.2965,1.3378,1.3057,1.215,1.2544,1.2234,1.1446,1.1282,1.0541,0.9485,0.8742,0.8298,0.8088,0.8419,0.9587,1.1107,0.5088,0.4507,0.3681,0.2907,0.3915,0.471,0.4419,0.4865,0.53,0.5395,0.5166,0.5022,0.4965,0.5413,0.5702,0.5647,0.6722,0.7111,0.634,0.6305,0.6145,0.5653,0.4763,0.4082,0.3743,0.2533,0.1695,0.1272,0.0802,0.057,0.0572,0.1206,0.122,0.0737,0.155,0.1807,0.1698,0.311,0.407,0.4562,0.3522,0.3104,0.3046,0.2336,0.1943,0.1954,0.3355,0.3465,0.2977,0.3352,0.3525,0.3564,0.3399,0.3166,0.3043,0.3572,0.3828,0.4111,0.4853,0.5715,0.6411,0.6435,0.6328,0.6109,0.5684,0.5898,0.6309,0.6792,0.7858,0.8887,0.9527,0.9616,0.9288,0.8369,0.7166,0.5964,0.4879,0.4835,0.509,0.5537,0.64,0.6407,0.4977,0.6519,0.7262,0.6427,0.7713,0.8346,0.7915,0.8617,0.8873,0.8564,1.0248,1.1186,1.1191,1.2736,1.3449,1.3293,1.3773,1.3888,1.3641,1.322,1.2861,1.2579,1.2138,1.1478,1.0787,1.1068,1.0319,0.9037,0.934,0.9211,0.8876,0.8922,0.9628,1.0693,0.4814,0.3508,0.192,0.0825,0.1036,0.1514,0.1892,0.2743,0.3224,0.302,0.2861,0.2797,0.2829,0.299,0.3132,0.3265,0.4161,0.4442,0.3889,0.4447,0.4522,0.3967,0.3581,0.3161,0.2743,0.171,0.0937,0.0414,0.0076,0.0198,0.0788,0.0755,0.0852,0.1101,0.1263,0.1049,0.0623,0.1677,0.2712,0.3558,0.25,0.2082,0.0,0.1385,0.083,0.0583,0.1854,0.2081,0.1913,0.2685,0.292,0.2914,0.2859,0.2729,0.2632,0.2871,0.3095,0.3437,0.4046,0.4899,0.5684,0.6078,0.6054,0.5959,0.589,0.5854,0.5969,0.647,0.7205,0.7944,0.8599,0.8578,0.8186,0.7337,0.6321,0.5517,0.5183,0.5125,0.5281,0.5753,0.6128,0.5672,0.3982,0.5791,0.6653,0.5691,0.6553,0.7142,0.7142,0.8059,0.8472,0.8214,0.9466,1.0223,1.044,1.1627,1.2277,1.2411,1.296,1.2985,1.2596,1.2612,1.2236,1.1591,1.1589,1.1131,1.0368,1.0876,1.0419,0.9343,0.9777,0.9619,0.918,0.9328,0.9878,1.0664,0.3959,0.2134,0.0368,0.0068,-0.0889,-0.1353,-0.0628,0.0377,0.0946,0.0656,0.0531,0.0336,-0.0042,0.0179,0.0367,0.035,0.1351,0.1869,0.152,0.2467,0.2916,0.2527,0.2985,0.2885,0.2047,0.1716,0.1116,0.0202,0.0084,0.0573,0.1573,0.0635,0.0641,0.142,0.0888,0.0335,-0.0164,0.0323,0.1231,0.2292,0.1544,0.118,0.1004,0.0632,0.0258,0.0031,0.085,0.1097,0.1289,0.2643,0.2822,0.2554,0.2937,0.292,0.2768,0.2823,0.3116,0.3473,0.3614,0.4516,0.5416,0.5431,0.5952,0.642,0.625,0.6158,0.6192,0.6502,0.6616,0.6915,0.7723,0.7442,0.6823,0.605,0.5652,0.5427,0.5428,0.5477,0.5532,0.5578,0.55,0.0,0.4122,0.5239,0.5794,0.532,0.501,0.537,0.6629,0.7528,0.8089,0.8236,0.8789,0.9282,0.9707,1.0171,1.0665,1.1146,1.1698,1.1615,1.1023,1.1907,1.1575,1.0395,1.1136,1.0977,1.0186,1.0723,1.0611,1.0137,1.0157,0.982,0.9394,0.9761,1.0235,1.076,0.066,-0.022,-0.0613,-0.0083,-0.0905,-0.1531,-0.1257,-0.0942,-0.0781,-0.0894,-0.1387,-0.1743,-0.1685,-0.1841,-0.1837,-0.1614,-0.0998,-0.0666,-0.0752,-0.0082,0.063,0.1332,0.1176,0.1251,0.17,0.1482,0.0935,0.0101,0.0587,0.0701,0.0497,0.0998,0.1006,0.0616,0.0,0.0931,0.0896,0.0669,0.1157,0.1998,0.1255,0.0926,0.0836,0.0605,0.0342,0.0183,0.0579,0.1058,0.1661,0.2805,0.3255,0.3446,0.3856,0.3759,0.352,0.3528,0.359,0.3679,0.3811,0.4137,0.4476,0.458,0.487,0.503,0.4688,0.514,0.5679,0.5848,0.6427,0.7007,0.7207,0.7079,0.6737,0.6158,0.6103,0.6118,0.6116,0.6138,0.6377,0.7041,0.7178,0.6994,0.6381,0.5842,0.5284,0.4702,0.5542,0.6072,0.605,0.668,0.6816,0.6297,0.7395,0.8038,0.8178,0.9036,0.9569,0.9852,1.071,1.1251,1.1464,1.1599,1.1875,1.2165,1.1212,1.0698,1.0498,1.0525,1.0649,1.0791,1.0572,1.0532,1.0575,1.0542,1.0601,1.072,0.232,0.0793,-0.018,0.0959,0.0077,-0.0505,0.0349,-0.0555,-0.145,-0.1804,-0.2011,-0.2088,-0.1915,-0.224,-0.2423,-0.2177,-0.2082,-0.2011,-0.2039,-0.1315,-0.0725,-0.0322,0.0295,0.0693,0.0866,0.129,0.1165,0.0455,0.0792,0.1051,0.1228,0.0912,0.0935,0.1212,0.0,0.0786,0.1129,0.0654,0.0835,0.1374,0.0934,0.0702,0.0637,0.0521,0.0516,0.0642,0.1182,0.1594,0.1979,0.2698,0.3151,0.3437,0.3747,0.3766,0.3637,0.3411,0.3509,0.3726,0.3829,0.4031,0.4306,0.4726,0.4788,0.4795,0.4982,0.5392,0.5769,0.6006,0.6618,0.7106,0.7148,0.7307,0.7239,0.6711,0.6859,0.6958,0.6745,0.6739,0.6781,0.6815,0.6892,0.6482,0.5359,0.5061,0.4903,0.4816,0.5082,0.5424,0.5783,0.6311,0.6742,0.7083,0.7468,0.785,0.8273,0.8624,0.9025,0.9499,1.0216,1.0677,1.0955,1.1431,1.1556,1.1369,1.0962,1.0678,1.0483,1.0147,1.0235,1.0534,1.0351,1.04,1.0582,1.0505,1.0572,1.0681,0.3538,0.1669,0.0262,0.1502,0.0777,0.038,0.1539,0.0138,-0.1391,-0.2167,-0.2072,-0.1891,-0.1744,-0.2064,-0.2257,-0.2167,-0.2386,-0.2552,-0.2553,-0.1812,-0.1384,-0.1343,-0.0166,0.051,0.0467,0.1234,0.1377,0.087,0.1116,0.1442,0.1808,0.0851,0.0841,0.1579,0.0588,0.0453,0.0954,0.0496,0.0537,0.088,0.0691,0.0614,0.0571,0.0504,0.0706,0.1043,0.1607,0.1971,0.2186,0.2527,0.292,0.3306,0.3684,0.3781,0.3715,0.3341,0.3483,0.3788,0.39,0.4092,0.4385,0.5009,0.4989,0.4977,0.5498,0.5828,0.6098,0.6291,0.6807,0.7223,0.7175,0.7513,0.7623,0.7061,0.7368,0.7528,0.7172,0.7231,0.7149,0.6682,0.6488,0.5907,0.4595,0.4685,0.5008,0.5379,0.4633,0.4547,0.5432,0.5921,0.659,0.7542,0.7488,0.766,0.8155,0.8138,0.8481,0.92,0.9656,1.0051,1.0333,1.1224,1.1224,1.0494,1.0723,1.0611,1.0235,0.9902,0.9941,1.0127,1.001,1.0166,1.039,1.0361,1.039,1.0594,-0.0045,-0.0399,-0.0461,0.0107,0.008,0.0044,0.0179,0.0,-0.0517,-0.1621,-0.1726,-0.173,-0.1772,-0.1739,-0.176,-0.2013,-0.2055,-0.206,-0.2084,-0.1631,-0.1123,-0.0538,-0.026,0.0311,0.1286,0.1378,0.1338,0.1161,0.1966,0.1771,0.068,0.1143,0.1002,0.0354,0.0116,0.0207,0.0555,0.0383,0.0534,0.0901,0.0734,0.0737,0.0739,0.0571,0.0773,0.1145,0.0976,0.1507,0.2302,0.2482,0.2907,0.3533,0.4474,0.4448,0.4066,0.4013,0.3986,0.4046,0.4363,0.4412,0.4476,0.4915,0.5168,0.5262,0.5036,0.5789,0.6474,0.6191,0.6786,0.7338,0.7139,0.7327,0.7327,0.6661,0.7087,0.7431,0.7233,0.7509,0.782,0.7981,0.7469,0.7068,0.6972,0.6355,0.6083,0.6438,0.4951,0.4246,0.4775,0.518,0.5348,0.5215,0.6294,0.6738,0.6449,0.6961,0.7522,0.8134,0.867,0.9422,1.0337,1.0835,1.1212,1.1439,1.0857,1.0312,0.9862,1.001,1.0166,1.0244,1.0,1.0225,1.0639,1.0457,1.0351,1.0322,-0.1011,-0.0679,-0.0203,-0.0048,-0.0298,-0.0413,-0.0052,0.0,-0.0215,-0.0855,-0.1366,-0.1611,-0.1344,-0.1614,-0.1808,-0.1729,-0.1891,-0.2033,-0.2042,-0.1895,-0.1675,-0.1382,-0.1023,-0.0516,0.0258,0.075,0.1078,0.1309,0.1537,0.1423,0.0929,0.0854,0.0581,0.0148,0.0079,0.0112,0.0207,0.0234,0.037,0.0603,0.055,0.0813,0.1208,0.1141,0.1473,0.1978,0.1842,0.2042,0.2371,0.2768,0.3064,0.3392,0.3946,0.3946,0.3723,0.3593,0.3538,0.3588,0.3894,0.3955,0.3998,0.4375,0.4628,0.4788,0.4692,0.5156,0.5681,0.5782,0.6504,0.7109,0.7091,0.7444,0.7617,0.7264,0.7817,0.8187,0.7907,0.81,0.8197,0.7933,0.746,0.6956,0.6498,0.6107,0.5752,0.5536,0.5349,0.5423,0.5814,0.5734,0.579,0.6085,0.6515,0.6744,0.6742,0.7017,0.7648,0.8598,0.8839,0.9627,1.0793,1.1121,1.1207,1.1019,1.0562,1.0196,0.9902,0.9655,0.9734,0.9999,1.0003,1.0249,1.0564,1.0452,1.0371,1.0243,-0.0941,-0.0472,-0.0056,-0.0224,-0.0617,-0.0729,-0.0336,-0.028,-0.0331,-0.0524,-0.1053,-0.13,-0.1074,-0.1345,-0.1551,-0.1459,-0.1671,-0.1876,-0.2012,-0.1826,-0.1796,-0.1928,-0.1455,-0.0941,-0.0385,0.0264,0.0832,0.13,0.1378,0.1289,0.1095,0.0702,0.0374,0.0115,0.0115,0.0088,0.0061,0.012,0.0218,0.0368,0.0418,0.0808,0.1406,0.1473,0.1907,0.2477,0.2377,0.2441,0.2606,0.2907,0.3142,0.3307,0.3405,0.3434,0.3368,0.3208,0.3208,0.3278,0.3569,0.3635,0.37,0.4011,0.4307,0.4505,0.4436,0.4782,0.5251,0.5658,0.6291,0.6855,0.7026,0.7353,0.754,0.7406,0.7996,0.8413,0.8101,0.8364,0.8388,0.7837,0.7422,0.693,0.6233,0.6083,0.5875,0.5521,0.6202,0.6471,0.6088,0.5896,0.6035,0.6535,0.6655,0.6775,0.6942,0.7367,0.8001,0.8926,0.9146,0.9919,1.1099,1.1142,1.0981,1.0649,1.0302,1.004,0.9872,0.9545,0.9569,0.9826,0.9942,1.0125,1.0284,1.0125,0.9951,0.9798,0.0,0.0,-0.0168,-0.0785,-0.0898,-0.0898,-0.0898,-0.0898,-0.0897,-0.0896,-0.0793,-0.0808,-0.1075,-0.0763,-0.0763,-0.1343,-0.1343,-0.1433,-0.1794,-0.1257,-0.1167,-0.1792,-0.1207,-0.0626,0.0,0.0268,0.0613,0.1091,0.1762,0.1683,0.0908,0.0813,0.0584,0.0184,0.0123,0.0123,0.0185,0.0066,0.0134,0.0303,0.0436,0.0737,0.1138,0.1406,0.1907,0.2444,0.2045,0.2444,0.3109,0.2676,0.2937,0.3467,0.3204,0.3105,0.3105,0.3105,0.3208,0.3344,0.3639,0.3705,0.3765,0.4043,0.4456,0.4686,0.4307,0.4814,0.554,0.5998,0.6329,0.6612,0.6927,0.6885,0.6771,0.6629,0.7291,0.7729,0.7539,0.8133,0.8415,0.7951,0.7591,0.7245,0.6824,0.6791,0.6897,0.7158,0.761,0.6994,0.4941,0.5318,0.5651,0.5716,0.6354,0.6661,0.6602,0.779,0.848,0.8711,0.9369,1.0187,1.1092,1.0621,1.0457,1.0582,1.0166,0.9911,0.9723,0.9783,0.9822,0.988,0.9761,0.9803,0.9837,0.9401,0.9031,0.8788,-0.0617,-0.0617,-0.0673,-0.0842,-0.0898,-0.1066,-0.1459,-0.1178,-0.1066,-0.1459,-0.1041,-0.0719,-0.0808,-0.0987,-0.121,-0.1389,-0.1166,-0.1212,-0.1658,-0.1256,-0.112,-0.1299,-0.1433,-0.1165,-0.0359,-0.0672,-0.0533,0.0088,0.0213,0.0326,0.0421,0.0394,0.0381,0.0416,0.0381,0.0339,0.0262,0.0233,0.037,0.0637,0.0451,0.0875,0.1642,0.1742,0.2242,0.2907,0.2775,0.2944,0.3245,0.3043,0.3072,0.3204,0.3138,0.3142,0.3142,0.3003,0.3003,0.3039,0.3134,0.3167,0.32,0.3364,0.3593,0.3761,0.3723,0.4398,0.5036,0.5118,0.5658,0.6199,0.6604,0.6573,0.657,0.6698,0.7298,0.7704,0.7651,0.8045,0.8322,0.8311,0.7739,0.739,0.7528,0.7042,0.692,0.738,0.6989,0.6611,0.6304,0.6589,0.6511,0.5989,0.6391,0.6625,0.6611,0.7528,0.8173,0.8565,0.9333,1.0002,1.0525,1.0244,1.0088,1.0049,0.9765,0.9695,0.9771,0.9753,0.99,1.017,1.0127,1.018,1.0242,0.958,0.9103,0.8717,-0.0954,-0.0898,-0.0898,-0.0898,-0.0898,-0.101,-0.1403,-0.1122,-0.101,-0.1403,-0.1041,-0.0719,-0.0719,-0.1033,-0.1256,-0.1299,-0.1076,-0.1121,-0.1523,-0.1254,-0.1164,-0.1299,-0.141,-0.1184,-0.0584,-0.0819,-0.0682,-0.0269,-0.0218,0.0042,0.0454,0.0552,0.0616,0.0655,0.0742,0.0615,0.0356,0.0376,0.0409,0.0483,0.0489,0.0975,0.1709,0.1878,0.2344,0.2874,0.2944,0.3076,0.3212,0.3208,0.3208,0.3237,0.3237,0.327,0.3274,0.3035,0.297,0.297,0.3003,0.3003,0.3039,0.3105,0.334,0.3569,0.3793,0.4274,0.4718,0.4839,0.532,0.5859,0.6268,0.626,0.6329,0.6751,0.7145,0.7511,0.7686,0.7701,0.7807,0.8049,0.7409,0.7098,0.7496,0.6956,0.6925,0.7741,0.7187,0.6954,0.721,0.6901,0.6578,0.6221,0.6442,0.6711,0.6971,0.778,0.8348,0.8701,0.9548,1.0038,1.0205,1.0137,1.0049,0.9892,0.9686,0.9655,0.9771,0.9694,0.984,1.0025,0.9969,1.0012,0.9986,0.9346,0.8837,0.8404,-0.1064,-0.0954,-0.0954,-0.0954,-0.0954,-0.0954,-0.0954,-0.0954,-0.095,-0.0886,-0.0792,-0.0724,-0.072,-0.0856,-0.0991,-0.1075,-0.1075,-0.1164,-0.1389,-0.1208,-0.1208,-0.1524,-0.1162,-0.0838,-0.0672,-0.0325,-0.014,-0.0045,0.0269,0.0582,0.0849,0.1157,0.1135,0.0923,0.1153,0.0944,0.0468,0.0532,0.0384,0.0145,0.0619,0.1007,0.1373,0.1811,0.2178,0.251,0.2679,0.2878,0.3072,0.3142,0.3303,0.3467,0.3467,0.3467,0.3434,0.3204,0.3138,0.3138,0.3208,0.3208,0.3208,0.3208,0.3565,0.3956,0.4285,0.4452,0.464,0.5011,0.5347,0.5645,0.6037,0.5975,0.6075,0.6681,0.6915,0.7157,0.7598,0.7232,0.7056,0.737,0.6768,0.6493,0.6873,0.6611,0.6939,0.8197,0.8036,0.7813,0.7694,0.6581,0.6074,0.6393,0.651,0.6892,0.759,0.8406,0.888,0.9039,0.9925,1.0244,1.0127,1.0215,1.0215,1.0078,0.9872,0.9744,0.9643,0.967,0.9644,0.9572,0.9444,0.9366,0.9245,0.8838,0.8376,0.7908,-0.1595,-0.1572,-0.1572,-0.1572,-0.1572,-0.1572,-0.1572,-0.1572,-0.1406,-0.0822,-0.0776,-0.0769,-0.0725,-0.0786,-0.0837,-0.0811,-0.0899,-0.1077,-0.1389,-0.1122,-0.0987,-0.1074,-0.1039,-0.086,-0.0494,-0.0724,-0.0814,-0.0672,-0.0268,0.0089,0.0358,0.0815,0.0967,0.1007,0.1397,0.1326,0.0941,0.1071,0.1082,0.098,0.0895,0.111,0.1481,0.1678,0.1945,0.2214,0.2377,0.2507,0.2676,0.2838,0.294,0.301,0.3208,0.3274,0.3274,0.3368,0.3401,0.3401,0.3434,0.3434,0.3434,0.3434,0.3565,0.3733,0.4026,0.4582,0.5058,0.5081,0.5549,0.5974,0.6005,0.5928,0.5959,0.6421,0.6777,0.7077,0.7285,0.7328,0.7358,0.7339,0.6977,0.6786,0.6884,0.6834,0.7149,0.809,0.7762,0.7797,0.8408,0.7738,0.7031,0.6429,0.6915,0.7309,0.759,0.8555,0.9198,0.9536,0.9561,0.9793,1.0251,0.9882,0.9901,1.0242,0.9753,0.9435,0.9203,0.949,0.9538,0.9366,0.9245,0.9245,0.9245,0.8854,0.8494,0.8157,-0.2211,-0.2411,-0.2523,-0.2244,-0.2188,-0.2188,-0.2188,-0.1965,-0.1476,-0.0506,-0.0414,-0.0522,-0.0754,-0.0767,-0.0738,-0.072,-0.0898,-0.1076,-0.1254,-0.1166,-0.1076,-0.0985,-0.1003,-0.0868,-0.054,-0.0731,-0.0776,-0.0673,-0.0359,-0.0045,0.0224,0.0569,0.0779,0.0864,0.1313,0.1341,0.1042,0.1316,0.1368,0.1278,0.1259,0.1431,0.1635,0.1695,0.1778,0.1947,0.2075,0.2211,0.2347,0.2573,0.2739,0.2878,0.3109,0.3307,0.3442,0.3569,0.3467,0.3372,0.3372,0.3372,0.3438,0.3499,0.3565,0.37,0.4091,0.4477,0.4826,0.5177,0.5437,0.5635,0.5747,0.571,0.5773,0.6083,0.6352,0.6565,0.6755,0.6719,0.6754,0.7002,0.6769,0.6754,0.7227,0.72,0.7598,0.8636,0.8356,0.8388,0.8915,0.8544,0.8006,0.7235,0.756,0.7945,0.8296,0.9023,0.9492,0.9753,0.9616,0.9685,1.0017,0.9765,0.9885,1.0275,0.9908,0.9718,0.9615,0.9683,0.9536,0.9246,0.9136,0.9028,0.8905,0.8849,0.8588,0.8209,-0.2914,-0.3249,-0.3416,-0.2914,-0.2747,-0.2691,-0.2579,-0.2132,-0.1403,-0.028,-0.0112,-0.0336,-0.0842,-0.0796,-0.0728,-0.0727,-0.0945,-0.1075,-0.1031,-0.121,-0.1256,-0.1031,-0.0927,-0.079,-0.0675,-0.051,-0.0418,-0.036,-0.0225,-0.0045,0.018,0.0359,0.0537,0.076,0.1078,0.1125,0.0979,0.1436,0.1538,0.1374,0.1753,0.191,0.1974,0.1889,0.1855,0.1853,0.1873,0.1972,0.2104,0.2383,0.2653,0.2933,0.315,0.346,0.3747,0.3714,0.3471,0.3274,0.3307,0.3344,0.3377,0.3499,0.3597,0.3798,0.4318,0.4404,0.4545,0.5297,0.5357,0.5358,0.5631,0.5723,0.5841,0.5955,0.6059,0.616,0.6315,0.6073,0.6087,0.6681,0.6521,0.6695,0.7599,0.7628,0.8074,0.9235,0.9171,0.9152,0.9245,0.9113,0.881,0.8388,0.8282,0.8514,0.9133,0.9499,0.9674,0.9704,0.9704,0.9769,0.9897,0.9824,1.0086,1.0487,1.0294,1.0241,1.0292,1.0005,0.9617,0.9282,0.9177,0.8969,0.8691,0.899,0.8791,0.837,-0.336,-0.353,-0.3583,-0.3471,-0.3026,-0.2523,-0.2021,-0.1853,-0.1572,-0.0842,-0.0785,-0.0785,-0.0898,-0.0821,-0.0766,-0.0806,-0.0872,-0.0899,-0.0763,-0.0899,-0.0899,-0.0763,-0.0723,-0.0679,-0.0539,-0.0362,-0.0226,-0.0225,-0.009,0.0,0.0045,0.018,0.0448,0.085,0.08,0.0978,0.125,0.1694,0.1789,0.1713,0.2408,0.2736,0.2698,0.2607,0.2563,0.2473,0.2042,0.1904,0.1964,0.2242,0.2618,0.3014,0.3223,0.3619,0.3994,0.3685,0.3569,0.3569,0.3761,0.3733,0.3639,0.3672,0.3765,0.3988,0.4473,0.4826,0.5156,0.5568,0.6152,0.6575,0.6443,0.6788,0.7054,0.6835,0.6975,0.6947,0.6607,0.6644,0.6776,0.7022,0.6982,0.7156,0.7661,0.7835,0.8193,0.8846,0.9022,0.9206,0.9437,0.9257,0.9134,0.9142,0.8671,0.8727,0.927,0.9439,0.9435,0.9297,0.9368,0.9839,1.0708,1.0155,1.0485,1.1435,1.0867,1.0535,1.0372,1.023,0.9914,0.9628,0.9487,0.938,0.9374,0.9445,0.9481,0.9394,-0.2579,-0.2635,-0.2635,-0.2635,-0.213,-0.185,-0.2244,-0.174,-0.1234,-0.0954,-0.0898,-0.0898,-0.0898,-0.0835,-0.094,-0.1232,-0.114,-0.1124,-0.1245,-0.1243,-0.1302,-0.1302,-0.1238,-0.1067,-0.065,-0.059,-0.0405,-0.009,-0.009,0.0,0.0225,0.0449,0.0583,0.0628,0.0896,0.1119,0.1297,0.1621,0.1955,0.2382,0.2689,0.2961,0.3155,0.2802,0.2739,0.2733,0.2216,0.201,0.2039,0.2281,0.2481,0.2741,0.334,0.3663,0.3867,0.4135,0.3873,0.3565,0.3695,0.3733,0.3705,0.3798,0.3891,0.4086,0.4608,0.4755,0.4999,0.5571,0.6127,0.6493,0.6529,0.7017,0.7376,0.7276,0.7269,0.7272,0.7165,0.7247,0.7348,0.7416,0.7646,0.7948,0.8278,0.8413,0.8719,0.9246,0.936,0.9433,0.9408,0.9386,0.9226,0.8878,0.8994,0.9367,1.0008,1.0036,1.0187,1.0508,1.0255,1.049,1.1079,1.0489,1.0723,1.1575,1.1177,1.1035,1.108,1.0719,1.0423,1.0205,1.0002,0.9779,0.9612,0.9632,0.9596,0.9449,-0.2021,-0.2021,-0.1965,-0.1797,-0.1403,-0.1402,-0.2186,-0.1514,-0.0898,-0.0898,-0.0898,-0.0887,-0.0965,-0.0826,-0.0908,-0.1413,-0.1228,-0.1271,-0.1561,-0.1624,-0.1615,-0.1661,-0.1568,-0.125,-0.0714,-0.0741,-0.0456,0.0091,0.0,0.0182,0.06,0.0769,0.0811,0.0729,0.1036,0.1254,0.139,0.1629,0.2226,0.29,0.3011,0.333,0.3659,0.3131,0.3039,0.3114,0.2449,0.2233,0.2228,0.2395,0.2478,0.2691,0.3401,0.3709,0.3901,0.4379,0.413,0.377,0.3804,0.3804,0.3822,0.4215,0.4272,0.4378,0.5003,0.5043,0.5142,0.5851,0.6263,0.6572,0.6796,0.736,0.7752,0.769,0.7609,0.7577,0.7577,0.7684,0.7796,0.7881,0.822,0.8604,0.8896,0.9008,0.921,0.9567,0.9683,0.9594,0.9368,0.9426,0.9226,0.8683,0.9215,0.9767,1.0335,1.0531,1.0865,1.1334,1.1034,1.1001,1.1238,1.0822,1.0937,1.1495,1.1417,1.15,1.1601,1.1244,1.1002,1.0838,1.0598,1.0295,0.9951,0.9901,0.9761,0.9562,-0.2635,-0.2635,-0.2467,-0.1909,-0.1741,-0.1572,-0.1122,-0.0954,-0.0898,-0.0898,-0.0898,-0.0962,-0.1067,-0.0679,-0.0504,-0.0655,-0.0754,-0.0955,-0.1312,-0.1506,-0.1502,-0.1351,-0.1053,-0.0742,-0.043,-0.0333,-0.0048,0.0379,0.0412,0.07,0.1249,0.0885,0.1054,0.1658,0.1051,0.1033,0.1617,0.2052,0.2506,0.2984,0.3772,0.4315,0.4626,0.3842,0.3744,0.3897,0.2964,0.2628,0.2571,0.2581,0.293,0.3337,0.3324,0.3881,0.4421,0.3994,0.4191,0.4517,0.4517,0.4218,0.4151,0.5197,0.5204,0.515,0.6012,0.6224,0.6376,0.6737,0.7338,0.7799,0.7867,0.844,0.874,0.8316,0.8333,0.8205,0.7591,0.7744,0.8023,0.8402,0.8595,0.882,0.9239,0.9381,0.9439,0.9319,0.9545,0.9643,0.9484,0.9377,0.9248,0.9136,0.9358,0.9512,0.9589,1.0452,1.0785,1.0588,1.0678,1.0876,1.1104,1.1057,1.1222,1.1534,1.1633,1.1601,1.1519,1.1592,1.1501,1.1267,1.1242,1.1082,1.0779,1.0525,1.0431,1.032,-0.2188,-0.2132,-0.2077,-0.1853,-0.1797,-0.1741,-0.1515,-0.1122,-0.0898,-0.0898,-0.0833,-0.0847,-0.098,-0.0611,-0.0565,-0.0913,-0.0899,-0.1053,-0.156,-0.1531,-0.141,-0.1253,-0.0766,-0.0354,-0.0051,0.015,0.0395,0.0789,0.0713,0.0898,0.1216,0.1244,0.1311,0.1374,0.1309,0.1345,0.1527,0.2011,0.2564,0.3094,0.371,0.4108,0.4256,0.3768,0.3648,0.3601,0.3087,0.2875,0.287,0.3037,0.3138,0.3209,0.3665,0.3957,0.4229,0.4514,0.4877,0.5257,0.5732,0.5363,0.5014,0.543,0.5511,0.5644,0.6126,0.6329,0.6513,0.6992,0.7408,0.7802,0.8054,0.8738,0.9232,0.9178,0.9185,0.9174,0.9107,0.8889,0.8793,0.8972,0.9106,0.9238,0.9301,0.9426,0.9426,0.9319,0.9545,0.9672,0.9617,0.945,0.9461,0.9614,0.9995,1.0286,1.0496,1.1022,1.1454,1.1855,1.1665,1.17,1.1953,1.1603,1.1635,1.1977,1.1728,1.1569,1.1628,1.1528,1.1239,1.0959,1.1082,1.0889,1.0491,1.0236,1.0079,0.9948,-0.1908,-0.1797,-0.1797,-0.1797,-0.1797,-0.1741,-0.1572,-0.1347,-0.1122,-0.0898,-0.0826,-0.0806,-0.0888,-0.0537,-0.0424,-0.0825,-0.0819,-0.0929,-0.1341,-0.1261,-0.1186,-0.1172,-0.0578,-0.0052,0.0213,0.0467,0.0765,0.1109,0.1019,0.1149,0.1501,0.1517,0.1489,0.1371,0.1646,0.1691,0.1695,0.2219,0.2759,0.3306,0.3595,0.3876,0.3976,0.3646,0.3503,0.3452,0.3182,0.306,0.3089,0.3274,0.3245,0.3224,0.3759,0.3983,0.4185,0.507,0.554,0.5891,0.6586,0.6477,0.6165,0.6086,0.6078,0.6161,0.6521,0.6765,0.6993,0.7379,0.7718,0.8,0.8148,0.8806,0.9308,0.9478,0.9538,0.9666,0.9888,0.9617,0.9357,0.9266,0.9368,0.9413,0.9415,0.9532,0.9576,0.96,0.9834,0.996,0.9961,0.9839,0.9872,1.0083,1.054,1.0931,1.1239,1.164,1.2033,1.2529,1.2274,1.2224,1.2274,1.1877,1.1778,1.1828,1.1469,1.1267,1.1267,1.1175,1.0923,1.068,1.0881,1.0722,1.0245,0.997,0.9748,0.9581,-0.202,-0.1797,-0.1797,-0.1797,-0.1797,-0.1572,-0.101,-0.1403,-0.1572,-0.101,-0.0898,-0.0898,-0.0898,-0.0336,-0.0055,-0.0214,-0.033,-0.0393,-0.0393,-0.0561,-0.0829,-0.1174,-0.044,0.0055,0.0213,0.0692,0.1047,0.1413,0.1312,0.1555,0.2109,0.1628,0.1605,0.2003,0.2003,0.2095,0.234,0.278,0.3239,0.3617,0.3617,0.3776,0.4056,0.3574,0.3513,0.3631,0.3308,0.3212,0.3207,0.3215,0.3306,0.3444,0.3581,0.3945,0.4504,0.5508,0.6062,0.6428,0.6962,0.7347,0.7571,0.7437,0.7041,0.6833,0.7369,0.7773,0.7979,0.8021,0.839,0.8602,0.825,0.8618,0.903,0.9109,0.9383,0.9606,0.9615,0.9641,0.957,0.9229,0.9217,0.9334,0.9683,0.9718,0.9865,1.0283,1.0409,1.0499,1.0499,1.0499,1.0499,1.0507,1.1037,1.1348,1.1489,1.2175,1.2382,1.2076,1.2224,1.2175,1.1877,1.1778,1.1418,1.0922,1.0922,1.0667,1.0324,1.0565,1.0624,1.0514,1.0616,1.0522,1.0277,0.9867,0.9645,0.9526,-0.2132,-0.1797,-0.1685,-0.1234,-0.1178,-0.1122,-0.0954,-0.1066,-0.1234,-0.1515,-0.0954,-0.0617,-0.0898,-0.0336,-0.0056,-0.0166,-0.0167,-0.0168,-0.028,-0.0393,-0.0447,-0.0387,0.0167,0.0614,0.0829,0.1241,0.1484,0.1469,0.1314,0.1397,0.1764,0.1437,0.1507,0.1811,0.1907,0.1954,0.2058,0.2633,0.2927,0.3093,0.3544,0.3636,0.3498,0.3528,0.3389,0.3228,0.3187,0.3278,0.3362,0.3322,0.3427,0.3591,0.3987,0.4586,0.5237,0.58,0.6259,0.6742,0.7113,0.7367,0.755,0.7528,0.7403,0.7293,0.7384,0.7523,0.7773,0.8201,0.8118,0.8118,0.848,0.8765,0.905,0.9469,0.9489,0.9588,0.9896,0.9606,0.9371,0.9452,0.931,0.9438,1.0039,0.9665,0.9508,0.9926,1.0117,1.0349,1.0625,1.0737,1.0859,1.1071,1.1229,1.1426,1.1648,1.2021,1.2224,1.2224,1.2175,1.2126,1.2026,1.1877,1.1769,1.1578,1.1124,1.0871,1.0871,1.0624,1.037,1.0113,1.0257,1.0109,0.9715,0.9634,0.9592,0.9496,-0.2516,-0.1861,-0.1403,-0.129,-0.1458,-0.1457,-0.0954,-0.0898,-0.1122,-0.1741,-0.1178,-0.0673,-0.0561,-0.0224,-0.0056,-0.0112,-0.0056,-0.0056,-0.0112,-0.0224,-0.0056,0.0336,0.0617,0.0898,0.1178,0.1541,0.1664,0.1514,0.1502,0.1462,0.1495,0.1482,0.1559,0.1771,0.2019,0.2145,0.2254,0.2897,0.3202,0.3204,0.3496,0.357,0.3392,0.3453,0.3391,0.3308,0.3399,0.3528,0.363,0.3563,0.3622,0.381,0.4312,0.4857,0.5435,0.5974,0.6464,0.6901,0.7276,0.7463,0.7563,0.7612,0.7508,0.7363,0.7412,0.7496,0.7697,0.8126,0.8085,0.8085,0.8349,0.8641,0.895,0.9278,0.9377,0.9476,0.9792,0.9649,0.958,0.9598,0.9563,0.9787,1.0401,1.0135,1.0048,1.0277,1.0332,1.0403,1.0535,1.0629,1.085,1.1193,1.1226,1.1384,1.1719,1.1877,1.1977,1.2076,1.2126,1.2076,1.1877,1.1778,1.1628,1.1427,1.0922,1.0718,1.0667,1.0411,1.0132,0.9861,1.0018,0.9902,0.9739,0.9703,0.9737,0.9818,-0.3228,-0.2099,-0.1251,-0.18,-0.2244,-0.2186,-0.1122,-0.0954,-0.1122,-0.1741,-0.1403,-0.0842,-0.0112,0.0,0.0,0.0,0.0,0.0,0.0,0.0,0.028,0.0842,0.0898,0.101,0.129,0.1567,0.1626,0.142,0.1626,0.1571,0.1276,0.1468,0.1701,0.1876,0.226,0.2581,0.2748,0.3425,0.3685,0.3677,0.346,0.3467,0.3556,0.3289,0.3391,0.3683,0.3733,0.3859,0.4023,0.3904,0.3961,0.4145,0.4638,0.4943,0.5296,0.6122,0.6599,0.689,0.7346,0.7493,0.7565,0.7575,0.7371,0.7209,0.7335,0.7545,0.7712,0.7878,0.8126,0.8291,0.8062,0.839,0.8717,0.8783,0.9109,0.9359,0.9392,0.9758,0.9887,0.9598,0.9811,1.016,1.0634,1.0867,1.0992,1.0957,1.0746,1.0561,1.029,1.0353,1.0582,1.1093,1.1137,1.1323,1.1669,1.1669,1.1728,1.1728,1.2076,1.1977,1.1528,1.1469,1.1226,1.0718,1.0565,1.0316,1.0051,0.9999,0.9947,0.9851,0.9799,0.9917,1.0024,0.9814,0.9948,1.0251,-0.4146,-0.3294,-0.2643,-0.2512,-0.185,-0.1346,-0.1572,-0.1178,-0.1122,-0.1741,-0.1066,-0.0561,-0.0505,-0.0168,0.0,0.0,0.0,0.0,0.0,0.0112,0.0336,0.0729,0.0954,0.1066,0.1122,0.1311,0.123,0.079,0.0583,0.0631,0.0926,0.083,0.1295,0.221,0.2193,0.2469,0.2947,0.2916,0.2912,0.2965,0.3003,0.2994,0.2932,0.3073,0.3329,0.3614,0.3409,0.3776,0.4407,0.4337,0.4816,0.5304,0.4849,0.541,0.6252,0.6139,0.6505,0.6975,0.7095,0.7163,0.7205,0.7281,0.7166,0.7076,0.7209,0.73,0.7419,0.7836,0.7878,0.7961,0.825,0.8414,0.8559,0.8818,0.8854,0.894,0.9281,0.9241,0.9224,0.9427,0.9275,0.9453,1.0214,1.0283,1.0109,0.9722,1.0013,1.0177,1.0146,1.0661,1.0966,1.1101,1.1394,1.1539,1.1528,1.1628,1.1728,1.1728,1.1678,1.1678,1.1628,1.1427,1.1276,1.1124,1.0718,1.0522,1.0514,1.0051,1.0007,1.0162,0.9903,0.9777,0.9627,0.917,0.9246,0.9652,-0.383,-0.3496,-0.3113,-0.2754,-0.1964,-0.129,-0.1178,-0.101,-0.1066,-0.1515,-0.0842,-0.0336,-0.0336,-0.0112,0.0,0.0112,0.0112,0.0112,0.0168,0.0331,0.0496,0.0672,0.0939,0.0993,0.0673,0.0826,0.0704,0.0426,0.0379,0.0429,0.0467,0.0528,0.0949,0.1713,0.1793,0.2071,0.2607,0.2758,0.2798,0.2798,0.2854,0.2965,0.313,0.3299,0.3649,0.4129,0.3968,0.4095,0.4393,0.4521,0.4801,0.5046,0.4843,0.5321,0.5973,0.6013,0.6332,0.6763,0.6925,0.6912,0.6918,0.6851,0.6907,0.7027,0.7286,0.737,0.7545,0.787,0.7904,0.7953,0.8365,0.8447,0.8544,0.8764,0.8807,0.884,0.8906,0.9014,0.9123,0.9255,0.9271,0.9544,1.0211,1.0063,0.9821,0.9701,0.9887,1.0024,1.0013,1.0468,1.086,1.1101,1.1248,1.1344,1.1418,1.1469,1.1477,1.1418,1.1469,1.1427,1.1318,1.1175,1.1023,1.0922,1.0624,1.0522,1.0573,1.0265,1.0154,1.0125,1.0076,1.0065,1.0006,0.9631,0.9818,1.0235,-0.3293,-0.3226,-0.3049,-0.264,-0.2132,-0.1515,-0.0617,-0.0793,-0.1079,-0.1293,-0.079,-0.0339,-0.0056,0.0,0.0056,0.0112,0.0168,0.028,0.0336,0.0437,0.0544,0.056,0.0819,0.0653,0.0112,0.0224,0.0221,0.0054,0.0332,0.0272,-0.0051,0.0265,0.0687,0.1132,0.1323,0.1662,0.215,0.254,0.2738,0.2738,0.2794,0.3016,0.335,0.3413,0.3913,0.4522,0.4522,0.4443,0.441,0.4645,0.4665,0.4654,0.4869,0.5175,0.5509,0.5837,0.6219,0.656,0.6777,0.6771,0.6633,0.6539,0.6696,0.695,0.7314,0.7538,0.7712,0.7938,0.7979,0.8103,0.8439,0.8521,0.8521,0.8643,0.8781,0.8781,0.848,0.883,0.9068,0.8939,0.9286,0.9636,1.0091,0.9838,0.9754,0.9958,0.9985,1.0017,0.9951,1.0275,1.0705,1.1142,1.1137,1.1221,1.137,1.137,1.1285,1.1124,1.1326,1.1276,1.0972,1.0922,1.0769,1.0624,1.0522,1.0522,1.0522,1.0482,1.0311,1.0089,1.0277,1.0442,1.0514,1.0394,1.0487,1.073,-0.3758,-0.3426,-0.2919,-0.2067,-0.1853,-0.1572,-0.0954,-0.1176,-0.1373,-0.13,-0.1044,-0.076,-0.0282,0.0,0.0112,-0.0112,0.0168,0.028,0.0056,0.0167,0.0167,-0.0056,0.0167,0.0112,-0.0336,-0.0168,-0.028,-0.0557,-0.0559,-0.0558,-0.0608,-0.0389,0.0222,0.1103,0.1,0.1447,0.2169,0.2122,0.2127,0.2127,0.2238,0.235,0.2406,0.2689,0.3299,0.3907,0.3802,0.4288,0.4988,0.4893,0.5296,0.5701,0.5309,0.5561,0.6023,0.5791,0.6263,0.6828,0.6761,0.6582,0.6496,0.6653,0.6605,0.6611,0.6914,0.7209,0.7545,0.7829,0.7912,0.8036,0.8439,0.8521,0.8521,0.8521,0.8643,0.8602,0.8291,0.8297,0.8328,0.832,0.8484,0.8675,0.8915,0.9086,0.9251,0.9374,0.9843,1.0075,1.006,1.0824,1.1271,1.1382,1.1877,1.2038,1.1711,1.1711,1.1601,1.1267,1.1167,1.1175,1.1226,1.1023,1.0922,1.1023,1.0667,1.0573,1.0648,1.0424,1.0325,1.0275,1.0461,1.0446,1.0331,1.0378,0.9931,0.9426,-0.3892,-0.3625,-0.3306,-0.2704,-0.194,-0.1358,-0.1224,-0.0992,-0.0935,-0.1281,-0.1042,-0.0745,-0.0506,-0.0056,0.0112,-0.0168,0.0056,0.0112,0.0,-0.011,-0.022,-0.0224,-0.022,-0.033,-0.0561,-0.04,-0.0457,-0.0785,-0.0898,-0.0898,-0.0898,-0.0729,-0.028,0.0392,0.0729,0.1177,0.1625,0.1794,0.1794,0.1625,0.1794,0.1905,0.2015,0.241,0.3021,0.3738,0.4079,0.4467,0.4794,0.4846,0.5111,0.5302,0.5069,0.5325,0.5793,0.5903,0.6324,0.6789,0.696,0.6931,0.6807,0.6786,0.6726,0.6793,0.6981,0.7204,0.7454,0.7753,0.7746,0.7821,0.8365,0.8447,0.8447,0.848,0.8561,0.848,0.8118,0.8238,0.8404,0.8462,0.8582,0.8672,0.8798,0.9115,0.9374,0.9503,1.0075,1.0446,1.0416,1.0919,1.126,1.142,1.1599,1.1631,1.1576,1.1523,1.1388,1.1175,1.1226,1.1226,1.1175,1.0922,1.082,1.0871,1.0624,1.047,1.0486,1.0323,1.0302,1.0333,1.0524,1.0616,1.0639,1.0833,1.0628,1.0247]},{"header":{"parameterUnit":"m.s-1","parameterCategory":1,"la1":30.6,"la2":28.766,"lo1":-90.7593,"lo2":-88.6598,"dy":0.0162,"dx":0.0183,"nx":116,"ny":114,"refTime":"2023-08-23T12:00:00:Z","depth":0,"parameterNumber":3,"parameterNumberName":"V-component_of_WINDS"},"data":[0.0,0.0,0.0,0.0,0.0,0.0,0.0,0.0,0.0,0.0,0.0,0.0,0.0,0.0,0.0,0.0,0.0,0.0,0.0,0.0,0.0,0.0,0.0,0.0,0.0,0.0,0.0,0.0,0.0,0.0,0.0,0.0,0.0,0.0,0.0,0.0,0.0,0.0,0.0,0.0,0.0,0.0,0.0,0.0,0.0,0.0,0.0,0.0,0.0,0.0,0.0,0.0,0.0,0.0,0.0,0.0,0.0,0.0,0.0,0.0,0.0,0.0,0.0,0.0,0.0,0.0,0.0,0.0,0.0,0.0,0.0,0.0,0.0,0.0,0.0,0.0,0.0,0.0,0.0,0.0,0.0,0.0,0.0,0.0,0.0,0.0,0.0,0.0,0.0,0.0,0.0,0.0,0.0,0.0,0.0,0.0,0.0,0.0,0.0,0.0,0.0,0.0,0.0,0.0,0.0,0.0,0.0,0.0,0.0,0.0,0.0,0.0,0.0,0.0,0.0,0.0,0.0,0.0,0.0,0.0,0.0,0.0,0.0,0.0,0.0,0.0,0.0,0.0,0.0,0.0,0.0,0.0,0.0,0.0,0.0,0.0,0.0,0.0,0.0,0.0,0.0,0.0,0.0,0.0,0.0,0.0,0.0,0.0,0.0,0.0,0.0,0.0,0.0,0.0,0.0,0.0,0.0,0.0,0.0,0.0,0.0,0.0,0.0,0.0,0.0,0.0,0.0,0.0,0.0,0.0,0.0,0.0,0.0,0.0,0.0,0.0,0.0,0.0,0.0,0.0,0.0,0.0,0.0,0.0,0.0,0.0,0.0,0.0,0.0,0.0,0.0,0.0,0.0,0.0,0.0,0.0,0.0,0.0,0.0,0.0,0.0,0.0,0.0,0.0,0.0,0.0,0.0,0.0,0.0,0.0,0.0,0.0,0.0,0.0,0.0,0.0,0.0,0.0,0.0,0.0,0.0,0.0,0.0,0.0,0.0,0.0,0.0,0.0,0.0,0.0,0.0,0.0,0.0,0.0,0.0,0.0,0.0,0.0,0.0,0.0,0.0,0.0,0.0,0.0,0.0,0.0,0.0,0.0,0.0,0.0,0.0,0.0,0.0,0.0,0.0,0.0,0.0,0.0,0.0,0.0,0.0,0.0,0.0,0.0,0.0,0.0,0.0,0.0,0.0,0.0,0.0,0.0,0.0,0.0,0.0,0.0,0.0,0.0,0.0,0.0,0.0,0.0,0.0,0.0,0.0,0.0,0.0,0.0,0.0,0.0,0.0,0.0,0.0,0.0,0.0,0.0,0.0,0.0,0.0,0.0,0.0,0.0,0.0,0.0,0.0,0.0,0.0,0.0,0.0,0.0,0.0,0.0,0.0,0.0,0.0,0.0,0.0,0.0,0.0,0.0,0.0,0.0,0.0,0.0,0.0,0.0,0.0,0.0,0.0,0.0,0.0,0.0,0.0,0.0,0.0,0.0,0.0,0.0,0.0,0.0,0.0,0.0,0.0,0.0,0.0,0.0,0.0,0.0,0.0,0.0,0.0,0.0,0.0,0.0,0.0,0.0,0.0,0.0,0.0,0.0,0.0,0.0,0.0,0.0,0.0,0.0,0.0,0.0,0.0,0.0,0.0,0.0,0.0,0.0,0.0,0.0,0.0,0.0,0.0,0.0,0.0,0.0,0.0,0.0,0.0,0.0,0.0,0.0,0.0,0.0,0.0,0.0,0.0,0.0,0.0,0.0,0.0,0.0,0.0,0.0,0.0,0.0,0.0,0.0,0.0,0.0,0.0,0.0,0.0,0.0,0.0,0.0,0.0,0.0,0.0,0.0,0.0,0.0,0.0,0.0,0.0,0.0,0.0,0.0,0.0,0.0,0.0,0.0,0.0,0.0,0.0,0.0,0.0,0.0,0.0,0.0,0.0,0.0,0.0,0.0,0.0,0.0,0.0,0.0,0.0,0.0,0.0,0.0,0.0,0.0,0.0,0.0,0.0,0.0,0.0,0.0,0.0,0.0,0.0,0.0,0.0,0.0,0.0,0.0,0.0,0.0,0.0,0.0,0.0,0.0,0.0,0.0,0.0,0.0,0.0,0.0,0.0,0.0,0.0,0.0,0.0,0.0,0.0,0.0,0.0,0.0,0.0,0.0,0.0,0.0,0.0,0.0,0.0,0.0,0.0,0.0,0.0,0.0,0.0,0.0,0.0,0.0,0.0,0.0,0.0,0.0,0.0,0.0,0.0,0.0,0.0,0.0,0.0,0.0,0.0,0.0,0.0,0.0,0.0,0.0,0.0,0.0,0.0,0.0,0.0,0.0,0.0,0.0,0.0,0.0,0.0,0.0,0.0,0.0,0.0,0.0,0.0,0.0,0.0,0.0,0.0,0.0,0.0,0.0,0.0,0.0,0.0,0.0,0.0,0.0,0.0,0.0,0.0,0.0,0.0,0.0,0.0,0.0,0.0,0.0,0.0,0.0,0.0,0.0,0.0,0.0,0.0,0.0,0.0,0.0,0.0,0.0,0.0,0.0,0.0,0.0,0.0,0.0,0.0,0.0,0.0,0.0,0.0,0.0,0.0,0.0,0.0,0.0,0.0,0.0,0.0,0.0,0.0,0.0,0.0,0.0,0.0,0.0,0.0,0.0,0.0,0.0,0.0,0.0,0.0,0.0,0.0,0.0,0.0,0.0,0.0,0.0,0.0,0.0,0.0,0.0,0.0,0.0,0.0,0.0,0.0,0.0,0.0,0.0,0.0,0.0,0.0,0.0,0.0,0.0,0.0,0.0,0.0,0.0,0.0,0.0,0.0,0.0,0.0,0.0,0.0,0.0,0.0,0.0,0.0,0.0,0.0,0.0,0.0,0.0,0.0,0.0,0.0,0.0,0.0,0.0,0.0,0.0,0.0,0.0,0.0,0.0,0.0,0.0,0.0,0.0,0.0,0.0,0.0,0.0,0.0,0.0,0.0,0.0,0.0,0.0,0.0,0.0,0.0,0.0,0.0,0.0,0.0,0.0,0.0,0.0,0.0,0.0,0.0,0.0,0.0,0.0,0.0,0.0,0.0,0.0,0.0,0.0,0.0,0.0,0.0,0.0,0.0,0.0,0.0,0.0,0.0,0.0,0.0,0.0,0.0,0.0,0.0,0.0,0.0,0.0,0.0,0.0,0.0,0.0,0.0,0.0,0.0,0.0,0.0,0.0,0.0,0.0,0.0,0.0,0.0,0.0,0.0,0.0,0.0,0.0,0.0,0.0,0.0,0.0,0.0,0.0,0.0,0.0,0.0,0.0,0.0,0.0,0.0,0.0,0.0,0.0,0.0,0.0,0.0,0.0,0.0,0.0,0.0,0.0,0.0,0.0,0.0,0.0,0.0,0.0,0.0,0.0,0.0,0.0,0.0,0.0,0.0,0.0,0.0,0.0,0.0,0.0,0.0,0.0,0.0,0.0,0.0,0.0,0.0,0.0,0.0,0.0,0.0,0.0,0.0,0.0,0.0,0.0,0.0,0.0,0.0,0.0,0.0,0.0,0.0,0.0,0.0,0.0,0.0,0.0,0.0,0.0,0.0,0.0,0.0,0.0,0.0,0.0,0.0,0.0,0.0,0.0,0.0,0.0,0.0,0.0,0.0,0.0,0.0,0.0,0.0,0.0,0.0,0.0,0.0,0.0,0.0,0.0,0.0,0.0,0.0,0.0,0.0,0.0,0.0,0.0,0.0,0.0,0.0,0.0,0.0,0.0,0.0,0.0,0.0,0.0,0.0,0.0,0.0,0.0,0.0,0.0,0.0,0.0,0.0,0.0,0.0,0.0,0.0,0.0,0.0,0.0,0.0,0.0,0.0,0.0,0.0,0.0,0.0,0.0,0.0,0.0,0.0,0.0,0.0,0.0,0.0,0.0,0.0,0.0,0.0,0.0,0.0,0.0,0.0,0.0,0.0,0.0,0.0,0.0,0.0,0.0,0.0,0.0,0.0,0.0,0.0,0.0,0.0,0.0,0.0,0.0,0.0,0.0,0.0,0.0,0.0,0.0,0.0,0.0,0.0,0.0,0.0,0.0,0.0,0.0,0.0,0.0,0.0,0.0,0.0,0.0,0.0,0.0,0.0,0.0,0.0,0.0,0.0,0.0,0.0,0.0,0.0,0.0,0.0,0.0,0.0,0.0,0.0,0.0,0.0,0.0,0.0,0.0,0.0,0.0,0.0,0.0,0.0,0.0,0.0,0.0,0.0,0.0,0.0,0.0,0.0,0.0,0.0,0.0,0.0,0.0,0.0,0.0,0.0,0.0,0.0,0.0,0.0,0.0,0.0,0.0,0.0,0.0,0.0,0.0,0.0,0.0,0.0,0.0,0.0,0.0,0.0,0.0,0.0,0.0,0.0,0.0,0.0,0.0,0.0,0.0,0.0,0.0,0.0,0.0,0.0,0.0,0.0,0.0,0.0,0.0,0.0,0.0,0.0,0.0,0.0,0.0,0.0,0.0,0.0,0.0,0.0,0.0,0.0,0.0,0.0,0.0,0.0,0.0,0.0,0.0,0.0,0.0,0.0,0.0,0.0,0.0,0.0,0.0,0.0,0.0,0.0,0.0,0.0,0.0,0.0,0.0,0.0,0.0,0.0,0.0,0.0,0.0,0.0,0.0,0.0,0.0,0.0,0.0,0.0,0.0,0.0,0.0,0.0,0.0,0.0,0.0,0.0,0.0,0.0,0.0,0.0,0.0,0.0,0.0,0.0,0.0,0.0,0.0,0.0,0.0,0.0,0.0,0.0,0.0,0.0,0.0,0.0,0.0,0.0,0.0,0.0,0.0,0.0,0.0,0.0,0.0,0.0,0.0,0.0,0.0,0.0,0.0,0.0,0.0,0.0,0.0,0.0,0.0,0.0,0.0,0.0,0.0,0.0,0.0,0.0,0.0,0.0,0.0,0.0,0.0,0.0,0.0,0.0,0.0,0.0,0.0,0.0,0.0,0.0,0.0,0.0,0.0,0.0,0.0,0.0,0.0,0.0,0.0,0.0,0.0,0.0,0.0,0.0,0.0,0.0,0.0,0.0,0.0,0.0,0.0,0.0,0.0,0.0,0.0,0.0,0.0,0.0,0.0,0.0,0.0,0.0,0.0,0.0,0.0,0.0,0.0,0.0,0.0,0.0,0.0,0.0,0.0,0.0,0.0,0.0,0.0,0.0,0.0,0.0,0.0,0.0,0.0,0.0,0.0,0.0,0.0,0.0,0.0,0.0,0.0,0.0,0.0,0.0,0.0,0.0,0.0,0.0,0.0,0.0,0.0,0.0,0.0,0.0,0.0,0.0,0.0,0.0,0.0,0.0,0.0,0.0,0.0,0.0,0.0,0.0,0.0,0.0,0.0,0.0,0.0,0.0,0.0,0.0,0.0,0.0,0.0,0.0,0.0,0.0,0.0,0.0,0.0,0.0,0.0,0.0,0.0,0.0,0.0,0.0,0.0,0.0,0.0,0.0,0.0,0.0,0.0,0.0,0.0,0.0,0.0,0.0,0.0,0.0,0.0,0.0,0.0,0.0,0.0,0.0,0.0,0.0,0.0,0.0,0.0,0.0,0.0,0.0,0.0,0.0,0.0,0.0,0.0,0.0,0.0,0.0,0.0,0.0,0.0,0.0,0.0,0.0,0.0,0.0,0.0,0.0,0.0,0.0,0.0,0.0,0.0,0.0,0.0,0.0,0.0,0.0,0.0,0.0,0.0,0.0,0.0,0.0,0.0,0.0,0.0,0.0,0.0,0.0,0.0,0.0,0.0,0.0,0.0,0.0,0.0,0.0,0.0,0.0,0.0,0.0,0.0,0.0,0.0,0.0,0.0,0.0,0.0,0.0,0.0,0.0,0.0,0.0,0.0,0.0,0.0,0.0,0.0,0.0,0.0,0.0,0.0,0.0,0.0,0.0,0.0,0.0,0.0,0.0,0.0,0.0,0.0,0.0,0.0,0.0,0.0,0.0,0.0,0.0,0.0,0.0,0.0,0.0,0.0,0.0,0.0,0.0,0.0,0.0,0.0,0.0,0.0,0.0,0.0,0.0,0.0,0.0,0.0,0.0,0.0,0.0,0.0,0.0,0.0,-1.4359,-1.2647,0.0,0.0,0.0,0.0,0.0,0.0,0.0,0.0,0.0,0.0,0.0,0.0,0.0,0.0,0.0,0.0,0.0,0.0,0.0,0.0,0.0,0.0,0.0,0.0,0.0,0.0,0.0,0.0,0.0,0.0,0.0,0.0,0.0,0.0,0.0,0.0,0.0,0.0,-0.6803,-0.766,-0.8915,-0.9723,-0.9921,-0.957,0.0,0.0,0.0,0.0,0.0,0.0,0.0,0.0,0.0,0.0,0.0,0.0,0.0,0.0,0.0,0.0,0.0,0.0,0.0,0.0,0.0,0.0,0.0,0.0,0.0,0.0,0.0,0.0,0.0,0.0,0.0,0.0,0.0,0.0,0.0,0.0,0.0,0.0,0.0,0.0,0.0,0.0,0.0,0.0,0.0,0.0,0.0,0.0,0.0,0.0,0.0,0.0,0.0,0.0,0.0,0.0,0.0,0.0,0.0,0.0,0.0,0.0,0.0,0.0,0.0,0.0,0.0,0.0,0.0,0.0,-1.7296,-1.6171,0.0,0.0,0.0,0.0,0.0,0.0,0.0,0.0,0.0,0.0,0.0,0.0,0.0,0.0,0.0,0.0,0.0,0.0,0.0,0.0,0.0,0.0,0.0,-0.5979,-0.6523,-0.6817,-0.7362,-0.7773,0.0,0.0,0.0,0.0,0.0,0.0,0.0,0.0,0.0,-0.7693,-0.8288,-0.993,-1.2515,-1.4062,-1.4198,-1.3136,-1.2537,0.0,0.0,0.0,0.0,0.0,0.0,0.0,0.0,0.0,0.0,0.0,0.0,0.0,0.0,0.0,0.0,0.0,0.0,0.0,0.0,0.0,0.0,0.0,0.0,0.0,0.0,0.0,0.0,0.0,0.0,0.0,0.0,0.0,0.0,0.0,0.0,0.0,0.0,0.0,0.0,0.0,0.0,0.0,0.0,0.0,0.0,0.0,0.0,0.0,0.0,0.0,0.0,0.0,0.0,0.0,0.0,0.0,0.0,0.0,0.0,0.0,0.0,0.0,-1.9529,-2.0052,-2.0566,-2.1449,-2.1843,-2.1753,-2.0218,-1.9912,-2.0324,-1.8072,0.0,0.0,0.0,0.0,0.0,0.0,0.0,0.0,0.0,0.0,0.0,0.0,0.0,0.0,0.0,0.0,0.0,0.0,0.0,0.0,0.0,-0.6338,-0.6979,-0.8448,-0.8038,-0.8024,-0.8775,0.0,0.0,0.0,0.0,0.0,0.0,-0.6405,-0.6823,-0.7693,-1.0678,-1.3476,-1.6051,-1.703,-1.8182,-1.9274,-1.6244,-1.5253,-1.5699,0.0,0.0,0.0,0.0,0.0,0.0,0.0,0.0,0.0,0.0,0.0,0.0,0.0,0.0,0.0,0.0,0.0,0.0,0.0,0.0,0.0,0.0,0.0,0.0,0.0,0.0,0.0,0.0,0.0,0.0,0.0,0.0,0.0,0.0,0.0,0.0,0.0,0.0,0.0,0.0,0.0,-1.3764,-1.5507,0.0,0.0,0.0,0.0,0.0,0.0,0.0,0.0,0.0,0.0,0.0,0.0,0.0,-2.0156,-2.1027,-2.3295,-2.4107,-2.3484,-2.5766,-2.6515,-2.5909,-2.6797,-2.7186,-2.7136,-2.6143,0.0,-2.0414,-1.9317,0.0,0.0,0.0,0.0,0.0,0.0,0.0,0.0,0.0,0.0,0.0,0.0,0.0,0.0,0.0,0.0,0.0,0.0,0.0,0.0,0.0,-0.9429,-1.0693,-1.2393,-1.2671,-1.2494,-1.1906,-1.1046,0.0,0.0,0.0,0.0,-0.7852,-0.8346,-0.9486,-1.1308,-1.4766,-1.7031,-1.8183,-1.955,-2.0837,-2.1932,-2.041,-1.9139,-1.8064,-1.6456,0.0,0.0,0.0,0.0,0.0,0.0,0.0,0.0,0.0,0.0,0.0,0.0,0.0,0.0,0.0,0.0,0.0,0.0,0.0,0.0,0.0,0.0,0.0,0.0,0.0,0.0,0.0,0.0,0.0,0.0,0.0,0.0,0.0,0.0,0.0,0.0,0.0,0.0,0.0,-1.4015,-1.5517,-1.6725,-1.6971,-1.6857,0.0,0.0,0.0,0.0,0.0,0.0,0.0,0.0,0.0,-2.1247,-2.2144,-2.3001,-2.3874,-2.5036,-2.5654,-2.5788,-2.6961,-2.7554,-2.7636,-2.7554,-2.7539,-2.7449,-2.6087,-2.4709,-2.3388,-2.2978,-2.2328,-2.1516,0.0,0.0,0.0,0.0,-1.8381,-1.7793,0.0,0.0,0.0,0.0,0.0,0.0,0.0,0.0,0.0,0.0,0.0,0.0,-1.1037,-1.2397,-1.3915,-1.5871,-1.6439,-1.6239,-1.5143,-1.3658,0.0,0.0,0.0,-0.8336,-0.8986,-1.0286,-1.2322,-1.5097,-1.8143,-1.9844,-2.0304,-2.1836,-2.2987,-2.3769,-2.3767,-2.2711,-2.0858,-1.956,-1.8231,-1.6794,0.0,0.0,0.0,0.0,0.0,0.0,0.0,0.0,0.0,0.0,0.0,0.0,0.0,0.0,0.0,0.0,0.0,0.0,0.0,0.0,0.0,0.0,0.0,0.0,0.0,0.0,0.0,0.0,0.0,0.0,0.0,0.0,0.0,0.0,0.0,0.0,0.0,-1.6036,-1.7433,-1.8276,-1.9506,-1.9728,0.0,0.0,0.0,0.0,0.0,0.0,-2.1217,-2.2384,-2.3211,-2.3655,-2.4929,-2.5821,-2.6262,-2.6495,-2.7035,-2.7905,-2.7718,-2.8076,-2.8837,-2.8248,-2.7963,-2.7894,-2.6356,-2.6066,-2.6576,-2.5421,-2.4732,-2.4303,-2.3442,-2.2309,-2.1234,-2.1893,-2.1445,-2.0821,0.0,0.0,0.0,0.0,0.0,0.0,0.0,0.0,0.0,0.0,0.0,-1.0196,-1.3542,-1.3985,-1.5037,-1.7563,-1.7122,-1.6992,-1.7654,-1.462,-1.3126,-1.3872,-1.0707,-0.8957,-0.8989,-1.1484,-1.4414,-1.7793,-1.9648,-2.1347,-2.2928,-2.3845,-2.4745,-2.5566,-2.5566,-2.5507,-2.5212,-2.2746,-2.1622,-2.1179,-1.7804,0.0,0.0,0.0,0.0,0.0,0.0,0.0,0.0,0.0,0.0,0.0,0.0,0.0,0.0,0.0,0.0,0.0,0.0,0.0,0.0,0.0,0.0,0.0,0.0,0.0,0.0,0.0,0.0,0.0,0.0,0.0,0.0,0.0,0.0,0.0,0.0,0.0,0.0,-2.0911,-2.3127,0.0,0.0,0.0,0.0,-2.1498,-2.213,-2.2972,-2.3946,-2.5619,-2.6202,-2.548,-2.7854,-2.88,-2.8073,-2.8885,-2.9737,-3.0585,-2.9764,-2.9827,-3.0669,-3.063,-3.0618,-3.057,-2.9634,-2.9266,-2.8996,-2.4903,-2.3695,-2.4317,-2.3441,-2.3049,-2.2964,-2.3015,-2.3497,-2.4268,0.0,0.0,0.0,0.0,0.0,0.0,0.0,0.0,-0.6706,-0.7585,-0.9881,-1.2551,-1.5461,-1.7231,-1.9256,-2.1857,-2.1312,-2.0467,-1.9623,-1.6909,-1.5207,-1.4948,-1.2697,-1.2226,-1.3916,-1.5973,-1.789,-1.9668,-2.1948,-2.3643,-2.4795,-2.5664,-2.654,-2.7366,-2.7377,-2.7673,-2.8004,-2.4842,-2.349,-2.3224,-2.0355,-1.8506,0.0,0.0,0.0,0.0,0.0,0.0,0.0,0.0,0.0,0.0,0.0,0.0,0.0,0.0,0.0,0.0,0.0,0.0,0.0,0.0,0.0,0.0,0.0,0.0,0.0,0.0,0.0,0.0,0.0,0.0,0.0,0.0,0.0,0.0,0.0,0.0,0.0,-2.276,-2.4581,0.0,-2.3545,-2.3922,-2.4415,-2.4793,-2.4598,-2.4872,-2.5812,-2.6507,-2.6735,-2.6442,-2.7315,-2.7657,-2.7376,-2.7678,-2.801,-2.8369,-2.861,-2.9185,-3.001,-2.9458,-2.9191,-2.9144,-2.827,-2.7565,-2.6932,-2.5395,-2.5586,-2.6766,-2.593,-2.5281,-2.4762,-2.4762,-2.4619,-2.4526,0.0,0.0,0.0,0.0,0.0,0.0,0.0,0.0,-0.7252,-0.8425,-1.1305,-1.4444,-1.7634,-1.9751,-2.1873,-2.4202,-2.3602,-2.2617,-2.1458,-1.8718,-1.6875,-1.6291,-1.4329,-1.446,-1.7078,-1.8564,-1.9993,-2.1441,-2.3425,-2.5,-2.6149,-2.673,-2.7621,-2.8733,-2.844,-2.8955,-2.9855,-2.6947,-2.5715,-2.5496,-2.2916,-2.1531,-2.0675,0.0,0.0,0.0,0.0,0.0,0.0,0.0,0.0,0.0,0.0,0.0,0.0,0.0,0.0,0.0,0.0,0.0,0.0,0.0,0.0,0.0,0.0,0.0,0.0,0.0,0.0,0.0,0.0,0.0,0.0,0.0,0.0,0.0,0.0,-2.2424,-2.4152,-2.4498,-2.635,-2.7064,-2.5769,-2.6167,-2.6779,-2.7421,-2.6718,-2.6558,-2.7195,-2.7556,-2.7472,-2.6926,-2.776,-2.8067,-2.779,-2.7772,-2.7943,-2.8288,-2.8291,-2.8764,-2.9572,-2.8706,-2.8305,-2.8277,-2.8002,-2.7217,-2.6156,-2.6468,-2.6893,-2.7298,-2.6766,-2.6211,-2.5694,-2.5697,-2.5687,-2.5803,0.0,0.0,0.0,0.0,0.0,0.0,0.0,-0.6585,-0.8323,-1.0022,-1.2522,-1.5758,-1.9999,-2.1288,-2.2533,-2.43,-2.3614,-2.3104,-2.3097,-1.9892,-1.8004,-1.8039,-1.5652,-1.554,-1.8102,-1.9001,-2.0664,-2.3146,-2.4046,-2.5369,-2.7039,-2.7091,-2.8025,-2.9634,-2.8814,-2.9406,-3.0877,-2.9143,-2.8424,-2.8186,-2.5579,-2.4523,-2.4065,0.0,0.0,0.0,0.0,0.0,0.0,0.0,0.0,0.0,0.0,0.0,0.0,0.0,0.0,0.0,0.0,0.0,0.0,0.0,0.0,0.0,0.0,0.0,0.0,0.0,0.0,0.0,0.0,0.0,0.0,0.0,0.0,0.0,-2.3592,-2.4469,-2.5338,-2.6219,-2.8555,-2.9188,-2.686,-2.8161,-2.9148,-2.9206,-2.8443,-2.8031,-2.8102,-2.8883,-2.8579,-2.6985,-2.9371,-3.0288,-2.9464,-2.9414,-2.9819,-3.0657,-2.9015,-2.8686,-2.9494,-2.8633,-2.8254,-2.8301,-2.9153,-2.8541,-2.7017,-2.7874,-2.7214,-2.5694,-2.5701,-2.5693,-2.571,-2.571,-2.675,-2.829,0.0,0.0,0.0,0.0,0.0,0.0,0.0,-0.6585,-0.8106,-0.9214,-1.2686,-1.621,-1.9292,-2.1494,-2.3436,-2.52,-2.3975,-2.3095,-2.3104,-1.9848,-1.8231,-1.8902,-1.9422,-2.0321,-2.1661,-2.2558,-2.3335,-2.4037,-2.5559,-2.6847,-2.7962,-2.9194,-3.0345,-3.1435,-3.1825,-3.2257,-3.2648,-3.1529,-3.1061,-3.0833,-2.8268,-2.724,-2.6954,0.0,0.0,0.0,0.0,0.0,0.0,0.0,0.0,0.0,0.0,0.0,0.0,0.0,0.0,0.0,0.0,0.0,0.0,0.0,0.0,0.0,0.0,0.0,0.0,0.0,0.0,0.0,0.0,0.0,0.0,0.0,-2.3037,-2.4633,-2.6016,-2.7003,-2.7929,-2.8852,-2.9631,-2.987,-2.9302,-2.9728,-2.9817,-2.9245,-2.8442,-2.8028,-2.8106,-2.7776,-2.7673,-2.7829,-2.7978,-2.8225,-2.8629,-2.7384,-2.7173,-2.8037,-2.6947,-2.6874,-2.7719,-2.7464,-2.7357,-2.7363,-2.7617,-2.7087,-2.6085,-2.6312,-2.6136,-2.5709,-2.5705,-2.5701,-2.5696,-2.5696,-2.637,-2.7386,0.0,0.0,0.0,0.0,0.0,0.0,0.0,-0.6586,-0.8148,-0.9377,-1.295,-1.6395,-1.9013,-2.1246,-2.3104,-2.4498,-2.3355,-2.2393,-2.2032,-1.947,-1.899,-2.1333,-2.135,-2.2032,-2.3602,-2.4132,-2.4573,-2.4935,-2.6323,-2.7632,-2.8879,-2.984,-3.0933,-3.2124,-3.2631,-3.306,-3.337,-3.2862,-3.2648,-3.2524,-3.1028,-2.9994,-2.9166,-2.7401,-2.6665,-2.6416,-2.5513,-2.5243,-2.5124,-2.376,0.0,0.0,0.0,0.0,0.0,0.0,0.0,0.0,0.0,0.0,0.0,0.0,0.0,0.0,0.0,0.0,0.0,0.0,0.0,0.0,0.0,0.0,0.0,0.0,-2.4525,-2.6091,-2.8022,-2.852,-2.9014,-2.9912,-3.0079,-3.0046,-2.9826,-2.9867,-2.955,-2.8763,-2.7945,-2.7508,-2.7557,-2.7146,-2.7138,-2.7639,-2.7554,-2.7761,-2.8285,-2.766,-2.7393,-2.7542,-2.7403,-2.7227,-2.6993,-2.7004,-2.6796,-2.6482,-2.6836,-2.6502,-2.5751,-2.649,-2.6351,-2.5707,0.0,0.0,0.0,0.0,-2.6535,-2.7017,0.0,0.0,0.0,0.0,0.0,0.0,0.0,-0.6491,-0.8208,-1.0069,-1.3106,-1.6139,-1.8859,-2.0572,-2.1954,-2.3007,-2.2299,-2.1516,-2.0834,-1.9302,-2.0213,-2.4227,-2.2333,-2.2276,-2.4644,-2.4791,-2.5215,-2.5993,-2.6876,-2.8084,-2.9601,-2.9784,-3.0726,-3.2248,-3.2248,-3.2792,-3.3688,-3.3476,-3.3451,-3.3539,-3.3446,-3.2463,-3.0923,-2.9379,-2.9273,-2.981,-2.8934,-2.8193,-2.7465,-2.6437,0.0,0.0,0.0,0.0,0.0,0.0,0.0,0.0,0.0,0.0,0.0,0.0,0.0,0.0,0.0,0.0,0.0,0.0,0.0,0.0,0.0,0.0,0.0,0.0,-2.5901,-2.7229,-2.9515,-2.9266,-2.9121,-2.9908,-3.0018,-2.9786,-2.9171,-2.9074,-2.8801,-2.8191,-2.7319,-2.6857,-2.6941,-2.6923,0.0,0.0,0.0,-2.8228,-2.858,-2.9068,-2.9062,-2.859,-2.9189,-2.8598,-2.6997,-2.7108,-2.6677,-2.5885,-2.6658,-2.662,-2.6103,-2.7569,-2.7295,-2.5964,-2.5787,-2.5707,-2.5806,-2.6679,-2.7069,-2.7149,0.0,0.0,0.0,0.0,0.0,0.0,0.0,-0.5985,-0.7524,-0.998,-1.2043,-1.4569,-1.7894,-1.9161,-2.0675,-2.2901,-2.2294,-2.2037,-2.2564,-2.165,-2.2067,-2.4303,-2.4601,-2.5266,-2.6472,-2.7184,-2.763,-2.7798,-2.8667,-2.9266,-2.9637,-3.0975,-3.2155,-3.3159,-3.3142,-3.402,-3.5402,-3.3994,-3.3812,-3.4387,-3.3672,-3.3207,-3.2862,-3.2517,-3.2498,-3.2526,-3.1601,-3.1611,-3.1819,-3.0229,-2.9435,-2.8725,-2.6517,-2.5089,0.0,0.0,0.0,0.0,0.0,0.0,0.0,0.0,0.0,0.0,0.0,0.0,0.0,0.0,0.0,0.0,0.0,0.0,0.0,-2.6583,-2.7821,-2.8829,-2.9956,-2.9493,-2.9289,-2.992,-2.9499,-2.9143,-2.911,-2.853,-2.8405,-2.9004,-2.7693,-2.7195,-2.7882,-2.7273,-2.725,-2.8008,-2.7513,-2.8227,-3.0307,-2.8455,-2.8476,-3.0371,-2.914,0.0,-2.7011,-2.7733,-2.7571,-2.6763,-2.6923,-2.7299,-2.7772,-2.7396,-2.7477,-2.7656,-2.6241,-2.5693,-2.5815,-2.6674,-2.7432,-2.8051,0.0,0.0,0.0,0.0,0.0,0.0,0.0,-0.5848,-0.7173,-0.9357,-1.1149,-1.3175,-1.5765,-1.6836,-1.7857,-1.9136,-1.9641,-2.0618,-2.2337,-2.1655,-2.2557,-2.5566,-2.4852,-2.5419,-2.7602,-2.7641,-2.8076,-2.8943,-2.9389,-2.9818,-3.023,-3.15,-3.2321,-3.2792,-3.3652,-3.453,-3.5312,-3.4882,-3.4953,-3.5308,-3.4872,-3.4446,-3.4059,-3.4051,-3.4018,-3.3999,-3.3949,-3.3959,-3.3801,-3.2909,-3.1986,-3.0974,-2.9735,-2.8122,-2.6298,0.0,0.0,0.0,0.0,0.0,0.0,0.0,0.0,0.0,0.0,0.0,0.0,0.0,0.0,-2.3477,-2.5229,0.0,-2.5677,-2.7891,-2.8637,-2.939,-3.0674,-3.0196,-2.9813,-3.0117,-2.9468,-2.9037,-2.9137,-2.882,-2.862,-2.8696,-2.7995,-2.7561,-2.7604,-2.7573,-2.7581,-2.7651,-2.7641,-2.8055,-2.8886,-2.8502,-2.8515,-2.8953,-2.9365,-2.9109,-2.8328,-2.876,-2.8485,-2.7639,-2.7645,-2.7648,-2.765,-2.7659,-2.8168,-2.8783,-2.7031,-2.6345,-2.634,-2.6346,-2.6893,-2.7652,0.0,0.0,0.0,0.0,0.0,0.0,0.0,-0.569,-0.6765,-0.8522,-0.996,-1.1541,-1.3384,-1.4225,-1.492,-1.5582,-1.724,-1.9331,-2.1895,-2.129,-2.2596,-2.6579,-2.4729,-2.5006,-2.7975,-2.769,-2.8182,-2.9609,-2.9764,-3.0252,-3.1071,-3.1775,-3.2283,-3.2654,-3.3725,-3.448,-3.4984,-3.5348,-3.5584,-3.5745,-3.574,-3.5232,-3.4452,-3.4456,-3.4402,-3.4438,-3.4978,-3.46,-3.3854,-3.3779,-3.2906,-3.1835,-3.1873,-3.052,-2.8599,-2.697,-2.5595,0.0,0.0,0.0,0.0,0.0,0.0,0.0,0.0,-2.3803,-2.4763,-2.6203,-2.6143,-2.6356,-2.7989,-2.7714,-2.7742,-2.9283,-2.9634,-3.0196,-3.1603,-3.1123,-3.0648,-3.0814,-2.9813,-2.9126,-2.9207,-2.9289,-2.9198,-2.8876,-2.8607,-2.8316,-2.8002,-2.8283,-2.8228,-2.7741,-2.8275,-2.8367,-2.7996,-2.9058,-2.9059,-2.8002,-2.9893,-3.0367,-2.9581,-2.9589,-2.9101,-2.8301,-2.8465,-2.8055,-2.7329,-2.8357,-2.9194,-2.9687,-2.8096,-2.75,-2.7379,-2.6347,-2.6602,-2.748,0.0,0.0,0.0,0.0,0.0,0.0,0.0,0.0,-0.5865,-0.7625,-0.8012,-0.9064,-1.1523,-1.1889,-1.3175,-1.6284,-1.8159,-2.0231,-2.2795,-2.2149,-2.2912,-2.5728,-2.557,-2.5945,-2.7121,-2.8569,-2.9394,-2.9606,-3.038,-3.1175,-3.1955,-3.2051,-3.2929,-3.4354,-3.2988,-3.3671,-3.5759,-3.432,-3.4137,-3.4843,-3.4849,-3.4312,-3.3554,-3.3554,-3.3548,-3.3454,-3.2766,-3.1963,-3.1207,-3.115,-3.146,-3.19,-3.1906,-3.2173,-3.2193,-3.051,-2.8308,-2.6187,-2.5112,-2.3308,-2.2238,-2.4341,-2.3739,-2.4007,0.0,-2.8654,-2.7975,-3.1168,-3.0629,-2.9879,-3.0863,-3.1019,-3.1085,-3.1345,-3.2035,-3.2629,-3.2896,-3.2183,-3.1912,-3.2694,-3.0593,-2.9156,-2.9273,-2.935,-2.9991,-3.1443,-3.0185,-2.9983,-3.1457,-3.0157,-2.9679,-3.0348,-2.9775,-3.0116,-3.1521,-3.0255,-3.0255,-3.1515,-3.1035,-3.0352,-2.951,-2.952,-2.9074,-2.833,-2.9065,-2.8902,-2.8275,-2.9861,-3.059,-3.0576,-2.9603,-2.9259,-2.9113,-2.746,-2.7891,-2.9199,0.0,0.0,0.0,0.0,0.0,0.0,0.0,0.0,0.0,-0.6782,-0.6944,-0.7744,-0.9817,-1.0456,-1.175,-1.4202,-1.6483,-1.8886,-2.1476,-2.2218,-2.3721,-2.6333,-2.5475,-2.6062,-2.8467,-2.8738,-2.9331,-3.0351,-3.072,-3.105,-3.1339,-3.1376,-3.2031,-3.3168,-3.2433,-3.2985,-3.4432,-3.371,-3.3604,-3.3905,-3.3396,-3.269,-3.189,-3.1348,-3.0521,-2.989,-3.1519,-3.1539,0.0,-3.0711,-3.0586,-3.0622,-3.1599,-3.1079,-3.0085,-2.9892,-2.8714,-2.7594,-2.824,-2.7218,-2.6343,-2.7879,-2.8411,-2.9065,-3.1098,-3.1071,-3.1191,-3.3116,-3.2177,-3.1276,-3.2154,-3.1924,-3.1616,-3.1742,-3.2871,-3.3608,-3.316,-3.2783,-3.2512,-3.2406,-3.0956,-3.0192,-3.0759,-3.0863,-3.1009,-3.1273,-3.1592,-3.1633,-3.1367,-3.161,-3.1694,-3.1558,-3.123,-3.1168,-3.1403,-3.0665,-3.0398,-3.059,-3.0723,-3.0876,-3.0993,-3.0489,-2.979,-2.8954,-2.832,-2.8142,-2.8343,-2.9065,-2.9357,-2.9263,-2.8385,-2.8369,-2.8767,-2.8037,-2.8533,-2.9551,0.0,0.0,0.0,0.0,0.0,0.0,0.0,0.0,0.0,0.0,-0.6044,-0.671,-0.8449,-0.9359,-1.0536,-1.229,-1.4607,-1.7091,-1.9702,-2.1459,-2.3545,-2.6177,-2.5301,-2.6044,-2.8818,-2.85,-2.9031,-3.0546,-3.0546,-3.0742,-3.115,-3.121,-3.1674,-3.2455,-3.2207,-3.2578,-3.3375,-3.2907,-3.27,-3.263,-3.1756,-3.0761,-2.9746,-2.907,-2.7906,-2.6981,-2.9702,-2.9961,-2.9012,-2.8955,-2.8819,-2.8903,-3.0125,-2.9356,-2.8158,-2.904,-2.8684,-2.8222,-2.9245,-2.9332,-2.9338,-3.0205,-3.1503,-3.2538,-3.2391,-3.2648,-3.3147,-3.3993,-3.3013,-3.2128,-3.2512,-3.2293,-3.1969,-3.1853,-3.3032,-3.3776,-3.3209,-3.3122,-3.29,-3.2337,-3.1518,-3.1224,-3.1875,-3.1967,-3.1773,-3.1198,-3.2322,-3.2592,-3.1565,-3.2492,-3.2963,-3.2826,-3.2343,-3.1931,-3.158,-3.1058,-3.0479,-2.9874,-3.0508,-3.1129,-3.1714,-3.0837,-2.9985,-2.9093,-2.7891,-2.7716,-2.8307,-2.8281,-2.8278,-2.82,-2.7576,-2.7738,-2.8293,-2.8303,-2.8841,-2.9628,0.0,0.0,0.0,0.0,0.0,0.0,0.0,0.0,0.0,0.0,0.0,0.0,0.0,-0.8464,-0.9649,-1.1398,-1.3167,-1.5286,-1.7905,-1.9653,-2.1757,-2.4362,-2.524,-2.6104,-2.7067,-2.7881,-2.8735,-2.9632,-2.9641,-3.0467,-3.2051,-3.205,-3.2539,-3.332,-3.2477,-3.2586,-3.3295,-3.1677,-3.0977,-3.0899,-3.004,-2.8645,-2.7129,-2.7088,-2.6513,-2.5866,-2.6732,-2.6007,-2.4576,-2.4516,-2.5554,-2.6903,-2.7019,-2.7484,-2.8175,-2.9032,-2.8681,-2.7826,-2.7036,-2.7972,-2.9409,-3.0289,-3.1127,-3.2166,-3.3832,-3.3585,-3.3241,-3.4101,-3.3635,-3.2808,-3.1978,-3.2501,-3.2803,-3.2019,-3.258,-3.3161,-3.3178,-3.3192,-3.3188,-3.3161,-3.2448,-3.1975,-3.2,-3.1994,-3.2018,-3.2051,-3.2099,-3.2487,-3.3285,-3.2563,-3.2898,-3.4569,-3.2985,-3.2489,-3.332,-3.1653,-3.0796,-3.0768,-3.0781,-3.0817,-3.0817,-2.9943,-2.9107,-2.8332,-2.8278,-2.8291,-2.8291,-2.8221,-2.8197,-2.8201,-2.817,-2.822,-2.8293,-2.8293,-2.8857,-2.9728,0.0,0.0,0.0,0.0,0.0,0.0,0.0,0.0,0.0,0.0,0.0,0.0,0.0,0.0,0.0,0.0,-1.2223,-1.4344,-1.6963,-1.8742,-2.0859,-2.3431,-2.4372,-2.578,-2.7812,-2.7575,-2.8156,-2.9595,-2.9029,-2.9031,-2.9562,-2.8992,-2.9189,-2.9973,-2.9101,-2.9197,-2.9977,-2.9411,-2.8843,-2.8231,-2.7368,-2.6317,-2.5271,-2.5272,-2.4035,-2.2424,0.0,-2.3527,-2.3449,-2.2847,-2.3023,-2.3679,-2.4818,-2.4561,-2.409,-2.5557,-2.6151,-2.6776,-2.8811,-2.976,-3.0671,-3.26,-3.3326,-3.3848,-3.4971,-3.5007,-3.4707,-3.4418,-3.3683,-3.2668,-3.1263,-3.1233,-3.1172,-3.0377,-3.1437,-3.2182,-3.1617,-3.2538,-3.2849,-3.167,-3.1806,-3.1793,-3.1254,-3.1207,-3.1217,-3.1242,-3.2307,-3.2849,-3.2557,-3.335,-3.4083,-3.4677,-3.3003,-3.2519,-3.3397,-3.1714,-3.0866,-3.0875,-3.0813,-3.0807,-3.0758,-2.9338,-2.8853,-2.9035,-2.7914,-2.7777,-2.8249,-2.7647,-2.739,-2.7358,-2.677,-2.6559,-2.6721,-2.7874,-2.8486,-2.886,0.0,0.0,0.0,0.0,0.0,0.0,0.0,0.0,0.0,0.0,0.0,0.0,0.0,0.0,0.0,0.0,0.0,-1.2738,-1.4703,-1.7056,-1.9236,-2.1181,-2.2713,-2.4297,-2.5976,-2.5153,-2.5716,-2.7746,-2.6566,-2.6468,-2.7352,-2.6798,-2.6837,-2.735,-2.6795,-2.6855,-2.7343,-2.7031,-2.658,-2.597,-2.4813,-2.3818,-2.3005,-2.2695,-2.1362,0.0,-1.9897,-2.0338,-2.074,-2.0165,-2.0581,-2.1515,-2.261,-2.3234,-2.3714,-2.4529,-2.5544,-2.7058,-2.9911,-3.0909,-3.1658,-3.3876,-3.4699,-3.5096,-3.563,-3.5485,-3.501,-3.4147,-3.3061,-3.182,-3.0432,-2.9943,-2.9673,-2.9447,-3.0607,-3.1449,-3.1234,-3.2415,-3.2882,-3.181,-3.216,-3.2302,-3.1787,-3.1447,-3.1135,-3.0818,-3.2409,-3.2872,-3.1698,-3.2982,-3.3773,-3.376,-3.242,-3.2226,-3.3397,-3.2029,-3.1324,-3.1335,-3.1292,-3.1109,-3.0807,-2.9715,-2.9506,-2.9918,-2.8527,-2.8254,-2.8706,-2.7819,-2.7279,-2.6937,-2.6384,-2.5969,-2.5871,-2.7301,-2.7837,-2.8058,0.0,0.0,0.0,0.0,0.0,0.0,0.0,0.0,0.0,0.0,0.0,0.0,0.0,0.0,0.0,0.0,0.0,0.0,-1.1377,-1.4563,-1.6848,-1.776,-2.0266,-2.1678,-2.1756,-2.0969,-2.175,-2.4275,-2.2568,-2.3018,-2.5448,-2.5439,-2.5437,-2.5444,-2.5448,-2.5449,-2.5382,-2.4566,-2.4176,-2.4,-2.2413,-2.1245,-2.0371,-1.9609,-1.8729,-1.7835,-1.7049,-1.6731,-1.6705,-1.6798,-1.8542,-2.0698,-2.0686,-2.3514,-2.6675,-2.5904,-2.687,-2.8528,-3.025,-3.1351,-3.2431,-3.4097,-3.5166,-3.5788,-3.5745,-3.5096,-3.4237,-3.3269,-3.1778,-3.0354,-2.9387,-2.8618,-2.839,-2.9149,-3.0082,-3.1028,-3.1971,-3.2828,-3.3359,-3.3395,-3.3439,-3.3458,-3.34,-3.2684,-3.187,-3.0997,-3.2471,-3.2677,-3.1025,-3.1716,-3.2168,-3.2168,-3.1378,-3.1756,-3.3379,-3.2578,-3.2168,-3.2165,-3.2118,-3.1721,-3.1018,-3.0882,-3.0882,-3.0903,-3.0001,-2.9611,-2.9591,-2.8711,-2.7845,-2.7051,-2.7028,-2.6498,-2.5871,-2.6757,-2.7088,-2.7485,0.0,0.0,0.0,0.0,0.0,0.0,0.0,0.0,0.0,0.0,0.0,0.0,0.0,0.0,0.0,0.0,0.0,0.0,-1.0445,-1.1961,-1.3496,-1.5028,-1.6971,-1.8621,-1.9939,-1.9759,-2.0597,-2.2533,-2.1441,-2.1246,-2.1909,-2.1893,-2.1893,-2.1892,-2.1893,-2.1894,-2.1883,-2.165,-2.1183,-2.0557,-2.0126,-1.9445,-1.8708,-1.914,-1.8359,-1.7084,-1.7525,-1.7259,-1.6887,-1.8136,-2.0698,-2.3329,-2.333,-2.453,-2.6024,-2.6447,-2.779,-2.9386,-3.0477,-3.2308,-3.4027,-3.4464,-3.523,-3.5691,-3.5055,-3.4731,-3.3978,-3.1845,-3.0561,-2.9141,-2.6962,-2.6933,-2.7294,-2.7498,-2.9362,-3.1076,-3.1977,-3.3345,-3.4047,-3.3468,0.0,-3.4062,-3.3468,-3.3736,-3.3614,-3.2796,-3.3154,-3.3204,-3.2755,-3.2943,-3.3066,-3.3068,-3.2231,-3.2311,-3.3389,-3.317,-3.3078,-3.3066,-3.2402,-3.2324,-3.2695,-3.08,-3.0604,-3.1717,-3.0233,-2.994,-3.0428,-2.9608,-2.8749,-2.7891,-2.7246,-2.6855,-2.6777,-2.7656,-2.8359,-2.9042,0.0,0.0,0.0,0.0,0.0,0.0,0.0,0.0,0.0,0.0,0.0,0.0,0.0,0.0,0.0,0.0,0.0,0.0,0.0,-0.9707,-1.1001,-1.2321,-1.3699,-1.5054,-1.6426,-1.6077,-1.6725,-1.8485,-1.7631,-1.7594,-1.8318,-1.8318,-1.832,-1.8339,-1.871,-1.8672,-1.8375,-1.9134,-1.8957,0.0,0.0,-1.7868,-1.7441,-1.7558,-1.699,-1.6183,-1.6686,-1.7534,0.0,0.0,0.0,-2.4529,-2.5649,-2.6865,-2.8048,-2.8933,-2.9866,-3.0829,-3.1699,-3.2712,-3.3594,-3.3989,-3.4447,-3.4578,-3.3701,-3.3204,-3.2316,-3.0116,-2.8676,-2.7255,-2.5381,-2.5764,-2.6494,0.0,0.0,0.0,-3.2552,-3.4116,-3.5012,0.0,-3.4905,0.0,-3.4573,-3.4915,-3.5003,-3.4564,-3.4542,-3.4215,-3.3434,-3.376,-3.3807,-3.3417,-3.2929,-3.3088,-3.3951,-3.4354,-3.4161,-3.3389,-3.2901,-3.2531,-3.2241,-3.0816,-3.0679,-3.152,-3.0582,-3.0404,-3.0754,-3.0304,-2.9601,-2.8781,-2.8286,-2.7878,-2.7665,-2.8522,-2.9118,-2.9614,0.0,0.0,0.0,0.0,0.0,0.0,0.0,0.0,0.0,0.0,0.0,0.0,0.0,0.0,0.0,0.0,0.0,0.0,0.0,0.0,0.0,-0.9839,-1.0686,-1.1505,-1.2276,-1.1659,-1.2124,-1.3751,-1.305,-1.3529,-1.5058,-1.5168,-1.5173,-1.5109,-1.5976,-1.5878,-1.5175,-1.6679,-1.6951,-1.6347,-1.6347,-1.6426,-1.6443,0.0,-1.5398,-1.543,-1.5665,0.0,0.0,0.0,-2.4177,-2.5469,-2.769,-2.9576,-3.1096,-3.175,-3.2003,-3.2237,-3.2884,-3.2674,-3.2436,-3.3067,-3.3317,-3.3141,-3.2147,-3.1241,-3.0102,-2.8242,-2.6533,-2.5068,-2.4131,-2.481,-2.5781,-2.6599,0.0,-3.227,-3.3249,-3.4745,-3.5777,-3.589,-3.5899,-3.5919,-3.5986,-3.5938,-3.5914,-3.5981,-3.5986,-3.5342,-3.3824,-3.4348,-3.4354,-3.3593,-3.3573,-3.3986,-3.4853,-3.5625,-3.523,-3.3749,-3.3515,-3.2753,-3.1563,-3.1109,-3.1089,-3.1387,-3.1036,-3.0989,-3.1133,-3.0898,-3.0349,-2.9663,-2.9542,-2.9071,-2.8544,-2.9242,-2.9576,-2.9755,0.0,0.0,0.0,0.0,0.0,0.0,0.0,0.0,0.0,0.0,-0.5088,-0.5088,0.0,0.0,0.0,0.0,0.0,0.0,0.0,0.0,0.0,0.0,-0.8912,-0.9446,-0.9659,-1.0166,-1.0927,-1.1942,-1.1874,-1.2306,-1.3276,-1.3985,-1.3972,-1.3373,-1.4189,-1.4091,-1.3352,-1.3669,-1.4079,-1.4547,-1.4546,-1.4974,-1.5619,-1.5461,0.0,0.0,0.0,0.0,0.0,0.0,-2.675,-2.8696,-2.9133,-3.0462,-3.1769,-3.1198,-3.1535,-3.1987,-3.1401,-3.2185,-3.3044,-3.2466,-3.2872,-3.2989,-3.1383,-3.0357,0.0,-2.6633,-2.4767,-2.3272,-2.2399,-2.3548,-2.4912,-2.5761,-2.8797,-3.1563,-3.3103,-3.4194,-3.5095,0.0,-3.5899,-3.5924,-3.5994,-3.5942,-3.589,-3.5914,-3.5962,-3.5873,-3.5568,-3.5012,-3.4627,-3.4471,-3.4471,-3.4881,-3.5759,-3.5916,-3.5854,-3.5522,-3.41,-3.4003,-3.502,-3.2187,-3.2051,-3.3925,-3.1758,-3.1636,-3.2837,-3.1396,-3.0707,-3.0501,-2.978,-2.9409,-2.9308,-2.9455,-2.9922,-3.0502,0.0,0.0,0.0,0.0,0.0,0.0,0.0,-0.5105,-0.5108,-0.5108,-0.8204,-0.9062,-0.5486,-0.5095,-0.5098,0.0,0.0,0.0,0.0,0.0,0.0,0.0,0.0,0.0,-0.8271,-0.9099,-0.9719,-1.0149,0.0,-1.1071,-1.1456,-1.1903,-1.1911,-1.1583,-1.2426,-1.2335,-1.1638,-1.2967,-1.3513,-1.3551,-1.4431,-1.5035,-1.5402,0.0,0.0,0.0,0.0,0.0,0.0,0.0,-2.5336,-2.8509,-3.029,-3.1425,-3.2115,-3.2143,-3.2129,-3.2109,-3.2148,-3.2129,-3.2109,-3.2107,-3.173,-3.1042,-2.9787,0.0,0.0,-2.4797,-2.3329,-2.2156,-2.1279,-2.2549,0.0,-2.4875,-2.7507,-3.0037,-3.1768,-3.3147,-3.4296,-3.5169,-3.5646,-3.5924,-3.599,-3.5938,-3.5914,-3.5958,-3.5981,-3.5986,-3.5947,-3.5584,-3.5376,-3.5376,-3.5376,-3.5571,-3.5997,-3.5997,-3.5767,-3.5318,-3.4479,-3.4284,-3.4596,-3.2957,-3.2625,-3.3301,-3.2502,-3.2377,-3.2682,-3.2268,-3.1854,-3.1432,-3.0979,-3.0526,-3.0112,-3.0125,-3.0348,-3.0644,0.0,0.0,0.0,0.0,0.0,0.0,0.0,-0.6972,-0.8107,-0.7379,-1.1965,-1.382,-0.99,-0.6824,-0.5074,0.0,0.0,0.0,0.0,0.0,0.0,0.0,0.0,0.0,0.0,0.0,0.0,-0.8916,-0.9591,0.0,0.0,0.0,0.0,0.0,-1.1191,-1.1084,-1.0428,-1.2615,-1.318,0.0,0.0,-1.5114,0.0,0.0,0.0,0.0,0.0,0.0,0.0,0.0,-2.2708,-2.596,-2.9374,-3.1077,-3.1923,-3.2439,-3.2226,-3.2031,-3.2892,-3.2031,-3.1094,-3.1892,-3.0933,-2.9542,-2.8522,-2.6955,0.0,-2.3465,-2.2104,-2.109,-2.0597,-2.162,-2.2951,0.0,-2.6243,-2.8408,-3.0501,-3.2133,-3.3517,-3.454,-3.5407,0.0,-3.5981,-3.5934,-3.5914,-3.5962,-3.5977,-3.5958,-3.5914,-3.5962,-3.6005,-3.6005,-3.6005,-3.6005,-3.6005,-3.6005,-3.5654,-3.4991,-3.4792,-3.4441,-3.3934,-3.3372,-3.2939,-3.2634,-3.2771,-3.2669,-3.2382,-3.2649,-3.2483,-3.2044,-3.1812,-3.13,-3.0691,-3.0471,-3.0474,-3.0563,0.0,0.0,0.0,0.0,0.0,0.0,0.0,-1.3016,-1.7871,-1.4766,-1.4919,-1.7437,-2.3016,-1.2435,-0.4973,0.0,0.0,0.0,0.0,0.0,0.0,0.0,0.0,0.0,0.0,0.0,0.0,-0.8991,-0.9012,0.0,0.0,0.0,0.0,0.0,0.0,-1.1038,-1.0279,-1.1293,0.0,0.0,0.0,0.0,0.0,0.0,0.0,0.0,0.0,0.0,0.0,0.0,0.0,-2.0603,-2.4024,-2.7771,-3.0785,-3.0147,0.0,0.0,-3.1999,-3.1567,-3.1092,-3.1906,-3.1421,-3.0348,-2.8675,0.0,-2.5219,-2.3455,-2.1149,-1.9662,-2.0363,-2.0636,-2.1533,-2.4007,-2.5255,-2.7078,-3.0336,-3.1617,-3.2815,-3.4413,0.0,0.0,-3.5981,-3.5934,-3.5909,-3.5909,-3.5899,-3.5924,-3.5981,-3.6005,-3.6005,-3.6005,-3.6005,-3.6005,-3.6005,-3.6005,-3.5962,-3.588,-3.5076,-3.5076,-3.568,-3.3301,-3.3009,-3.4252,-3.201,-3.1865,-3.3083,-3.1631,-3.1421,-3.1929,-3.1132,-3.0769,-3.0593,-2.9745,-2.9923,-3.0477,0.0,0.0,0.0,0.0,0.0,0.0,-0.4993,-1.3649,-1.9723,-1.8371,-1.8201,-1.9268,-2.2053,-1.3791,-0.7206,-0.5157,0.0,0.0,0.0,0.0,0.0,0.0,0.0,0.0,0.0,0.0,-0.8961,-0.8948,-0.943,0.0,0.0,0.0,0.0,0.0,0.0,-1.052,-1.0256,-1.1135,0.0,0.0,0.0,0.0,0.0,0.0,0.0,0.0,0.0,0.0,-1.6309,-1.7142,0.0,0.0,-2.0285,-2.2806,0.0,0.0,-2.9439,-3.0417,-3.1743,-3.1506,-3.1092,-3.1906,-3.0716,-2.9015,-2.7748,0.0,-2.3637,-2.1883,-2.0324,-1.9353,-1.9656,-1.9331,-1.984,-2.2429,-2.2682,-2.3598,-2.6537,-2.813,-2.9805,-3.2051,-3.3507,-3.4753,-3.5846,-3.5919,-3.5899,-3.5899,-3.5903,-3.5903,-3.5943,-3.5943,-3.5943,-3.5943,-3.5943,-3.5943,-3.5943,-3.5943,-3.5943,-3.5938,-3.5588,-3.5607,-3.5899,-3.4867,-3.4472,-3.4544,-3.3536,-3.3175,-3.3251,-3.2583,-3.2175,-3.1955,-3.1564,-3.1096,-3.0599,-3.0225,-3.0287,-3.0405,0.0,0.0,0.0,0.0,0.0,-0.5029,-0.4897,-1.1856,-1.7145,-1.7175,-1.8918,-2.0199,-2.0285,-1.6021,-1.0949,-0.5445,-0.5044,0.0,0.0,0.0,0.0,0.0,0.0,0.0,0.0,0.0,-0.9339,-0.9288,-0.9892,-1.0193,0.0,0.0,-1.0208,-1.0197,0.0,0.0,0.0,0.0,0.0,0.0,0.0,0.0,0.0,0.0,0.0,0.0,0.0,0.0,0.0,0.0,0.0,0.0,0.0,0.0,0.0,0.0,-2.7565,-2.8875,-3.0819,-3.0933,-3.0777,-3.1822,-3.0359,-2.8343,0.0,0.0,-2.2614,-2.0853,-1.9458,-1.8585,-1.8786,-1.8345,-1.8724,-2.1039,-2.112,-2.1805,-2.4424,-2.6007,-2.7775,-3.0137,-3.1904,-3.3521,-3.5012,-3.5611,-3.602,-3.6273,-3.6047,-3.6008,-3.6279,-3.6039,-3.5903,-3.5908,-3.5903,-3.5903,-3.5903,-3.5897,-3.5897,-3.5897,-3.5897,-3.5897,-3.5878,-3.5371,-3.4795,-3.4198,-3.3665,-3.3089,-3.2539,-3.2532,-3.2162,-3.1588,-3.1526,-3.1125,-3.0539,-3.0269,-3.0308,-3.0334,0.0,0.0,0.0,0.0,0.0,0.0,-0.482,-0.7879,-1.0223,-1.0283,-1.6143,-2.0304,-2.0312,-2.0301,-1.6183,-0.5993,-0.5097,0.0,0.0,0.0,0.0,0.0,0.0,0.0,0.0,0.0,-1.0195,-1.0193,-1.0191,-1.0193,-1.0191,-1.0193,-1.0209,-1.0196,0.0,0.0,0.0,0.0,0.0,0.0,0.0,0.0,0.0,0.0,0.0,0.0,0.0,0.0,0.0,0.0,0.0,0.0,0.0,0.0,0.0,0.0,-2.4388,-2.6293,-2.8831,-2.9572,-3.0004,-3.1675,-3.0774,-2.9032,-2.7305,-2.4927,-2.2601,-2.0858,-1.8484,-1.697,-1.7773,-1.7913,-1.8465,-2.023,-2.1223,-2.2707,-2.5329,-2.64,-2.755,0.0,-3.1057,-3.2465,-3.3336,-3.4923,-3.6255,-3.7112,-3.6391,-3.6281,-3.7136,-3.6364,-3.5897,-3.5908,-3.5897,-3.5905,-3.5905,-3.5892,-3.5905,-3.5905,-3.5905,-3.5905,-3.5846,-3.4108,-3.3323,-3.3225,-3.1495,-3.0743,-3.0729,-3.0727,-3.0684,-3.0602,-3.0604,-3.0568,-3.0394,-2.9533,-2.9723,-3.0271,0.0,0.0,0.0,0.0,0.0,0.0,0.0,-0.7983,-1.0234,-1.0269,-1.208,-1.341,-1.3454,-1.767,-1.7267,-0.9291,-0.645,0.0,0.0,0.0,0.0,0.0,0.0,0.0,0.0,0.0,-1.0494,-1.1091,-1.1086,-1.1666,-1.2777,-1.2193,-1.1914,-1.1883,-1.1285,-1.0691,0.0,0.0,0.0,0.0,0.0,0.0,-1.2512,0.0,0.0,0.0,0.0,0.0,0.0,0.0,0.0,0.0,0.0,0.0,0.0,-1.8239,0.0,0.0,-2.49,-2.5576,-2.6038,-2.5963,-2.5531,-2.484,-2.3669,-2.2328,-2.0828,-1.9075,-1.7634,-1.6784,-1.7037,-1.6586,-1.7134,-2.0026,-2.0221,-2.0945,-2.3566,0.0,0.0,-2.9226,-3.2569,-3.4814,-3.5073,-3.5599,-3.6021,-3.6281,-3.6054,-3.6021,-3.6307,-3.6048,-3.5898,-3.5891,-3.5898,-3.5911,-3.5911,-3.5852,-3.5818,-3.5826,-3.5826,-3.5534,-3.5009,-3.5061,-3.4101,-3.2415,-3.2467,-3.1792,-3.0695,-3.0707,-3.0668,-3.0597,-3.055,-3.05,-3.0386,-3.0083,-3.0105,-3.0196,0.0,0.0,0.0,0.0,0.0,0.0,0.0,-0.6804,-0.822,-0.8288,-0.9333,-0.911,-0.6549,-1.0057,-1.0901,-0.6652,-0.6754,0.0,0.0,0.0,0.0,0.0,0.0,0.0,-1.0265,-1.0269,-1.0818,-1.1993,-1.199,-1.2854,-1.4477,-1.3932,-1.3517,-1.3147,-1.228,-1.1415,0.0,0.0,0.0,0.0,0.0,0.0,-1.1677,0.0,0.0,0.0,0.0,0.0,0.0,0.0,0.0,0.0,0.0,0.0,0.0,0.0,-1.809,-2.0904,0.0,-2.2764,-2.3361,-2.3146,-2.2848,0.0,-2.1519,-2.0386,-1.9117,-1.7729,-1.6794,-1.6214,-1.6217,-1.6019,-1.6545,-1.8673,-1.9124,-2.0003,-2.2289,-2.407,-2.634,-2.9566,-3.2888,-3.5048,-3.5373,-3.5704,-3.5892,-3.5905,-3.5885,-3.5866,-3.5905,-3.5872,-3.5852,-3.5866,-3.5852,-3.5872,-3.5905,-3.583,-3.5795,-3.5803,-3.5803,-3.5551,-3.5045,-3.4929,-3.4003,-3.2479,-3.2349,-3.1666,0.0,-3.0668,-3.0606,-3.0491,-3.0133,-2.9965,-2.9871,-2.949,-2.9339,-2.927,0.0,0.0,0.0,0.0,0.0,0.0,0.0,-0.4693,-0.4749,-0.4967,-0.7444,-0.6844,-0.0665,0.001,0.0075,0.0222,0.0,0.0,0.0,0.0,0.0,0.0,0.0,0.0,-1.0254,-1.0302,-1.1123,-1.2792,-1.2859,-1.3779,-1.5482,-1.5545,-1.5067,-1.414,-1.333,-1.2396,-1.1357,-1.0548,-1.0196,-1.0209,-1.0272,-1.0751,0.0,0.0,0.0,0.0,0.0,0.0,0.0,0.0,0.0,0.0,0.0,0.0,0.0,0.0,0.0,0.0,0.0,-2.0689,-2.1625,-2.2374,-2.199,-2.1216,-2.0418,-1.8963,0.0,-1.6843,-1.6004,-1.5397,-1.5397,-1.6,-1.6545,-1.6661,-1.8169,-1.9885,-2.1558,-2.3508,-2.6272,-3.0392,-3.237,-3.3732,-3.4614,-3.5373,-3.5827,-3.5905,-3.5845,-3.5838,-3.5898,-3.5838,-3.5803,-3.5803,-3.5803,-3.583,-3.5898,-3.5834,-3.5791,-3.5791,-3.5791,-3.5752,-3.5655,-3.4076,-3.3289,-3.3014,-3.146,-3.0671,-3.0518,-3.0568,-3.0472,-3.0243,-2.9484,-2.9115,-2.8909,-2.8088,-2.7754,-2.7809,0.0,0.0,0.0,0.0,0.0,0.0,0.0,0.0,0.0,0.0,-0.34,-0.2703,-0.3693,-0.3768,-0.2568,0.0,0.0,0.0,0.0,0.0,0.0,0.0,0.0,0.0,-1.0256,-1.029,-1.1122,-1.2807,-1.3416,-1.4919,-1.7224,-1.7899,-1.7393,-1.5904,-1.5705,-1.4034,-1.1351,-1.0541,-1.0202,-1.0266,-1.0925,-1.0914,0.0,0.0,0.0,0.0,-1.2245,-1.2255,0.0,0.0,0.0,0.0,0.0,0.0,0.0,0.0,-1.3868,-1.4703,-1.4625,0.0,-1.7799,-1.7333,-1.7555,-1.7826,0.0,-1.7239,-1.6905,-1.6665,0.0,-1.5393,-1.5402,-1.5546,-1.6101,-1.7381,-1.9059,-2.0577,-2.1644,-2.5517,-2.9343,-3.2337,-3.3595,-3.4586,-3.5509,-3.5178,-3.5178,-3.5846,-3.5892,-3.5866,-3.5838,-3.5815,-3.5807,-3.5803,-3.5799,-3.581,-3.5815,-3.5801,-3.5765,-3.5727,-3.5727,-3.5359,-3.4739,-3.501,-3.3692,-3.128,-3.2182,-3.1447,-2.9659,-3.0269,-3.0114,-2.9466,-2.9212,-2.8717,-2.8076,-2.7821,-2.7708,-2.7733,0.0,0.0,0.0,0.0,0.0,0.0,0.0,0.0,0.0,0.0,0.0,-0.1987,-0.277,-0.2769,0.0,0.0,0.0,0.0,0.0,0.0,0.0,0.0,0.0,-0.8201,-1.0264,-1.0268,-1.1291,-1.3401,-1.3794,-1.5719,-1.8991,-1.9064,-1.8596,-1.7612,-1.5631,-1.3508,-1.1347,-1.0547,-1.0191,-1.0233,-1.0715,0.0,0.0,0.0,0.0,0.0,-1.1263,-1.1568,0.0,-1.2515,-1.3386,-1.3948,0.0,0.0,0.0,0.0,-1.2826,-1.3407,-1.2935,-1.4708,-1.6483,-1.5628,-1.6038,-1.6638,-1.6603,0.0,0.0,0.0,0.0,0.0,0.0,0.0,-1.6373,-1.7686,-1.9367,-2.1356,-2.38,-2.7173,-3.036,-3.2939,-3.3984,-3.4858,-3.5772,-3.5065,-3.4917,-3.5787,-3.5475,-3.5422,-3.5776,-3.5791,-3.5801,-3.5799,-3.5765,-3.5765,-3.5791,-3.5793,-3.5766,-3.5708,-3.5708,-3.5447,-3.5001,-3.5069,-3.3887,-3.1777,-3.2319,-3.1294,-2.9322,-3.0113,-2.9916,-2.9063,-2.8656,-2.8199,-2.7711,-2.7255,-2.7109,-2.7198,0.0,0.0,0.0,0.0,0.0,0.0,0.0,0.0,0.0,0.0,0.0,0.0,0.0,0.0,0.0,0.0,0.0,0.0,0.0,0.0,0.0,0.0,-0.7317,-0.7773,-1.0081,-1.0199,-1.1421,-1.3892,-1.4097,-1.6184,-1.9985,-1.9774,-1.9465,-1.8892,-1.4739,-1.2343,-1.1366,-1.0547,-1.0194,-1.0194,-1.019,0.0,0.0,0.0,0.0,0.0,0.0,0.0,0.0,-1.2152,-1.3056,-1.3706,-1.2719,0.0,0.0,0.0,0.0,0.0,-1.2756,-1.4707,-1.6444,-1.5452,-1.5916,-1.6572,-1.6429,0.0,0.0,0.0,0.0,0.0,0.0,-1.6253,0.0,-1.7964,-1.9547,-2.2235,-2.667,-2.8398,-3.0156,-3.2699,-3.3652,-3.4456,-3.5324,-3.4734,-3.4598,-3.5356,-3.4847,-3.4831,-3.5585,-3.5599,-3.5668,-3.5803,-3.5718,-3.5727,-3.5782,-3.5784,-3.5757,-3.5679,-3.5553,-3.5553,-3.5659,-3.4768,-3.3916,-3.3045,-3.2299,-3.0993,-2.9438,-3.0125,-2.9778,-2.8759,-2.8068,-2.7616,-2.7235,-2.6479,-2.6249,-2.6376,0.0,0.0,0.0,0.0,0.0,0.0,0.0,0.0,0.0,0.0,0.0,0.0,0.0,0.0,0.0,0.0,0.0,0.0,0.0,0.0,0.0,-0.5787,-0.6379,-0.7476,-0.9326,-0.9971,-1.1176,-1.3001,-1.4407,-1.6131,-1.8178,-2.0943,-2.1081,-1.8862,-1.535,-1.2939,-1.1421,-1.0568,-1.0202,-1.0202,-1.0198,0.0,0.0,0.0,0.0,0.0,0.0,0.0,0.0,-1.055,-1.164,-1.2629,-1.1082,0.0,0.0,0.0,0.0,0.0,-1.2597,-1.4671,-1.6247,-1.4691,-1.5458,-1.6413,-1.5668,0.0,0.0,0.0,0.0,0.0,0.0,-1.7167,-1.7991,-1.8854,-2.0415,-2.3265,-2.83,-2.8599,-2.9266,-3.1868,-3.2241,-3.2648,-3.3592,-3.351,-3.3472,-3.3679,-3.4183,-3.4583,-3.478,-3.4722,-3.5036,-3.5771,-3.5727,-3.5699,-3.5728,-3.5718,-3.5688,-3.5599,-3.4861,-3.4897,-3.5589,-3.4708,-3.384,-3.301,-3.2863,-3.183,-3.0235,-3.0344,-2.9475,-2.8041,-2.7881,-2.6929,-2.5655,-2.5444,-2.5359,-2.5323,0.0,0.0,0.0,0.0,0.0,0.0,0.0,0.0,0.0,0.0,0.0,0.0,0.0,0.0,0.0,0.0,0.0,0.0,0.0,0.0,-0.0834,-0.2422,-0.5855,-0.8382,-0.9765,-1.1017,-1.2146,-1.3187,-1.4569,-1.6784,-1.9769,-2.0875,-2.0057,-1.751,-1.4603,-1.2634,-1.1452,-1.0601,-1.0241,-1.025,0.0,0.0,0.0,0.0,0.0,0.0,0.0,0.0,0.0,0.0,-1.1727,-1.2533,-1.1293,0.0,0.0,0.0,0.0,0.0,-1.1285,-1.3256,-1.5016,-1.4241,-1.5999,-1.7723,-1.6842,-1.6653,0.0,0.0,0.0,0.0,0.0,0.0,-2.0007,-2.228,-2.329,-2.5121,-2.8864,-2.9059,-2.9581,-3.1709,-3.1917,-3.2247,-3.3147,-3.2753,-3.2665,-3.32,-3.3145,-3.332,-3.3818,-3.4251,-3.4475,-3.4398,-3.5233,-3.5253,-3.4292,-3.4737,-3.4939,-3.4886,-3.4005,-3.382,-3.4164,-3.3315,-3.2706,-3.2278,-3.1796,-3.0868,-2.9725,-3.0138,-2.9576,-2.8433,-2.7929,-2.7285,-2.6539,-2.6025,-2.5768,-2.563,0.0,0.0,0.0,0.0,0.0,0.0,0.0,0.0,0.0,0.0,0.0,0.0,0.0,0.0,0.0,0.0,0.0,0.0,0.0,-0.013,0.0,0.0,-0.532,-0.8932,-1.0347,-1.2132,-1.3326,-1.3894,-1.5157,-1.7622,-2.1147,-2.0276,-1.8555,-1.6079,-1.3735,-1.2119,-1.1124,-1.0317,-0.9979,-0.9942,0.0,0.0,0.0,0.0,0.0,0.0,0.0,0.0,0.0,0.0,0.0,0.0,0.0,0.0,0.0,-1.0903,-1.0357,-1.0294,-1.0689,-1.2208,-1.3747,-1.3947,-1.612,-1.8181,-1.8092,-1.7796,-1.768,0.0,0.0,0.0,0.0,-2.0001,-2.208,-2.535,-2.5712,-2.6475,-2.9039,-2.9407,-2.9947,-3.1424,-3.1592,-3.1854,-3.2541,-3.2106,-3.2029,-3.2548,-3.2154,-3.2173,-3.2848,-3.3518,-3.3664,-3.3199,-3.4439,-3.4468,-3.31,-3.3506,-3.3812,-3.3978,-3.2918,-3.2609,-3.2956,-3.1923,-3.1534,-3.1665,-3.0968,-3.0194,-2.9428,-2.9998,-2.9729,-2.8893,-2.802,-2.7453,-2.7007,-2.6327,-2.5969,-2.5859,0.0,0.0,0.0,0.0,0.0,0.0,0.0,0.0,0.0,0.0,0.0,0.0,0.0,0.0,0.0,0.0,0.0,0.0,0.0,0.0056,0.0,0.0,-0.4522,-0.8153,-1.053,-1.2712,-1.4227,-1.508,-1.6661,-1.8374,-2.0173,-1.9315,-1.7573,-1.512,-1.3455,-1.177,-1.0148,-0.9345,-0.8997,-0.8927,-0.8172,0.0,0.0,0.0,0.0,0.0,0.0,0.0,0.0,0.0,0.0,0.0,0.0,0.0,-1.1567,-1.1438,-1.0834,-1.0537,-1.21,-1.2648,-1.2992,-1.3807,-1.4796,-1.6155,-1.8403,-1.7765,0.0,-1.9651,0.0,0.0,-2.1274,-2.2184,-2.3663,-2.6287,-2.6021,-2.6428,-2.9028,-2.9396,-2.971,-3.0585,-3.0701,-3.0711,-3.077,-3.14,-3.1516,-3.0836,-3.1429,-3.1816,-3.1893,-3.2019,-3.2405,-3.3083,-3.3277,-3.3297,-3.3102,-3.2357,-3.2353,-3.3068,-3.1395,-3.1434,-3.294,-3.1198,-3.0891,-3.1688,-3.1571,-3.1021,-3.0216,-3.0273,-2.9742,-2.8815,-2.794,-2.6656,-2.5273,-2.5151,-2.5126,-2.5152,0.0,0.0,0.0,0.0,0.0,0.0,0.0,0.0,0.0,0.0,0.0,0.0,0.0,0.0,0.0,0.0,0.0,0.0,0.0,-0.01,-0.016,-0.0244,-0.1761,-0.2809,-0.3256,-0.9078,-1.3772,-1.7187,-1.8973,-1.9353,-1.8403,-1.8126,-1.6395,-1.3505,-1.2397,-1.1258,-1.0145,-0.9839,-0.9718,-0.9676,-0.9375,-0.943,0.0,0.0,0.0,0.0,0.0,0.0,0.0,0.0,-1.1405,-1.2183,-1.1421,-1.1693,-1.2183,-1.1605,-1.085,-1.0447,-1.157,-1.2661,-1.3523,-1.3859,-1.4593,0.0,0.0,-1.8198,-1.931,-2.0795,-2.1562,-2.2221,-2.3081,-2.3082,-2.3793,-2.6384,-2.6524,-2.7028,-2.9117,-2.9361,-2.9644,-3.0507,-3.0122,-2.9988,-3.0492,-3.082,-3.0868,-3.0569,-3.0829,-3.0984,-3.0994,-3.1536,-3.1739,-3.1545,-3.259,-3.2609,-3.1496,-3.1168,-3.0867,-3.0629,-2.9982,-2.9971,-3.0529,-2.8791,-2.8472,-2.924,-2.8624,-2.846,-2.8632,-2.8618,-2.8393,-2.7928,-2.7077,-2.6037,-2.5037,-2.4945,-2.4936,-2.4832,0.0,0.0,0.0,0.0,0.0,0.0,0.0,0.0,0.0,0.0,0.0,0.0,0.0,0.0,0.0,0.0,0.0,0.0,-0.035,-0.0262,-0.016,-0.0066,0.0202,0.0661,0.1306,-0.4134,-0.9656,-1.512,-1.7479,-1.7971,-1.6667,-1.6711,-1.5247,-1.2574,-1.1997,-1.1305,-1.0533,-1.0282,-1.0001,-0.9729,-0.9484,-0.9533,0.0,0.0,0.0,0.0,0.0,0.0,0.0,0.0,-1.1225,-1.1909,-1.1518,-1.1844,-1.2282,-1.1926,-1.1416,-1.1023,-1.131,-1.2248,-1.3165,-1.3424,0.0,0.0,-1.6612,-1.8448,-2.0381,-2.2053,-2.2871,-2.3543,-2.4447,-2.3894,-2.3985,-2.6052,-2.6366,-2.687,-2.833,-2.8728,-2.8982,-2.933,-2.9089,-2.8994,-2.9274,-2.9545,-2.9689,-2.9679,-2.9939,-3.0083,-3.0064,-3.0863,-3.1077,-3.0549,-3.1651,-3.166,-3.0449,-3.046,-3.0139,-2.9514,-2.9233,-2.8964,-2.8659,-2.7231,-2.7025,-2.7762,-2.7077,-2.7084,-2.7592,-2.757,-2.7352,-2.6964,-2.6344,-2.5593,-2.4875,-2.4846,-2.4802,-2.4648,0.0,0.0,0.0,0.0,0.0,0.0,0.0,0.0,0.0,0.0,0.0,0.0,0.0,0.0,0.0,0.0,0.0,0.0,-0.0678,-0.0383,0.0073,0.0666,0.0964,0.125,0.1601,0.1656,-0.1522,-0.8016,-1.145,-1.3797,-1.5071,-1.5027,-1.4135,-1.2585,-1.2521,-1.2057,-1.1252,-1.045,-0.9609,-0.8745,-0.7959,-0.8107,-0.8822,0.0,0.0,0.0,0.0,0.0,0.0,0.0,-1.0924,-1.0653,-1.3171,-1.2783,-1.1577,-1.2449,-1.2636,-1.2402,-1.1614,-1.1422,-1.1604,0.0,0.0,0.0,-1.7337,-1.8395,-1.9992,-2.3417,-2.4107,-2.4408,-2.5333,-2.4795,-2.4501,-2.5348,-2.5459,-2.5704,-2.658,-2.7392,-2.7605,-2.6814,-2.7469,-2.767,-2.6799,-2.7503,-2.7989,-2.7923,-2.8713,-2.9171,-2.9113,-2.9864,-3.0318,-3.0398,-3.0398,-3.0367,-3.0304,-3.0348,-3.0323,-3.0177,-2.9301,-2.8549,-2.789,-2.6937,-2.6972,-2.7773,-2.7644,-2.7573,-2.7573,-2.7504,-2.69,-2.5981,-2.5914,-2.5373,-2.4607,-2.4663,-2.4645,-2.4607,0.0,0.0,0.0,0.0,0.0,0.0,0.0,0.0,0.0,0.0,0.0,0.0,0.0,0.0,0.0,0.0,0.0,0.0,-0.0344,0.005,0.0407,0.0688,0.1054,0.1427,0.1814,0.0547,-0.3295,-0.9766,-1.3466,-1.4578,-1.3213,-1.3852,-1.3252,-1.1639,-1.2276,-1.2096,-1.1272,-1.1048,-1.0464,-0.9746,-1.0073,-0.9972,-0.971,0.0,0.0,0.0,0.0,0.0,0.0,0.0,0.0,0.0,-1.1219,-1.174,-1.2241,-1.1891,-1.1762,-1.1695,-1.1455,-1.226,0.0,-1.2687,0.0,0.0,0.0,-2.0614,0.0,0.0,-2.4947,-2.5042,-2.5371,-2.5263,-2.5201,-2.5468,-2.5948,-2.6395,-2.6657,-2.691,-2.7181,-2.7509,-2.773,-2.7778,-2.7566,-2.8799,-2.9374,-2.8788,-2.9536,-3.0044,-3.0021,-3.0251,-3.0379,-3.0394,-3.0406,-3.0383,-3.0367,-2.9778,-2.9416,-2.9283,-2.8395,-2.8191,-2.8479,-2.702,-2.6499,-2.6708,-2.6104,-2.5786,-2.5693,-2.5593,-2.5386,-2.5133,-2.5032,-2.4834,-2.458,-2.4462,-2.441,-2.43,0.0,0.0,0.0,0.0,0.0,0.0,0.0,0.0,0.0,0.0,0.0,0.0,0.0,0.0,0.0,0.0,0.0,0.0,0.0,0.0303,0.0513,0.0659,0.1147,0.1618,0.2009,-0.0126,-0.3007,-0.6566,-1.0869,-1.2623,-1.1949,-1.313,-1.3145,-1.2249,-1.3427,-1.3315,-1.2243,-1.2249,-1.1588,-1.0578,-1.1072,-1.1148,-1.1013,0.0,0.0,0.0,0.0,0.0,0.0,0.0,0.0,0.0,-1.0639,-1.1297,-1.2108,-1.1935,-1.2082,-1.2257,-1.1953,-1.285,0.0,-1.3646,-1.6297,-1.9419,-2.1289,0.0,0.0,-2.5033,-2.5053,-2.4937,-2.5329,-2.5415,-2.5423,-2.5412,-2.582,-2.6139,-2.613,-2.614,-2.6217,-2.637,-2.6651,-2.6708,-2.6429,-2.7873,-2.8629,-2.811,-2.8879,-2.9367,-2.9332,-2.9658,-2.9843,-2.9829,-3.0186,-3.0323,-3.0266,-2.9468,-2.9136,-2.9231,-2.8075,-2.7951,-2.8662,-2.7015,-2.6097,-2.5792,-2.524,-2.4898,-2.4768,-2.4692,-2.4663,-2.4631,-2.4613,-2.458,-2.4549,-2.4445,-2.4153,-2.3713,0.0,0.0,0.0,0.0,0.0,0.0,0.0,0.0,0.0,0.0,0.0,0.0,0.0,0.0,0.0,0.0,0.0,0.0,0.0,0.0445,0.0503,0.0601,0.1305,0.1859,0.2226,-0.0312,-0.1293,-0.0588,-0.5632,-0.9026,-1.0847,-1.2657,-1.3572,-1.3766,-1.532,-1.5151,-1.3694,-1.3622,-1.2626,-1.1104,-1.1175,-1.1629,-1.2192,-1.1472,0.0,0.0,0.0,0.0,0.0,0.0,0.0,0.0,-1.0962,-1.1244,-1.1449,-1.2142,-1.2941,-1.3444,-1.2787,-1.3246,-1.4116,-1.4992,-1.7174,0.0,-2.3151,-2.3928,-2.4197,-2.5014,-2.4591,-2.434,-2.5235,-2.5341,-2.5303,-2.5303,-2.5302,-2.5292,-2.5293,-2.5293,-2.5024,-2.4289,-2.4928,-2.5091,-2.4298,-2.5736,-2.664,-2.6502,-2.73,-2.7758,-2.7707,-2.8441,-2.8881,-2.8875,-2.9666,-3.0016,-2.9874,-2.9211,-2.9108,-2.958,-2.819,-2.7815,-2.8317,-2.6858,-2.5777,-2.5057,-2.4846,-2.4695,-2.4599,-2.4582,-2.4515,-2.443,-2.4532,-2.4476,-2.4371,-2.4495,-2.3872,-2.2995,0.0,0.0,0.0,0.0,0.0,0.0,0.0,0.0,0.0,0.0,0.0,0.0,0.0,0.0,0.0,0.0,0.0,0.0,0.0,0.0743,0.0865,0.0689,0.1718,0.2399,0.2585,0.0583,-0.0463,-0.0435,-0.5582,-0.7977,-0.7828,-1.17,-1.3538,-1.3691,-1.5339,-1.516,-1.3572,-1.3007,-1.1794,-1.0312,-1.0947,-1.0933,-1.0595,-1.1095,-1.0855,0.0,0.0,0.0,0.0,0.0,0.0,0.0,-1.0292,-1.079,-1.1205,-1.0702,-1.1609,-1.2719,-1.2623,-1.364,0.0,-1.588,-1.8049,-2.0474,-2.2518,-2.2997,-2.3228,-2.4101,-2.411,-2.4234,-2.5149,-2.5312,-2.5302,-2.5303,-2.5302,-2.5282,-2.5233,-2.5212,-2.5154,-2.4974,-2.571,-2.5932,-2.512,-2.657,-2.7248,-2.6557,-2.7263,-2.7707,-2.7689,-2.7886,-2.7981,-2.7975,-2.8217,-2.8268,-2.8145,-2.8032,-2.7979,-2.8006,-2.8228,-2.7759,-2.6692,-2.6298,-2.566,-2.4851,-2.4591,-2.4528,-2.4599,-2.4428,-2.4411,-2.4465,-2.4339,-2.3896,-2.3381,-2.3801,-2.3487,-2.2903,0.0,0.0,0.0,0.0,0.0,0.0,0.0,0.0,0.0,0.0,0.0,0.0,0.0,0.0,0.0,0.0,0.0,0.0,0.0,0.0,0.0776,0.0886,0.1857,0.2439,0.2502,0.1637,0.1158,0.1075,-0.3669,-0.6462,-0.7446,-1.0355,-1.2806,-1.4794,-1.603,-1.5685,-1.4109,-1.3361,-1.2084,-1.0613,-1.0999,-1.1144,-1.1155,-1.1194,-1.0942,-1.0531,-1.0141,0.0,0.0,0.0,0.0,0.0,0.0,0.0,-1.066,-1.0626,-1.1234,-1.2021,-1.2484,0.0,0.0,-1.7606,0.0,-2.0479,-2.1732,-2.1713,-2.1665,-2.2575,-2.3399,-2.4213,-2.5097,-2.525,-2.525,-2.5209,-2.5228,-2.5248,-2.5198,-2.5198,-2.5198,-2.5212,-2.56,-2.5715,-2.5282,-2.6397,-2.6936,-2.65,-2.684,-2.6892,-2.6473,-2.6491,-2.6491,-2.6454,-2.6898,-2.7275,-2.7537,-2.7243,-2.7203,-2.7411,-2.6998,-2.6329,-2.5389,-2.5435,-2.5223,-2.4749,-2.4491,-2.4442,-2.4495,-2.4321,-2.4284,-2.4358,-2.4247,-2.3732,-2.3105,-2.3708,-2.323,-2.2373,0.0,0.0,0.0,0.0,0.0,0.0,0.0,0.0,0.0,0.0,0.0,0.0,0.0,0.0,0.0,0.0,0.0,0.0,0.0,0.0,0.0,0.1306,0.1899,0.2164,0.208,0.2381,0.2506,0.2397,-0.129,-0.4727,-0.7911,-0.9035,-1.1555,-1.5145,-1.5144,-1.4418,-1.3099,-1.2257,-1.1339,-1.0385,-1.0175,-1.0768,-1.1673,-1.0816,-1.0603,-1.0659,-0.9857,-0.9741,-0.9955,-0.9817,0.0,0.0,0.0,0.0,-0.991,-1.079,-1.1046,-1.1281,-1.2319,0.0,-1.6111,-1.8888,-1.9736,0.0,-2.0909,-2.0421,-2.0107,-2.1168,-2.2537,-2.382,-2.479,-2.4962,-2.4969,-2.505,-2.5125,-2.5187,-2.5175,-2.5046,-2.5004,-2.516,-2.505,-2.5031,-2.5182,-2.5795,-2.6187,-2.618,-2.6149,-2.5837,-2.512,-2.5132,-2.5132,-2.5082,-2.5774,-2.6448,-2.7063,-2.6308,-2.6179,-2.6657,-2.5319,-2.4689,-2.4717,-2.4729,-2.4689,-2.4594,-2.4425,-2.4355,-2.4319,-2.4026,-2.3932,-2.3931,-2.3895,-2.3419,-2.2885,-2.371,-2.3067,-2.188,0.0,0.0,0.0,0.0,0.0,0.0,0.0,0.0,0.0,0.0,0.0,0.0,0.0,0.0,0.0,0.0,0.0,0.0,0.1486,0.0,0.0,0.2207,0.1992,0.164,0.1184,0.1933,0.1971,0.123,-0.0046,-0.2975,-0.7413,-0.8204,-0.9681,-1.1547,-0.8605,-0.7033,-0.6507,-0.552,-0.5914,-0.7137,-0.632,-0.7268,-0.9111,-0.8293,-0.8414,-0.8932,-0.8117,-0.874,-0.9804,-0.9049,-0.9257,0.0,0.0,0.0,-0.8878,-0.9743,-1.0051,-1.0444,-1.2078,0.0,-1.736,0.0,-1.8458,-1.9202,0.0,-1.9583,-1.9402,-2.0993,-2.1488,-2.2147,-2.3702,-2.3995,-2.4188,-2.4815,-2.5038,-2.5101,-2.5018,-2.4436,-2.4264,-2.503,-2.4495,-2.4366,-2.513,-2.5302,-2.5344,-2.5279,-2.5222,-2.5139,-2.5023,-2.5023,-2.4991,-2.4945,-2.5094,-2.5221,-2.5332,-2.4492,-2.41,-2.4179,-2.3856,-2.4376,-2.5611,-2.4811,-2.4355,-2.4192,-2.4153,-2.4134,-2.4078,-2.3113,-2.2801,-2.2879,-2.2623,-2.2134,-2.1709,-2.3145,-2.3024,-2.2236,0.0,0.0,0.0,0.0,0.0,0.0,0.0,0.0,0.0,0.0,0.0,0.0,0.0,0.0,0.0,0.1165,0.1244,0.1389,0.1527,0.1707,0.1891,0.2116,0.2245,0.213,0.1731,0.2356,0.245,0.1952,0.0436,-0.1595,-0.4021,-0.303,-0.5561,-1.0783,-0.6976,-0.4923,-0.4274,-0.3976,-0.4556,-0.5615,-0.531,-0.6844,-0.9175,-0.7933,-0.8196,-0.9103,-0.7875,-0.8206,-0.9158,-0.8692,-0.9102,-0.9779,-0.9724,0.0,0.0,0.0,-0.9531,-0.9811,-1.2444,-1.4646,-1.6418,0.0,-1.8146,-1.8869,-1.9199,-1.9361,-1.9677,-2.0418,-2.0591,-2.1268,-2.3408,-2.3814,-2.4056,-2.4828,-2.4999,-2.5018,-2.4999,-2.4695,-2.4626,-2.5057,-2.474,-2.4688,-2.5164,-2.5137,-2.5088,-2.5101,-2.5031,-2.4796,-2.4295,-2.4204,-2.4176,-2.4236,-2.3723,-2.3644,-2.4105,-2.3729,-2.3738,-2.4148,-2.4136,-2.4414,-2.493,-2.4487,-2.432,-2.4374,-2.4228,-2.419,-2.4173,-2.3535,-2.2976,-2.2458,-2.2307,-2.1782,-2.12,-2.1768,-2.198,-2.2018,0.0,0.0,0.0,0.0,0.0,0.0,0.0,0.0,0.0,0.0,0.0,0.0,0.0,0.0,0.0,0.0,0.1551,0.1586,0.1609,0.188,0.1997,0.1883,0.2238,0.2211,0.1721,0.2368,0.2546,0.2194,0.0494,-0.072,-0.1363,0.1144,-0.1237,-0.7421,-0.3437,-0.1532,-0.1306,-0.137,-0.2125,-0.3328,-0.4234,-0.6319,-0.8814,-0.8199,-0.8817,-0.9732,-0.7579,-0.7865,-0.9071,-0.797,-0.8145,-0.8922,-0.9435,-0.8541,0.0,0.0,0.0,-0.8959,0.0,0.0,-1.4422,-1.5791,-1.6829,-1.7596,-1.7916,-1.8362,-1.8906,-1.9532,-1.9715,-2.0448,-2.2714,-2.3309,-2.3638,-2.4206,-2.4666,-2.4888,-2.4669,-2.4663,-2.4765,-2.5051,-2.4822,-2.4778,-2.5125,-2.5006,-2.4953,-2.5018,-2.4964,-2.4639,-2.3996,-2.3639,-2.3516,-2.3606,-2.2665,-2.2428,-2.3014,-2.298,-2.3342,-2.404,-2.4146,-2.4223,-2.4248,-2.3989,-2.3934,-2.4111,-2.3897,-2.3673,-2.3416,-2.3218,-2.2503,-2.1511,-2.171,-2.126,-2.0389,-1.9081,-1.9887,-2.1389,0.0,0.0,0.0,0.0,0.0,0.0,0.0,0.0,0.0,0.0,0.0,0.0,0.1086,0.2318,0.2842,0.2113,0.1897,0.1816,0.1877,0.1898,0.1879,0.1808,0.1771,0.0,0.0143,0.1327,0.1574,0.08,0.0117,-0.0561,-0.1158,0.178,0.2514,0.1593,0.5427,0.6244,0.4785,0.5199,0.379,0.1013,-0.1789,-0.4317,-0.6606,-0.8687,-1.0047,-1.0341,-0.6571,-0.7578,-1.0131,-0.6435,-0.564,-0.6565,-0.867,-0.6857,-0.4534,0.0,0.0,0.0,0.0,-1.0154,0.0,-1.2459,-1.3319,-1.4384,-1.5969,-1.5769,-1.5927,-1.8288,-1.878,-1.9292,-2.1017,-2.2014,-2.2527,-2.2365,-2.3719,-2.4544,-2.3785,-2.3725,-2.4081,-2.4917,-2.4219,-2.4036,-2.4917,-2.4832,-2.4746,-2.4808,-2.4753,-2.4704,-2.4666,-2.3858,-2.3381,-2.3329,-2.2468,-2.1996,-2.1983,-2.1834,-2.2117,-2.2792,-2.2978,-2.3474,-2.4155,-2.329,-2.2849,-2.2794,-2.273,-2.2075,-2.1089,-2.1065,-2.0372,-1.9435,-2.0258,-2.0068,-1.8756,-1.4439,-1.636,-2.0291,0.0,0.0,0.0,0.0,0.0,0.0,0.0,0.0,0.0,0.0,0.0,0.0,0.0,0.2631,0.3556,0.3275,0.2952,0.2769,0.2801,0.2755,0.2621,0.2387,0.2144,0.1829,0.1422,0.215,0.238,0.2039,0.2052,0.2203,0.2553,0.3955,0.4599,0.4628,0.6632,0.7294,0.6808,0.5858,0.4425,0.2677,0.1199,-0.0707,-0.2677,-0.2814,-0.5155,-0.8017,-0.511,-0.689,-1.0067,-0.6471,-0.6562,-0.7794,-0.552,-0.5295,-0.6025,-0.6694,0.0,0.0,0.0,0.0,0.0,-1.1578,-1.3032,-1.4558,-1.516,-1.5875,-1.6816,-1.8283,-1.8639,-1.9012,-2.0051,-2.0948,-2.1864,-2.2882,-2.3525,-2.3975,-2.42,-2.4268,-2.4444,-2.4823,-2.449,-2.4415,-2.4828,-2.4779,-2.4479,-2.3949,-2.4388,-2.4173,-2.2977,-2.3138,-2.2994,-2.242,-2.1463,-2.0943,-2.0874,-2.1115,-2.1744,-2.2696,-2.3066,-2.3467,-2.3842,-2.2643,-2.1914,-2.1552,-2.0721,-2.0547,-2.0888,-2.0819,-2.0122,-1.915,-1.9284,-1.7085,-1.3569,-1.111,-0.9953,-0.9207,0.0,0.0,0.0,0.0,0.0,0.0,0.0,0.0,0.0,0.2689,0.0,0.0,0.0,0.0,0.3869,0.4138,0.365,0.3322,0.3293,0.309,0.2839,0.2538,0.2238,0.2051,0.2037,0.2404,0.2595,0.2595,0.2995,0.3681,0.4585,0.5082,0.5649,0.6327,0.6735,0.7162,0.7441,0.634,0.5324,0.4322,0.2677,0.1113,-0.0212,-0.0359,-0.2615,-0.5541,-0.4362,-0.5445,-0.7155,-0.5266,-0.4922,-0.4858,-0.248,-0.3649,-0.5763,-0.5167,0.0,0.0,-0.7568,0.0,0.0,0.0,-1.1727,-1.2944,-1.3719,-1.4747,-1.5841,-1.7001,-1.6417,-1.6437,-1.8761,-1.8585,-1.895,-2.1732,-2.2637,-2.309,-2.3352,-2.3892,-2.426,-2.4343,-2.4511,-2.4645,-2.4779,-2.4657,-2.4206,-2.3397,-2.3833,-2.3454,-2.1932,-2.2105,-2.1834,-2.0921,-2.0223,-1.9975,-2.0137,-2.0485,-2.1251,-2.2413,-2.084,-2.0264,-2.0454,-1.7354,-1.6743,-1.812,-1.6945,-1.7769,-1.9825,-1.8398,-1.7049,-1.5727,-1.4147,-1.1121,-0.7271,-0.4508,-0.3169,-0.2339,0.0,0.0,0.0,0.0,0.0,0.0,0.0,0.0,0.3257,0.4333,0.0,0.0,0.0,0.0,0.0,0.4668,0.3962,0.3442,0.334,0.2825,0.2441,0.2237,0.1945,0.1767,0.1715,0.1896,0.2078,0.2231,0.2755,0.3515,0.4518,0.4896,0.5794,0.7023,0.6307,0.6342,0.699,0.7106,0.685,0.6088,0.2546,0.1079,0.072,-0.1759,-0.2818,-0.3096,-0.4169,-0.3197,-0.1585,-0.2599,-0.0384,0.242,0.0143,-0.1838,-0.3233,0.0,0.0,0.0,0.0,0.0,0.0,-0.844,-0.9,-0.9238,-1.1468,-1.203,-1.2556,-1.4183,-1.2028,-1.1505,-1.6984,-1.4917,-1.3965,-1.8771,-2.1031,-2.1896,-2.1124,-2.2426,-2.3468,-2.3487,-2.4123,-2.4594,-2.4776,-2.4498,-2.3988,-2.3236,-2.3081,-2.2609,-2.1696,-2.0821,-1.9917,-1.8931,-1.8896,-1.9181,-1.9752,-1.9905,-2.0611,-2.1762,-1.6217,-1.385,-1.4117,-0.7487,-0.7344,-1.2293,-1.1316,-1.3414,-1.7244,-1.3585,-1.1071,-0.9103,-0.4899,-0.2283,-0.0185,0.5386,0.3739,-0.0396,0.0,0.0,0.0,0.0,0.0,0.0,0.4755,0.48,0.452,0.0,0.0,0.0,0.4147,0.6464,0.7253,0.5428,0.5511,0.5236,0.4305,0.3516,0.3015,0.2854,0.2128,0.1785,0.1915,0.197,0.2304,0.2924,0.3171,0.3674,0.4435,0.4748,0.5262,0.5926,0.5736,0.5846,0.6194,0.6027,0.6127,0.625,0.4687,0.4726,0.5597,0.4569,0.2616,0.0531,0.1079,-0.0146,-0.175,0.0216,0.0871,0.0785,0.0277,0.0517,0.0,0.0,0.0,0.0,-0.1801,0.0,0.0,0.0,0.0,0.0,-0.8559,-0.9162,-0.9773,-1.038,-1.0659,-1.1331,-1.299,-1.5123,-1.7049,-1.8365,-2.0004,-2.1238,-2.1588,-2.2049,-2.255,-2.313,-2.3305,-2.3621,-2.4302,-2.4247,-2.3805,-2.296,-2.2977,-2.2282,-2.0644,-1.9758,-1.9199,-1.8913,-1.8913,-1.8932,-1.8998,-1.9386,-1.9833,-2.024,-1.516,-1.2898,-1.2952,-0.6347,-0.4377,-0.6075,-0.4766,-0.5093,-0.6826,-1.0147,-1.0803,-0.9202,-0.418,0.0638,0.5005,0.7083,0.9237,1.1404,0.0,0.0,0.0,0.0,0.0,0.4958,0.5283,0.53,0.4962,0.0,0.0,0.0,0.5592,0.7517,0.8011,0.6149,0.5942,0.5646,0.4969,0.406,0.3548,0.3515,0.2853,0.2537,0.2625,0.2632,0.284,0.328,0.3469,0.3805,0.4281,0.4545,0.4937,0.5402,0.5263,0.5401,0.5673,0.5312,0.5495,0.5964,0.5905,0.6519,0.7481,0.77,0.6517,0.4593,0.3677,0.2893,0.2335,0.2546,0.304,0.3506,0.2986,0.3041,0.2979,0.1494,0.0696,0.0,0.0,0.0,0.0,-0.1739,0.0,0.0,-0.5713,-0.6394,-0.6898,-0.6792,-0.6494,-0.6809,-0.8673,-0.9901,-1.1209,-1.2947,-1.4017,-1.5443,-1.7823,-1.8392,-1.8765,-1.9321,-1.9617,-2.0728,-2.3172,-2.3321,-2.29,-2.2019,-2.205,-2.0569,-1.711,-1.8161,-1.8,-1.612,-1.7761,-1.8678,-1.8622,-1.6884,-1.621,-1.6479,-0.9114,-0.574,-0.5808,0.0759,0.2323,-0.0098,0.0843,-0.0067,-0.2361,-0.3964,-0.4001,-0.2515,0.2832,0.7251,1.0652,1.1112,1.3375,1.6207,0.0,0.0,0.4071,0.4187,0.5263,0.6107,0.603,0.5582,0.5125,0.0,0.5472,0.6509,0.7701,0.7667,0.7374,0.6937,0.5954,0.5432,0.556,0.4575,0.4026,0.413,0.3783,0.3574,0.3506,0.3461,0.344,0.3434,0.364,0.3853,0.4112,0.4344,0.4696,0.5159,0.4848,0.0,0.5215,0.4823,0.496,0.546,0.6338,0.6907,0.7387,0.8493,0.89,0.8464,0.5055,0.6054,0.8454,0.4914,0.5863,0.8323,0.6869,0.5542,0.4293,0.3126,0.2868,0.0,0.0,0.0,0.0,-0.0886,-0.1475,0.0,-0.2831,-0.3519,-0.3754,-0.3313,-0.1198,-0.0571,-0.4332,-0.2561,-0.1799,-0.5635,-0.6199,-0.7549,-1.1593,-1.3067,-1.3848,-1.4133,-1.4772,-1.6826,-2.1056,-2.0855,-2.0179,-1.947,-1.9378,-1.733,-1.2682,-1.5543,-1.5458,-1.1405,-1.4905,-1.6897,-1.6939,-1.2683,-1.0781,-1.1146,-0.0958,0.377,0.3708,1.0111,1.0376,0.5788,0.6055,0.3616,-0.0161,0.4069,0.6059,0.6945,1.2228,1.4805,1.5565,1.5812,1.6067,1.6246,0.0,0.0,0.4244,0.4207,0.4694,0.5602,0.7111,0.7115,0.6597,0.5672,0.6832,0.7972,0.8584,0.8576,0.8458,0.8238,0.7504,0.6942,0.6704,0.5333,0.4492,0.4346,0.3871,0.3574,0.3506,0.3238,0.3269,0.3639,0.3429,0.3586,0.4099,0.4108,0.4179,0.4321,0.421,0.4163,0.4204,0.4434,0.4835,0.535,0.5763,0.6386,0.7139,0.7966,0.8869,0.9616,0.9121,0.9711,1.0505,0.9215,0.8919,0.89,0.7964,0.739,0.6831,0.5522,0.5445,0.56,0.468,0.4687,0.4787,0.3937,0.2713,0.0,0.0279,0.0288,0.0513,0.0399,0.0117,-0.0241,-0.0705,-0.2819,-0.4835,-0.5891,-0.6219,-0.6608,-0.7394,-1.0504,-1.3007,-1.3865,-1.3806,-1.4356,-1.6032,-1.2701,-1.0491,-1.0638,-1.0518,-1.0897,-1.1956,-0.9581,-0.7514,-0.6099,-0.6811,-0.7202,-0.7236,-0.6288,-0.5728,-0.5429,0.0931,0.422,0.4856,1.0577,1.2681,1.183,1.2487,1.1981,1.0842,1.2307,1.0404,0.7059,1.2146,1.4596,1.5344,1.5812,1.5996,1.6052,0.0,0.4765,0.4987,0.5249,0.5945,0.6925,0.8366,0.8266,0.7857,0.7496,0.8714,0.9435,0.901,0.9186,0.9158,0.8689,0.8038,0.7488,0.7066,0.6202,0.5406,0.4731,0.4539,0.4255,0.3857,0.3691,0.3705,0.3949,0.3886,0.3962,0.4159,0.4212,0.4447,0.4801,0.4757,0.4974,0.5339,0.5201,0.5405,0.5826,0.6125,0.6824,0.7794,0.8578,0.9492,1.035,1.0709,1.0821,1.0614,0.9824,0.9365,0.9009,0.8455,0.8201,0.7872,0.7008,0.6738,0.6645,0.6134,0.5934,0.584,0.5815,0.4726,0.0,0.0,0.3055,0.2902,0.3114,0.2548,0.2189,0.2654,0.1042,-0.0318,-0.0187,-0.007,-0.0,0.0026,-0.3643,-0.6456,-0.6878,-0.8378,-1.0496,-1.3245,-1.1136,-0.8907,-0.7225,-0.6904,-0.6445,-0.5609,-0.5658,-0.4357,-0.1397,-0.3428,-0.4341,-0.3908,-0.1665,-0.0419,-0.0096,0.5096,0.7828,0.8359,1.1746,1.3376,1.358,1.4232,1.4424,1.4324,1.466,1.3216,1.105,1.3925,1.5079,1.5192,1.5845,1.5906,1.5623,0.4912,0.0,0.5626,0.6212,0.7214,0.8308,0.9417,0.9301,0.9143,0.9354,1.0355,1.06,0.9375,0.9747,0.9874,0.9333,0.8666,0.8112,0.7735,0.7246,0.6552,0.563,0.5544,0.5325,0.4881,0.4598,0.4436,0.4403,0.4372,0.4242,0.4054,0.4176,0.4616,0.5305,0.5336,0.5835,0.6636,0.6179,0.6212,0.662,0.7023,0.7558,0.8203,0.9214,1.0055,1.0719,1.1327,1.1189,1.0564,0.9661,0.9414,0.9361,0.8934,0.876,0.8632,0.794,0.7519,0.717,0.6761,0.6482,0.6362,0.6352,0.5799,0.5302,0.0,0.0,0.0,0.473,0.4595,0.4544,0.4972,0.5002,0.5083,0.5543,0.6025,0.633,0.6278,0.3175,0.071,0.0083,-0.2552,-0.5787,-0.9501,-0.8806,-0.7162,-0.4841,-0.3929,-0.2159,0.0844,-0.1616,-0.1094,0.3265,0.0031,-0.1433,-0.0716,0.2947,0.4882,0.5086,0.9326,1.1511,1.1845,1.2993,1.3606,1.3779,1.4372,1.4681,1.4762,1.4914,1.5058,1.5238,1.5598,1.5453,1.5115,1.5693,1.5674,1.5345,0.501,0.5078,0.0,0.5941,0.6744,0.7887,0.9603,1.0385,1.0702,1.0371,1.0929,1.1021,1.0159,1.0444,1.0896,1.1414,1.0564,0.9996,0.9937,0.8633,0.7815,0.7759,0.6859,0.6649,0.7299,0.6023,0.5285,0.518,0.4244,0.3691,0.3483,0.3331,0.3744,0.461,0.4738,0.5302,0.6215,0.6544,0.7017,0.76,0.8363,0.7955,0.7076,0.8707,0.9799,1.0612,1.1963,1.2365,1.2111,1.1295,1.104,1.0864,0.9751,0.9875,1.0091,0.8382,0.8206,0.8379,0.7394,0.7363,0.7381,0.6461,0.6759,0.6838,0.5187,0.0,0.5155,0.4586,0.0,0.4574,0.4868,0.0,0.0,0.5312,0.5793,0.6134,0.6124,0.5497,0.3728,0.0174,-0.0203,-0.0412,-0.0981,0.2292,0.324,0.0342,0.2901,0.3763,0.1878,0.4841,0.7194,0.8415,0.8451,0.8459,0.8578,0.9393,0.9895,1.0176,1.1351,1.2238,1.2837,1.3668,1.4143,1.4346,1.5053,1.5231,1.5006,1.561,1.5883,1.5826,1.5113,1.4989,1.5147,1.4947,1.5254,1.5827,0.5146,0.5262,0.0,0.5734,0.6371,0.759,0.9791,1.0021,1.0046,1.0323,1.032,1.0721,1.1869,1.2416,1.2649,1.2502,1.2194,1.1549,1.0482,0.9877,0.915,0.8198,0.7725,0.7431,0.73,0.6603,0.5827,0.4959,0.4459,0.3928,0.3357,0.3859,0.45,0.5269,0.5711,0.6722,0.8057,0.7703,0.773,0.8064,0.8942,0.8514,0.7554,0.954,1.0823,1.1609,1.2102,1.2321,1.2303,1.1462,1.1109,1.0939,1.0518,1.0368,1.0196,0.9448,0.9215,0.9074,0.846,0.8432,0.8397,0.7762,0.7751,0.7633,0.6606,0.6158,0.59,0.5653,0.0,0.0,0.0,0.0,0.0,0.0,0.5524,0.5793,0.5404,0.5665,0.5224,0.3511,0.1389,0.0244,0.0606,0.1336,0.2619,0.4593,0.4552,0.4721,0.5294,0.6792,0.8223,0.9538,0.9691,1.0195,1.1078,1.1255,1.1431,1.1605,1.2235,1.2698,1.3094,1.3753,1.4177,1.4466,1.4957,1.5165,1.5255,1.5667,1.5722,1.5545,1.5026,1.4994,1.5298,1.5753,1.5742,1.5506,0.5712,0.0,0.0,0.5965,0.6192,0.7299,0.9996,0.9738,0.949,1.0261,1.0301,1.0882,1.2525,1.3915,1.4452,1.3739,1.3747,1.3152,1.1679,1.1315,1.0662,0.9536,0.8939,0.8412,0.7918,0.7466,0.6656,0.5464,0.5254,0.4818,0.4178,0.4628,0.5255,0.6074,0.6519,0.7671,0.9218,0.8737,0.8717,0.9072,0.9924,0.9865,0.9421,1.0598,1.1652,1.2501,1.2226,1.2249,1.2336,1.1718,1.141,1.1304,1.1322,1.1097,1.079,1.0547,1.0172,0.9767,0.9536,0.942,0.9257,0.8787,0.8465,0.811,0.7521,0.6879,0.6478,0.6578,0.6157,0.0,0.0,0.0,0.5427,0.5449,0.0,0.5972,0.5405,0.5778,0.594,0.552,0.3018,0.1512,0.1994,0.1002,0.2226,0.6786,0.5131,0.5039,0.7634,0.7489,0.8028,0.9534,0.9726,1.039,1.1584,1.1925,1.2162,1.233,1.2881,1.3293,1.3483,1.3973,1.4438,1.48,1.5059,1.5315,1.5624,1.5938,1.5836,1.551,1.538,1.5325,1.5364,1.5976,1.5919,1.5577,0.6845,0.6689,0.0,0.6822,0.6285,0.6936,1.0197,1.0058,0.9792,1.0407,1.1509,1.1926,1.1249,1.4313,1.6162,1.5492,1.5374,1.5021,1.4315,1.3053,1.2463,1.2742,1.0821,0.9886,1.0189,0.8985,0.8035,0.7411,0.6821,0.6491,0.6379,0.5359,0.5529,0.6664,0.6566,0.7297,0.8669,0.9353,1.0174,1.1067,1.1679,1.2405,1.2992,1.1616,1.1841,1.284,1.2503,1.2419,1.2503,1.254,1.2562,1.2508,1.225,1.2425,1.252,1.146,1.0929,1.063,1.049,1.0277,0.9892,0.909,0.8785,0.8349,0.7104,0.6802,0.6799,0.6875,0.7023,0.7192,0.7379,0.7059,0.6821,0.0,0.7136,0.0,0.0,0.6503,0.5879,0.4507,0.4858,0.5204,0.5165,0.5169,0.5479,0.6182,0.5556,0.5899,0.7621,0.77,0.8087,0.9003,1.0019,1.0749,1.1115,1.2025,1.2708,1.3182,1.3622,1.4084,1.447,1.4686,1.5043,1.555,1.571,1.5883,1.6123,1.6712,1.6605,1.6095,1.6343,1.5979,1.5251,1.4825,1.5381,1.634,0.0,0.0,0.0,0.7372,0.7257,0.7809,0.9636,1.0495,1.1949,1.475,1.5487,1.6224,1.7445,1.8683,1.9033,1.8091,1.8075,1.7511,1.6067,1.5505,1.5047,1.4566,1.3378,1.2728,1.2808,1.1264,0.9897,0.8765,0.7842,0.7145,0.6696,0.6867,0.7176,0.7571,0.7881,0.8974,1.056,1.0184,1.0573,1.1466,1.1804,1.283,1.4046,1.2923,1.2841,1.3258,1.3073,1.3194,1.3437,1.3454,1.334,1.3192,1.3139,1.2766,1.2187,1.1532,1.1307,1.12,1.0696,1.093,1.1087,1.0181,0.9924,0.9666,0.8785,0.8447,0.8291,0.8175,0.7972,0.7724,0.7538,0.7333,0.0,0.0,0.0,0.6825,0.0,0.4645,0.442,0.4795,0.5481,0.5805,0.547,0.4378,0.429,0.5758,0.4307,0.4496,0.7162,0.7854,0.8597,0.9556,1.0677,1.1531,1.209,1.2725,1.3251,1.3656,1.3868,1.4259,1.4763,1.4963,1.5314,1.5812,1.5883,1.6093,1.6367,1.6633,1.6337,1.5704,1.5843,1.5543,1.5087,1.5501,1.5967,1.6539,0.8023,0.8133,0.8065,0.7454,0.809,0.9203,1.0734,1.1669,1.3222,1.6096,1.7285,1.872,2.1039,2.118,2.0737,1.9803,2.0033,1.9571,1.7927,1.7573,1.7032,1.618,1.5276,1.4734,1.4562,1.3091,1.1669,1.0351,0.935,0.8531,0.7869,0.8085,0.8055,0.7872,0.8422,0.9306,1.0403,1.0592,1.1193,1.2112,1.2637,1.3559,1.4575,1.3966,1.3578,1.3374,1.3532,1.3384,1.3208,1.3828,1.3543,1.2992,1.3315,1.2822,1.2023,1.1531,1.138,1.1291,1.0942,1.1197,1.1424,1.0911,1.0761,1.0534,0.9754,0.9468,0.9339,0.919,0.8765,0.8483,0.8665,0.8103,0.7568,0.0,0.0,0.0,0.0,0.4516,0.4483,0.5454,0.5642,0.5775,0.5974,0.462,0.4319,0.5765,0.4363,0.447,0.6859,0.7886,0.8799,0.9701,1.0868,1.1916,1.2731,1.3172,1.3728,1.4438,1.4438,1.4752,1.5269,1.5284,1.558,1.6151,1.6067,1.6301,1.667,1.6789,1.6455,1.5869,1.5748,1.5538,1.54,1.5886,1.6342,1.6941,0.8741,0.884,0.8542,0.7293,0.8724,1.0849,1.3196,1.3418,1.3649,1.4635,1.6962,1.9394,2.1673,2.1671,2.1233,2.0559,2.1166,2.105,1.9808,1.9147,1.8448,1.764,1.6595,1.589,1.5577,1.4418,1.329,1.2198,1.1203,1.0416,0.9801,0.8925,0.8209,0.7699,0.8183,0.8377,0.8435,1.0574,1.2071,1.3086,1.412,1.4633,1.4709,1.4684,1.4017,1.3167,1.3834,1.3052,1.1994,1.3651,1.3198,1.2059,1.2837,1.2612,1.1966,1.1515,1.116,1.0955,1.12,1.1091,1.099,1.1228,1.1204,1.0898,0.994,0.9843,0.9947,0.9864,0.9478,0.9507,1.0655,0.9364,0.8425,0.0,0.0,0.0,0.6482,0.6078,0.5972,0.6435,0.5557,0.5416,0.668,0.5994,0.5644,0.6103,0.5664,0.58,0.675,0.7842,0.8738,0.9408,1.0696,1.1897,1.2962,1.3317,1.4121,1.5345,1.527,1.5536,1.594,1.5595,1.5839,1.657,1.6274,1.6459,1.6969,1.7126,1.6951,1.6512,1.61,1.6026,1.6133,1.5918,1.6522,1.7518,0.8902,0.9189,0.9466,0.9364,0.9393,1.0217,1.2566,1.3277,1.4366,1.673,1.8166,1.942,2.0682,2.1315,2.1281,2.0364,2.1001,2.11,2.0262,2.015,1.9791,1.9083,1.8417,1.804,1.7994,1.5339,1.3803,1.3515,1.0791,0.9671,1.0081,0.9159,0.8684,0.864,0.8572,0.898,0.9756,1.0669,1.2252,1.4146,1.3997,1.4296,1.4807,1.4342,1.3612,1.288,1.3455,1.3044,1.2281,1.273,1.2602,1.2327,1.2576,1.2133,1.1458,1.1243,1.1117,1.0995,1.071,1.0919,1.1161,1.1034,1.0689,1.0319,1.0046,1.0531,1.0927,1.061,1.1068,1.1324,1.0581,1.0045,0.9411,0.8479,0.7389,0.6771,0.7098,0.6359,0.6258,0.7517,0.6984,0.6214,0.5479,0.5895,0.596,0.5345,0.6053,0.6639,0.6941,0.8142,0.9188,0.9895,1.1482,1.2478,1.2761,1.3304,1.3866,1.4443,1.477,1.509,1.5418,1.5755,1.6024,1.6246,1.6554,1.6545,1.6376,1.6962,1.6675,1.5891,1.6258,1.6533,1.6693,1.6691,1.7105,1.7796,0.9054,0.951,1.049,1.2179,1.2143,1.2329,1.3678,1.4111,1.5169,1.7574,1.859,1.929,1.9819,2.094,2.1275,2.0325,2.0918,2.09,1.9777,2.006,1.9983,1.9284,1.9319,1.9412,1.9515,1.6984,1.5323,1.4603,1.1601,1.0096,1.0008,0.8855,0.8277,0.8227,0.8579,0.8864,0.9198,1.0591,1.2362,1.427,1.3997,1.4362,0.0,1.472,1.4077,1.3347,1.3624,1.2959,1.2076,1.2768,1.2776,1.2497,1.2509,1.1938,1.1179,1.0716,1.0531,1.0424,1.0141,1.0387,1.0803,1.1079,1.1092,1.1033,1.1136,1.1551,1.1842,1.1554,1.1642,1.1722,1.1568,1.0546,0.9212,0.7631,0.7082,0.6967,0.7267,0.6801,0.673,0.7599,0.7401,0.6611,0.5167,0.5893,0.6096,0.5238,0.6031,0.6545,0.6516,0.8345,0.9534,0.9833,1.1586,1.2681,1.3008,1.3674,1.4249,1.4725,1.5309,1.5544,1.5485,1.5998,1.6238,1.625,1.6706,1.6897,1.692,1.7155,1.7003,1.6683,1.702,1.7088,1.6996,1.736,1.7548,1.7836,0.9923,1.0488,1.2045,1.5488,1.5658,1.5468,1.5984,1.5718,1.6046,1.7683,1.8703,1.9255,1.9219,2.0546,2.1051,2.0075,2.062,2.0344,1.8786,1.9394,1.951,1.8875,1.9677,2.0205,2.0327,1.8671,1.7034,1.5409,1.2832,1.0942,0.9658,0.8296,0.7512,0.7305,0.8273,0.8529,0.8338,1.0561,1.2498,1.4072,1.4095,1.4581,1.5319,1.5241,1.4763,1.4082,1.39,1.2863,1.1766,1.3135,1.3138,1.2555,1.2471,1.1933,1.1206,1.0445,1.0035,0.9876,0.9929,1.0026,1.0348,1.1323,1.1873,1.2203,1.2401,1.2556,1.2626,1.2491,1.1875,1.1681,1.279,1.093,0.8772,0.7339,0.7332,0.7573,0.7716,0.7608,0.7545,0.7608,0.764,0.0,0.5648,0.6107,0.6214,0.5533,0.5866,0.6123,0.6208,0.836,0.9555,0.9558,1.1301,1.2545,1.3178,1.4,1.4679,1.5271,1.6101,1.6209,1.5743,1.6239,1.6454,1.6396,1.6824,1.723,1.7642,1.7412,1.7572,1.7917,1.7861,1.7535,1.7124,1.7791,1.7816,1.7733,1.3734,1.4412,1.5593,1.9082,1.7261,1.6276,1.9178,1.7983,1.7033,1.781,1.9227,1.9924,1.9262,2.0033,1.9994,1.8445,1.9036,1.907,1.8129,1.8847,1.9247,1.9055,1.9946,2.045,2.0457,1.8828,1.7123,1.541,1.2799,1.07,0.9108,0.7985,0.7511,0.7612,0.0,0.8857,1.0783,1.1347,1.2897,1.4925,1.434,1.4619,1.5309,1.4597,1.4234,1.4003,1.3269,1.273,1.2409,1.2522,1.2473,1.232,1.2137,1.2106,1.2076,1.191,1.1299,1.0838,1.1556,1.1214,1.0873,1.1777,1.1978,1.1996,1.2134,1.2563,1.2907,1.2832,1.3033,1.3041,1.2483,1.1329,1.0227,0.9392,0.9264,0.9557,1.0383,0.9776,0.941,0.978,0.9656,0.8911,0.7341,0.7055,0.6703,0.6018,0.5995,0.6569,0.7814,0.7856,0.8454,0.979,1.1173,1.1917,1.2011,1.3271,1.3923,1.394,1.5295,1.5701,1.5352,1.6413,1.6648,1.6291,1.7101,1.7037,1.64,1.7259,1.7549,1.7439,1.7595,1.7528,1.7342,1.7545,1.7555,1.7666,1.6774,1.6504,1.6483,1.9957,1.7676,1.6516,1.9977,1.9562,1.8948,1.9173,1.9545,1.9459,1.8613,1.9658,1.9735,1.8053,1.8634,1.874,1.7892,1.8234,1.8462,1.8435,1.9314,1.9832,1.9825,1.9038,1.7774,1.6029,1.3434,1.1436,1.0003,0.8329,0.7756,0.8113,0.0,0.946,1.1468,1.1524,1.2746,1.4603,1.4247,1.4612,1.5358,1.4932,1.4776,1.4713,1.4228,1.3991,1.3863,1.3263,1.3384,1.3656,1.3067,1.2919,1.2895,1.2512,1.2038,1.1727,1.2145,1.1874,1.1672,1.2475,1.2639,1.2741,1.315,1.3431,1.3592,1.3489,1.357,1.3365,1.2381,1.1694,1.1042,1.0383,1.0121,1.0219,1.0847,1.0528,1.0197,1.0104,0.9981,0.9171,0.7308,0.7329,0.7034,0.6027,0.5595,0.6024,0.7503,0.7656,0.8363,0.9749,1.1124,1.1973,1.2207,1.3472,1.4235,1.4488,1.5582,1.598,1.5791,1.6554,1.6658,1.6312,1.7124,1.7256,1.6941,1.7664,1.7816,1.7618,1.7749,1.7743,1.7612,1.7658,1.7595,1.7689,1.9089,1.8166,1.7127,1.9082,1.7796,1.7418,2.0117,2.1132,2.1224,2.0196,1.9716,1.9204,1.8531,1.9638,1.9813,1.831,1.8755,1.8753,1.7885,1.7995,1.8092,1.8075,1.8984,1.9466,1.9467,1.9473,1.8523,1.6598,1.4586,1.2652,1.0807,0.9042,0.8356,0.8626,0.9278,1.0381,1.1797,1.1962,1.2958,1.4387,1.4378,1.4792,1.54,1.5402,1.5394,1.5394,1.5287,1.5225,1.5077,1.433,1.4514,1.4911,1.4117,1.3869,1.3745,1.3157,1.2776,1.2587,1.2757,1.2594,1.2557,1.3307,1.3523,1.3673,1.4229,1.4245,1.411,1.4046,1.3803,1.3302,1.2366,1.2141,1.1794,1.0925,1.072,1.0751,1.0992,1.0977,1.075,1.0192,1.0039,0.9228,0.7354,0.739,0.7152,0.6271,0.5546,0.5717,0.6984,0.7544,0.8359,0.9524,1.0946,1.1909,1.2379,1.3612,1.4543,1.5161,1.5913,1.6243,1.6297,1.6719,1.6719,1.6472,1.716,1.7572,1.7816,1.8048,1.8027,1.79,1.7966,1.7878,1.7726,1.7766,1.7726,1.7719,2.043,2.0309,1.9213,1.6367,1.8222,2.0215,2.0546,2.3223,2.3705,1.9503,1.9729,2.0278,2.0255,2.0395,2.0118,1.9152,1.9148,1.8813,1.7946,1.864,1.9049,1.8977,1.9881,2.0349,2.0291,2.0344,1.9133,1.66,1.6308,1.4167,1.0368,1.0033,0.9537,0.9016,1.0644,1.1854,1.2722,1.351,1.4404,1.5286,1.5275,1.5334,1.5392,1.54,1.5391,1.5407,1.5399,1.5297,1.5178,1.5031,1.4954,1.4859,1.4522,1.455,1.4661,1.4595,1.4015,1.3549,1.427,1.3886,1.3475,1.4275,1.4393,1.4359,1.4523,1.4239,1.3963,1.4069,1.3836,1.3306,1.2365,1.2819,1.2819,1.1309,1.1509,1.1893,1.2037,1.1844,1.1594,1.1293,1.0816,1.0048,0.8804,0.7441,0.6875,0.7472,0.6784,0.6697,0.7495,0.7364,0.7818,0.9032,1.0322,1.1104,1.1341,1.2955,1.4073,1.4674,1.5403,1.5916,1.6225,1.6927,1.7101,1.688,1.7375,1.7772,1.807,1.7966,1.7878,1.7833,1.7949,1.78,1.7532,1.7664,1.7749,1.7789,2.0131,2.2216,2.3222,2.1836,2.2732,2.3668,2.3652,2.4824,2.4667,2.1761,2.0834,2.0464,2.0503,2.0503,2.0153,1.9278,1.9636,1.9759,1.9424,1.9243,1.9146,1.9169,1.9524,1.97,1.9686,2.022,1.9736,1.8156,1.7138,1.5482,1.3288,1.2216,1.1567,1.1308,1.2011,1.2792,1.3573,1.3396,1.4116,1.5359,1.4834,1.49,1.5343,1.5348,1.53,1.5283,1.528,1.5255,1.5187,1.512,1.5062,1.4992,1.4856,1.4856,1.4933,1.4965,1.4737,1.4524,1.4789,1.4631,1.4417,1.4654,1.4678,1.4627,1.4658,1.446,1.4241,1.4221,1.3949,1.3584,1.3196,1.3225,1.3126,1.2518,1.2389,1.2428,1.2654,1.2532,1.2211,1.1706,1.1059,1.0362,0.9588,0.8406,0.7916,0.8445,0.6576,0.6076,0.7577,0.7144,0.7546,0.9065,1.0277,1.1169,1.1736,1.2992,1.416,1.5197,1.5465,1.6022,1.6861,1.7044,1.7175,1.7296,1.7579,1.7839,1.8048,1.8159,1.8117,1.8039,1.8616,1.8682,1.8483,1.8569,1.8614,1.8574,2.1542,2.4019,2.5703,2.5702,2.5696,2.5693,2.5701,2.5702,2.5252,2.4037,2.1928,2.0525,2.0499,2.0522,2.0273,1.9633,2.0106,2.0422,2.0428,1.9877,1.9547,1.9573,1.9575,1.9587,1.9586,2.0194,2.0061,1.9194,1.8014,1.6845,1.5665,1.3986,1.3178,1.3183,1.3183,1.3515,1.4082,1.371,1.4276,1.5347,1.4721,1.4802,1.5307,1.53,1.5252,1.521,1.5226,1.5196,1.5168,1.5133,1.5106,1.5071,1.5049,1.5023,1.5038,1.5092,1.5092,1.5097,1.5011,1.4995,1.4979,1.4839,1.4776,1.4737,1.4738,1.4608,1.4426,1.4271,1.4046,1.3824,1.3715,1.3543,1.3327,1.3089,1.2921,1.2771,1.2717,1.2757,1.2553,1.184,1.1108,1.052,1.0222,0.9278,0.8876,0.9374,0.7391,0.673,0.8007,0.7513,0.79,0.942,1.0396,1.1332,1.2207,1.329,1.4435,1.5617,1.5761,1.6347,1.7338,1.724,1.732,1.7549,1.7755,1.7927,1.8087,1.8239,1.8381,1.8577,1.92,1.9347,1.924,1.9347,1.9217,1.8922,2.5625,2.5664,2.5703,2.5691,2.5707,2.5707,2.5707,2.5707,2.5687,2.5668,2.2701,2.057,2.0519,2.0552,2.0572,2.0483,2.0483,2.0497,2.0508,2.0547,2.0553,2.0488,2.0472,2.0479,2.0488,2.0486,2.0069,1.9207,1.9177,1.8321,1.6635,1.49,1.4089,1.4081,1.4081,1.4081,1.4159,1.5019,1.537,1.5407,1.5384,1.5353,1.5309,1.5307,1.5252,1.5215,1.5274,1.5215,1.5113,1.5176,1.5108,1.5015,1.5073,1.5094,1.5094,1.5094,1.5092,1.5083,1.5014,1.4998,1.4963,1.483,1.469,1.4639,1.4776,1.4598,1.4338,1.4131,1.405,1.3941,1.3743,1.3809,1.3581,1.2667,1.2952,1.2992,1.2124,1.2464,1.2535,1.1788,1.0993,1.0591,1.0867,0.9789,0.945,1.0319,0.9917,0.9452,0.9007,0.8721,0.9044,1.0051,1.0628,1.1422,1.2483,1.3769,1.4837,1.5716,1.6309,1.687,1.7411,1.7589,1.7664,1.7612,1.7878,1.8065,1.819,1.8113,1.8668,1.9495,1.9577,1.9555,1.9516,1.9709,1.9257,1.8529,2.5696,2.5696,2.5694,2.5709,2.5707,2.5701,2.5701,2.5696,2.5701,2.5701,2.271,2.0593,2.057,2.0543,2.0511,2.05,2.0533,2.055,2.0499,2.0528,2.0516,2.0506,2.0497,2.0514,2.0563,2.0516,2.0364,2.0097,1.9491,1.8649,1.7553,1.6401,1.5874,1.5873,1.5874,1.5543,1.4998,1.5272,1.5406,1.5358,1.4759,1.4837,1.5303,1.5292,1.5226,1.5133,1.5158,1.5146,1.5105,1.5127,1.5101,1.5073,1.5087,1.5106,1.5106,1.5095,1.5095,1.5107,1.5068,1.5061,1.5054,1.5018,1.4965,1.4944,1.4933,1.4729,1.4523,1.4453,1.4271,1.4087,1.3923,1.3938,1.3853,1.3509,1.3372,1.3211,1.2925,1.2937,1.2877,1.2557,1.1974,1.1826,1.2406,1.1215,1.0968,1.2404,1.0762,0.9486,0.8962,0.9454,0.979,0.9822,1.1239,1.2138,1.25,1.3937,1.5053,1.5774,1.633,1.698,1.7692,1.7833,1.7922,1.7944,1.8078,1.8138,1.8186,1.8836,1.9221,1.9433,2.0092,2.0306,2.0209,1.9861,1.9633,1.9465,2.5705,2.5707,2.5707,2.5707,2.5707,2.5703,2.5704,2.5698,2.5703,2.5704,2.271,2.0593,2.0593,2.056,2.0528,2.0506,2.0538,2.0536,2.049,2.0509,2.0494,2.0506,2.0812,2.0845,2.0578,2.0843,2.0848,2.0545,1.9979,1.9434,1.892,1.8058,1.7645,1.7644,1.6995,1.6571,1.6324,1.5679,1.56,1.5813,1.4933,1.487,1.5295,1.5295,1.5231,1.514,1.5146,1.512,1.5112,1.5092,1.5092,1.5066,1.5066,1.5059,1.5078,1.5088,1.5101,1.5101,1.5095,1.5095,1.5107,1.5094,1.5064,1.5011,1.4936,1.4785,1.4629,1.4569,1.4421,1.4232,1.4078,1.406,1.405,1.3918,1.3653,1.3411,1.3312,1.3009,1.274,1.2634,1.209,1.2049,1.2789,1.2109,1.2239,1.3752,1.2449,1.1292,1.0639,1.0328,1.0376,1.0775,1.1926,1.2823,1.3392,1.4555,1.5536,1.6278,1.6791,1.7299,1.7856,1.7917,1.7944,1.8031,1.8121,1.8159,1.8186,1.8822,1.9208,1.9465,2.0105,2.0302,2.025,1.9929,1.9733,1.956,2.5642,2.5705,2.5705,2.5705,2.5705,2.5705,2.5705,2.5705,2.5607,2.5375,2.2681,2.073,2.0612,2.0646,2.064,2.0519,2.0519,2.0494,2.05,2.0492,2.0492,2.051,2.1277,2.1331,2.0516,2.1306,2.1347,2.0586,2.0526,2.05,2.0471,1.9614,1.9244,1.9216,1.7599,1.7298,1.7884,1.6261,1.6011,1.662,1.575,1.5358,1.531,1.5303,1.5255,1.5204,1.5195,1.5159,1.5101,1.5106,1.5052,1.5015,1.5015,1.5015,1.5023,1.5073,1.5087,1.5087,1.5092,1.5092,1.5092,1.5092,1.4992,1.4894,1.4823,1.4794,1.4716,1.4552,1.4494,1.4423,1.4136,1.4162,1.4141,1.393,1.3793,1.3603,1.3362,1.2783,1.2345,1.2205,1.1722,1.1653,1.2336,1.2566,1.3188,1.4414,1.4572,1.4315,1.3599,1.1514,1.1014,1.2547,1.2707,1.3454,1.4896,1.5482,1.627,1.7181,1.7543,1.7833,1.799,1.7873,1.7873,1.7995,1.8087,1.8134,1.8232,1.8284,1.8826,1.9626,1.9688,1.9747,1.9825,1.9967,1.9614,1.9091,2.5184,2.5694,2.5694,2.5694,2.5694,2.5694,2.5694,2.5694,2.4765,2.2153,2.2213,2.2018,2.0749,2.1196,2.1312,2.0648,2.0586,2.0558,2.05,2.0555,2.0543,2.0499,2.0697,2.0744,2.058,2.073,2.0707,2.0516,2.0506,2.0508,2.0485,1.9651,1.9253,1.9212,1.8796,1.839,1.7964,1.7506,1.7075,1.6612,1.5756,1.539,1.5378,1.5319,1.5287,1.527,1.5226,1.5185,1.5176,1.5127,1.5127,1.5133,1.5092,1.5078,1.5078,1.5038,1.503,1.503,1.5023,1.5023,1.5023,1.5023,1.4992,1.4971,1.4895,1.5224,1.534,1.4652,1.494,1.507,1.4319,1.4224,1.4211,1.4009,1.3818,1.3667,1.3557,1.3356,1.3206,1.3172,1.319,1.3246,1.3437,1.3484,1.3806,1.4519,1.4076,1.4213,1.5169,1.4178,1.3294,1.2617,1.3793,1.4579,1.4896,1.609,1.7119,1.7935,1.8076,1.8418,1.8881,1.8392,1.8426,1.8864,1.8439,1.8319,1.8458,1.9035,1.9447,1.9747,1.9825,1.9825,1.9825,2.0003,2.001,1.9939,2.5274,2.5629,2.5618,2.5644,2.5649,2.5649,2.5649,2.5687,2.5035,2.3178,2.3727,2.394,2.3034,2.1959,2.112,2.0632,2.0566,2.0538,2.0509,2.0533,2.0538,2.0504,2.0874,2.0939,2.0618,2.0925,2.0904,2.0555,2.0544,2.0547,2.0546,2.007,1.9828,1.9786,1.9389,1.9172,1.9093,1.8253,1.7877,1.7727,1.6456,1.5952,1.5893,1.5474,1.5307,1.5306,1.525,1.5251,1.525,1.5174,1.5145,1.5159,1.5113,1.5071,1.5061,1.5011,1.5015,1.5057,1.5057,1.5057,1.5042,1.5008,1.4992,1.4979,1.4877,1.5113,1.5189,1.4618,1.4836,1.4971,1.4404,1.4313,1.4288,1.4159,1.4019,1.392,1.3851,1.3476,1.3328,1.3596,1.343,1.3546,1.4183,1.4284,1.4673,1.5579,1.531,1.5448,1.625,1.5985,1.5297,1.42,1.4999,1.5593,1.5851,1.6969,1.7759,1.8151,1.818,1.8408,1.8741,1.8366,1.859,1.9223,1.8931,1.9073,1.9496,1.9528,1.9882,2.0405,2.0048,1.9925,2.0002,2.0474,2.0479,2.0318,2.5577,2.5536,2.5515,2.5577,2.5595,2.5601,2.5613,2.5654,2.5704,2.5702,2.5703,2.5701,2.5709,2.2799,2.0847,2.0808,2.0623,2.0519,2.0521,2.0511,2.0528,2.0521,2.123,2.1294,2.0614,2.1263,2.1285,2.0602,2.0604,2.0605,2.0605,2.0544,2.0501,2.0474,1.9736,1.9812,2.0387,1.8773,1.851,1.9052,1.7412,1.6766,1.668,1.5963,1.5672,1.5652,1.5532,1.55,1.5463,1.5264,1.524,1.5268,1.5145,1.5137,1.5169,1.5036,1.5034,1.5078,1.5071,1.5083,1.5076,1.5008,1.4984,1.4955,1.4813,1.4869,1.4868,1.4554,1.4719,1.4823,1.4575,1.4623,1.464,1.4467,1.436,1.4253,1.41,1.3481,1.3281,1.393,1.3443,1.3576,1.4914,1.5052,1.5592,1.6832,1.6978,1.7033,1.7116,1.723,1.7014,1.6375,1.6254,1.653,1.7176,1.7866,1.8194,1.8155,1.8155,1.8276,1.8517,1.8379,1.877,1.9619,1.9566,1.9991,2.0643,1.9957,2.0276,2.1095,2.0372,2.0144,2.0351,2.1179,2.1093,2.0717,2.5522,2.5519,2.5492,2.5507,2.5564,2.5618,2.5682,2.5695,2.5694,2.5709,2.5691,2.5691,2.5707,2.3501,2.194,2.1723,2.1017,2.0586,2.0572,2.0586,2.0586,2.0572,2.071,2.0731,2.0598,2.0719,2.0721,2.0604,2.0605,2.0605,2.0605,2.0585,2.0542,2.049,2.0355,2.0367,2.0431,1.936,1.9018,1.9103,1.7984,1.7522,1.7528,1.7443,1.741,1.7324,1.6633,1.6394,1.6288,1.5463,1.5642,1.6067,1.5329,1.5521,1.5872,1.5204,1.5011,1.5011,1.4944,1.4971,1.5014,1.5006,1.4963,1.4885,1.4747,1.5189,1.541,1.4599,1.542,1.607,1.5364,1.5705,1.5844,1.5172,1.4958,1.4647,1.4008,1.3774,1.3971,1.4806,1.4803,1.5088,1.5972,1.5975,1.6255,1.7084,1.7058,1.7314,1.8031,1.8168,1.8121,1.7942,1.7392,1.7408,1.8096,1.8229,1.8319,1.8345,1.8287,1.8901,2.0033,1.9507,1.9929,2.1061,2.0545,2.0454,2.069,2.063,2.0784,2.1004,2.0939,2.0945,2.1054,2.1983,2.2201,2.2132,2.5613,2.5607,2.5607,2.5607,2.5634,2.5656,2.5644,2.5683,2.5693,2.5705,2.5707,2.5707,2.5707,2.3911,2.2676,2.2564,2.1747,2.1455,2.1918,2.1077,2.0545,2.0545,2.0999,2.1243,2.126,2.0812,2.0601,2.0605,2.0605,2.0605,2.0604,2.0561,2.0558,2.0557,2.0527,2.0497,2.0467,2.0032,1.9845,1.9759,1.8832,1.8436,1.8364,1.7947,1.7798,1.776,1.7418,1.7306,1.7223,1.676,1.685,1.7066,1.6601,1.6353,1.6265,1.628,1.5681,1.4992,1.496,1.4971,1.4998,1.4955,1.4911,1.4859,1.4726,1.4966,1.5051,1.4514,1.5261,1.5872,1.5476,1.5946,1.6278,1.5873,1.5768,1.5595,1.5192,1.511,1.5234,1.5635,1.5589,1.5854,1.6693,1.6691,1.6929,1.7668,1.7697,1.7835,1.8266,1.8322,1.8403,1.8508,1.8038,1.809,1.8724,1.8775,1.896,1.9253,1.9389,1.9728,2.0298,2.0148,2.0599,2.1429,2.1243,2.1427,2.1864,2.1499,2.1731,2.2265,2.1821,2.1708,2.1846,2.2285,2.247,2.2533,2.5682,2.5682,2.5687,2.5699,2.5704,2.5684,2.563,2.5678,2.5707,2.5707,2.5707,2.5395,2.4571,2.3657,2.3107,2.3101,2.2486,2.2386,2.3053,2.1854,2.111,2.1107,2.174,2.2015,2.1824,2.1217,2.0893,2.0879,2.0684,2.08,2.1163,2.0728,2.0648,2.0866,2.0638,2.0509,2.0519,2.0698,2.074,2.0637,2.0147,1.9899,1.9742,1.8962,1.866,1.8608,1.8294,1.8184,1.8145,1.7887,1.7915,1.8003,1.7704,1.7262,1.6899,1.7085,1.6261,1.5264,1.5256,1.5115,1.505,1.5329,1.5273,1.5142,1.5173,1.518,1.5147,1.495,1.5501,1.5966,1.5914,1.6435,1.6815,1.6585,1.6601,1.653,1.625,1.62,1.6254,1.643,1.6307,1.6527,1.7366,1.7396,1.7599,1.8184,1.8211,1.8236,1.8287,1.8301,1.8403,1.8622,1.8583,1.8762,1.9235,1.9396,1.9703,2.0135,2.0323,2.0474,2.059,2.0789,2.1236,2.1848,2.1933,2.233,2.2892,2.2307,2.2558,2.3242,2.2599,2.246,2.2615,2.2636,2.2718,2.2803,2.5607,2.5607,2.5624,2.5691,2.5703,2.5694,2.5698,2.5705,2.5707,2.5707,2.5707,2.4473,2.1243,2.2216,2.31,2.3096,2.3034,2.3027,2.3107,2.2978,2.292,2.2909,2.2964,2.2664,2.191,2.1833,2.1777,2.1715,2.0972,2.1395,2.2876,2.1329,2.0989,2.1675,2.0931,2.056,2.0542,2.1308,2.1574,2.1572,2.2241,2.246,2.2239,2.1515,2.1235,2.1029,1.9542,1.8999,1.8888,1.8078,1.8243,1.8689,1.7937,1.8064,1.8241,1.6797,1.6205,1.6016,1.6016,1.547,1.5226,1.6608,1.6381,1.5967,1.6518,1.6648,1.6611,1.6468,1.6978,1.7415,1.7363,1.7895,1.8119,1.7435,1.7275,1.7011,1.6373,1.6236,1.6449,1.7132,1.7146,1.7404,1.8133,1.8214,1.8229,1.829,1.8239,1.8232,1.8315,1.8304,1.8348,1.8426,1.9187,1.9612,1.9661,2.0079,2.039,2.0558,2.0512,2.0893,2.1677,2.1701,2.2143,2.2883,2.2832,2.2892,2.2977,2.2875,2.2943,2.3102,2.3049,2.3105,2.3248,2.3364,2.3427,2.3455,2.5649,2.5654,2.5678,2.5695,2.5699,2.5703,2.5697,2.5698,2.5707,2.5707,2.3853,2.2836,2.3632,2.3351,2.3548,2.4612,2.4222,2.4118,2.4619,2.417,2.3904,2.3912,2.3386,2.32,2.3457,2.2929,2.2633,2.2603,2.1766,2.1661,2.2271,2.1096,2.0701,2.0971,2.0662,2.0522,2.0549,2.137,2.1665,2.1675,2.2469,2.2439,2.1895,2.1647,2.1232,2.0685,2.0057,1.9832,1.9793,1.9452,1.9535,1.9701,1.9304,1.9026,1.8688,1.7937,1.8044,1.8486,1.8896,1.7681,1.6399,1.6965,1.6836,1.6627,1.683,1.6817,1.6747,1.6574,1.7139,1.7628,1.7471,1.8423,1.914,1.8818,1.8728,1.8603,1.8266,1.7829,1.7636,1.7897,1.7872,1.7937,1.8255,1.8301,1.8301,1.829,1.8239,1.8481,1.908,1.9164,1.9398,1.9931,2.0158,2.0187,2.0056,2.0729,2.1317,2.1721,2.1824,2.2005,2.2246,2.2408,2.259,2.2764,2.2893,2.2952,2.2944,2.2995,2.279,2.247,2.2975,2.2959,2.2627,2.2723,2.2771,2.2744,2.5671,2.5699,2.5699,2.5699,2.5699,2.5703,2.5694,2.5707,2.5698,2.5707,2.3657,2.3091,2.5434,2.4623,2.4293,2.5201,2.5006,2.5041,2.559,2.5105,2.4698,2.4405,2.4095,2.4062,2.4394,2.3804,2.3366,2.3098,2.2223,2.1923,2.2156,2.1039,2.0649,2.0912,2.0912,2.0908,2.0947,2.2037,2.2468,2.2453,2.3022,2.2857,2.2265,2.1787,2.1217,2.0631,2.0378,2.0476,2.0669,2.0383,2.0487,2.0648,2.028,1.9579,1.8878,1.8922,1.9319,1.9888,2.0573,1.9499,1.8162,1.8189,1.7779,1.7398,1.7559,1.7508,1.7418,1.7279,1.7644,1.7968,1.7879,1.8672,1.9406,1.965,1.9664,1.9602,1.9512,1.908,1.8665,1.8383,1.8287,1.8374,1.8679,1.8708,1.8795,1.9046,1.8992,1.9235,1.987,1.9952,2.024,2.0789,2.0912,2.0887,2.07,2.1438,2.2047,2.2487,2.2605,2.2632,2.2605,2.2816,2.2868,2.2842,2.3003,2.3102,2.3102,2.3168,2.29,2.2517,2.3071,2.2994,2.2611,2.2393,2.2554,2.271,2.5663,2.5699,2.5699,2.5699,2.5699,2.5694,2.5703,2.5704,2.5694,2.5703,2.5707,2.5707,2.5707,2.5701,2.5351,2.4491,2.5193,2.57,2.57,2.5697,2.5318,2.4444,2.523,2.5293,2.4433,2.4404,2.3981,2.3101,2.2246,2.2231,2.295,2.1285,2.0974,2.1803,2.1803,2.1755,2.1808,2.3488,2.4198,2.4204,2.4204,2.418,2.3916,2.2254,2.1571,2.1413,2.0595,2.0868,2.1461,2.059,2.0873,2.1444,2.057,1.9607,1.8944,1.9531,1.9673,1.9783,2.0511,2.0604,2.0523,2.0572,1.9344,1.8276,1.895,1.8999,1.8913,1.8895,1.8734,1.8659,1.8861,1.8695,1.8825,1.9759,1.9782,1.9696,1.9714,1.9658,1.93,1.851,1.8385,1.872,1.9528,1.9598,1.9895,2.0625,2.065,2.0604,2.0604,2.0604,2.0604,2.0622,2.1316,2.1683,2.1608,2.2192,2.2569,2.2712,2.2632,2.2659,2.2816,2.2868,2.3028,2.3289,2.3289,2.3407,2.3603,2.3453,2.3448,2.3476,2.343,2.3494,2.3495,2.2694,2.3001,2.3578,2.5654,2.5699,2.5707,2.5693,2.5696,2.5698,2.5705,2.5701,2.5693,2.5697,2.5705,2.5696,2.5707,2.5701,2.5605,2.5331,2.5546,2.5703,2.5702,2.57,2.5582,2.5329,2.5566,2.5579,2.5318,2.4715,2.4271,2.4018,2.3146,2.2848,2.3058,2.1926,2.1549,2.18,2.1792,2.1787,2.1876,2.3564,2.4277,2.4316,2.4826,2.4695,2.4123,2.3605,2.2678,2.1596,2.1326,2.0996,2.0646,2.0395,2.0477,2.0627,2.0276,2.0269,2.0433,2.0565,2.0961,2.1384,2.1572,2.1549,2.132,2.0684,1.9669,1.8875,1.9111,1.9099,1.8999,1.8861,1.8896,1.8896,1.8715,1.9122,1.9743,2.054,2.0121,1.9879,2.0402,1.9479,1.8898,1.9272,1.8775,1.893,2.0245,1.9384,1.907,1.98,2.0403,2.0985,2.1546,2.1534,2.1779,2.2328,2.192,2.195,2.2495,2.2608,2.2632,2.2632,2.2659,2.2685,2.2738,2.2816,2.285,2.297,2.3193,2.3313,2.3313,2.3448,2.3155,2.2714,2.3312,2.3249,2.2887,2.3259,2.3593,2.3801,2.7385,2.6615,2.5704,2.569,2.5681,2.5662,2.5705,2.5707,2.5698,2.5703,2.5696,2.5694,2.5697,2.5702,2.5703,2.5703,2.5703,2.5703,2.5703,2.5702,2.5703,2.5701,2.5696,2.5707,2.5696,2.5187,2.4573,2.3897,2.3702,2.3079,2.2078,2.1883,2.1623,2.1313,2.1978,2.228,2.2387,2.4025,2.4735,2.4754,2.4873,2.4625,2.4138,2.3813,2.3033,2.2137,2.2084,2.1965,2.1691,2.1009,2.0542,2.031,2.0508,2.0627,2.0644,2.0495,2.098,2.1559,2.1435,2.1371,2.1211,2.0633,1.9817,1.9182,1.9184,1.9152,1.9051,1.8914,1.8932,1.8932,1.8753,1.9071,1.9639,2.0477,2.0109,1.9867,2.0301,1.9784,1.9426,1.9679,1.95,1.9847,2.109,2.0328,1.9935,2.0388,2.095,2.1329,2.1481,2.1435,2.1762,2.2573,2.2031,2.2104,2.2876,2.2816,2.2764,2.2712,2.2685,2.2712,2.2816,2.2868,2.2944,2.3045,2.3289,2.3383,2.3407,2.3522,2.3303,2.2952,2.3458,2.3613,2.3512,2.3717,2.4251,2.4765,3.0081,2.8242,2.6044,2.5738,2.5644,2.563,2.5698,2.5705,2.5698,2.5703,2.5704,2.5709,2.5703,2.5703,2.5703,2.5703,2.5703,2.5703,2.5703,2.5703,2.5702,2.5709,2.5707,2.5703,2.569,2.5616,2.481,2.3218,2.4007,2.3189,2.0859,2.1669,2.1613,2.0912,2.2445,2.3098,2.3217,2.4764,2.5418,2.536,2.4621,2.4285,2.4154,2.3403,2.3033,2.2929,2.2921,2.3375,2.3724,2.2139,2.1116,2.0603,2.1138,2.0788,2.0115,1.9716,2.0158,2.0741,2.046,2.0448,2.0505,2.0396,1.9847,1.9282,1.9235,1.9153,1.9087,1.9019,1.8914,1.8843,1.8878,1.8734,1.8908,1.9842,1.9759,1.9621,1.9691,2.023,2.0385,1.9787,2.0227,2.0947,2.1803,2.1796,2.169,2.162,2.1791,2.1534,2.0753,2.0765,2.1109,2.177,2.1857,2.2223,2.2902,2.2902,2.2893,2.2893,2.2712,2.2764,2.2995,2.3003,2.3144,2.3383,2.3453,2.3585,2.3678,2.37,2.3721,2.3783,2.3804,2.4241,2.4809,2.3988,2.4777,2.6023,3.0461,3.0074,2.8765,2.609,2.5656,2.5687,2.5694,2.5696,2.5698,2.5703,2.5701,2.5697,2.5698,2.5703,2.5703,2.5703,2.5703,2.5703,2.5703,2.5703,2.5701,2.5693,2.5705,2.5701,2.5698,2.5024,2.45,2.4128,2.4309,2.4113,2.3556,2.3755,2.3715,2.349,2.3864,2.3994,2.3999,2.5105,2.5557,2.5531,2.537,2.5292,2.524,2.5027,2.4462,2.3829,2.3879,2.3507,2.294,2.2575,2.2658,2.2749,2.1651,2.1498,2.1451,2.0079,2.0168,2.0548,1.9761,2.0089,2.0489,1.9735,1.9423,1.9311,1.9282,1.9269,1.9202,1.9036,1.9019,1.8984,1.8861,1.8788,1.9001,1.9805,1.9317,1.9063,1.9679,1.9374,1.923,1.9653,1.9336,1.9597,2.0943,2.1083,2.0842,2.0269,2.0758,2.0982,2.0802,2.1266,2.1638,2.1788,2.2362,2.277,2.2995,2.2944,2.2893,2.2893,2.2919,2.2919,2.2944,2.3045,2.3119,2.3193,2.3383,2.3494,2.3476,2.3678,2.3718,2.3652,2.3761,2.3898,2.3979,2.3279,2.4087,2.5646,3.064,3.068,2.9622,2.6203,2.5667,2.569,2.5696,2.5703,2.5701,2.5697,2.5709,2.5701,2.5701,2.5703,2.5703,2.5703,2.5703,2.5703,2.5703,2.531,2.5269,2.5675,2.5295,2.5273,2.5694,2.524,2.4814,2.4391,2.4821,2.4586,2.3784,2.4213,2.4161,2.3747,2.4133,2.4287,2.4294,2.5181,2.555,2.555,2.5544,2.5531,2.5492,2.549,2.5166,2.4676,2.4703,2.4147,2.342,2.3813,2.3339,2.2528,2.2073,2.154,2.1003,2.0463,2.055,2.066,2.0111,2.0363,2.0526,1.9619,1.9372,1.9308,1.9232,1.92,1.9153,1.9001,1.8966,1.8966,1.8788,1.8752,1.8858,1.923,1.8887,1.8743,1.9208,1.9222,1.9343,1.9734,1.977,2.0008,2.0705,2.0864,2.059,1.9672,2.0385,2.0666,2.0193,2.0882,2.1429,2.1788,2.2195,2.2628,2.3028,2.3003,2.302,2.3028,2.3003,2.3045,2.3077,2.3168,2.3241,2.3289,2.3448,2.3494,2.3471,2.3607,2.3634,2.371,2.4176,2.4603,2.4922,2.4608,2.5248,2.649,3.0683,3.069,2.9629,2.6215,2.5654,2.5697,2.5696,2.5945,2.6013,2.5749,2.5867,2.5916,2.5723,2.5703,2.5703,2.5703,2.5703,2.5702,2.5701,2.5016,2.4935,2.5677,2.5006,2.4952,2.5683,2.5702,2.5351,2.4629,2.5349,2.4959,2.3555,2.4276,2.4228,2.3567,2.4241,2.4534,2.4574,2.5224,2.5517,2.5517,2.5511,2.5486,2.5444,2.5495,2.5423,2.5322,2.5322,2.488,2.439,2.5061,2.3725,2.1894,2.2427,2.1555,2.0382,2.0696,2.083,2.0807,2.0552,2.0533,2.0414,1.9685,1.9446,1.9357,1.918,1.9135,1.9087,1.893,1.8913,1.886,1.8734,1.8697,1.8697,1.8641,1.8619,1.8619,1.8715,1.9264,1.967,1.9729,2.0258,2.0548,2.035,2.0625,2.0449,1.9543,2.0359,2.0539,1.9743,2.0608,2.1354,2.1986,2.2338,2.2755,2.3312,2.3312,2.3267,2.3193,2.3095,2.3119,2.3265,2.3289,2.336,2.3448,2.3494,2.3494,2.3494,2.3682,2.3715,2.3768,2.4811,2.5525,2.6023,2.6218,2.6622,2.724,3.061,3.0668,2.9642,2.6266,2.5695,2.5694,2.5705,2.6927,2.7348,2.5885,2.6561,2.6786,2.5819,2.5703,2.5703,2.5703,2.5703,2.5702,2.5703,2.5585,2.5585,2.5683,2.5585,2.5586,2.5701,2.5703,2.5643,2.5521,2.5638,2.558,2.5344,2.5466,2.5429,2.5269,2.5449,2.5486,2.5435,2.5537,2.5595,2.5595,2.5586,2.5576,2.5571,2.5582,2.549,2.5385,2.544,2.5283,2.5075,2.5173,2.4393,2.3297,2.2768,2.2305,2.1719,2.0364,2.0326,2.0556,1.9775,1.967,1.9699,1.946,1.9456,1.9475,1.939,1.9282,1.9153,1.9018,1.8984,1.8931,1.8734,1.8697,1.8697,1.8697,1.8641,1.8659,1.8843,1.8968,1.9039,1.9022,1.9056,1.9034,1.8902,1.9597,1.9952,1.9765,2.0406,2.0771,2.0627,2.1949,2.273,2.2828,2.4217,2.4682,2.4146,2.4146,2.3786,2.3102,2.3151,2.3168,2.3144,2.3241,2.3289,2.3241,2.3407,2.3471,2.3501,2.441,2.4325,2.3773,2.5411,2.5692,2.5253,2.6014,2.6042,2.5897,3.0593,3.0626,3.0191,2.874,2.7745,2.7036,2.6691,2.6739,2.6761,2.6668,2.6522,2.6259,2.5757,2.5703,2.5703,2.5703,2.5703,2.5703,2.5703,2.5234,2.5194,2.5683,2.5233,2.5193,2.5697,2.6188,2.6187,2.5691,2.5707,2.5707,2.5707,2.5693,2.5682,2.5661,2.5693,2.5676,2.5652,2.566,2.566,2.5652,2.566,2.5632,2.5604,2.5609,2.5525,2.539,2.5397,2.5332,2.5252,2.5222,2.4572,2.3671,2.2863,2.2182,2.162,2.1286,2.1349,2.1533,2.1581,2.1652,2.1589,2.1042,2.0548,2.0156,2.0132,1.9659,1.9168,1.907,1.9052,1.9,1.8788,1.8752,1.8752,1.8715,1.8678,1.8715,1.8896,1.9291,1.956,1.9578,1.9504,1.925,1.8654,1.9326,1.9765,1.9703,2.0771,2.1417,2.1474,2.2511,2.3344,2.3809,2.4048,2.4249,2.4406,2.389,2.3478,2.3168,2.3144,2.3144,2.3168,2.3289,2.3336,2.3313,2.3448,2.3517,2.3552,2.4028,2.4271,2.4491,2.5723,2.6276,2.6499,2.7326,2.7154,2.6695]}]]